<?xml version="1.0" encoding="UTF-8" standalone="no" ?>
<gpx xmlns="http://www.topografix.com/GPX/1/1" xmlns:xsi="http://www.w3.org/2001/XMLSchema-instance" xsi:schemaLocation="http://www.topografix.com/GPX/1/1 http://www.topografix.com/GPX/1/1/gpx.xsd" version="1.1" creator="VisuGPX - https://www.visugpx.com">
  <metadata>
    <name>sortie du 28/02/2017</name>
    <desc><![CDATA[gros parcours avec des passages vraiment sympa]]></desc>
  </metadata>
  <trk>
    <name><![CDATA[Tracé actuel: 28 FEV 2017 08:02]]></name>
    <trkseg>
      <trkpt lat="43.35223" lon="-0.55324">
        <ele>125.59</ele>
        <time>2017-02-28T07:02:05Z</time>
      </trkpt>
      <trkpt lat="43.35221" lon="-0.55325">
        <ele>123.67</ele>
        <time>2017-02-28T07:02:40Z</time>
      </trkpt>
      <trkpt lat="43.35222" lon="-0.55323">
        <ele>120.3</ele>
        <time>2017-02-28T07:03:01Z</time>
      </trkpt>
      <trkpt lat="43.35223" lon="-0.55315">
        <ele>120.78</ele>
        <time>2017-02-28T07:03:05Z</time>
      </trkpt>
      <trkpt lat="43.3522" lon="-0.55252">
        <ele>123.67</ele>
        <time>2017-02-28T07:03:21Z</time>
      </trkpt>
      <trkpt lat="43.3521" lon="-0.55222">
        <ele>123.67</ele>
        <time>2017-02-28T07:03:27Z</time>
      </trkpt>
      <trkpt lat="43.35172" lon="-0.55157">
        <ele>127.03</ele>
        <time>2017-02-28T07:03:43Z</time>
      </trkpt>
      <trkpt lat="43.35124" lon="-0.55117">
        <ele>127.51</ele>
        <time>2017-02-28T07:03:57Z</time>
      </trkpt>
      <trkpt lat="43.35066" lon="-0.55088">
        <ele>125.11</ele>
        <time>2017-02-28T07:04:10Z</time>
      </trkpt>
      <trkpt lat="43.3505" lon="-0.55081">
        <ele>125.11</ele>
        <time>2017-02-28T07:04:13Z</time>
      </trkpt>
      <trkpt lat="43.34988" lon="-0.55011">
        <ele>125.11</ele>
        <time>2017-02-28T07:04:28Z</time>
      </trkpt>
      <trkpt lat="43.34946" lon="-0.54937">
        <ele>128.47</ele>
        <time>2017-02-28T07:04:44Z</time>
      </trkpt>
      <trkpt lat="43.34918" lon="-0.54911">
        <ele>130.88</ele>
        <time>2017-02-28T07:04:55Z</time>
      </trkpt>
      <trkpt lat="43.34884" lon="-0.54896">
        <ele>131.36</ele>
        <time>2017-02-28T07:05:04Z</time>
      </trkpt>
      <trkpt lat="43.34849" lon="-0.54887">
        <ele>130.88</ele>
        <time>2017-02-28T07:05:12Z</time>
      </trkpt>
      <trkpt lat="43.34845" lon="-0.54883">
        <ele>130.88</ele>
        <time>2017-02-28T07:05:13Z</time>
      </trkpt>
      <trkpt lat="43.34833" lon="-0.54868">
        <ele>129.92</ele>
        <time>2017-02-28T07:05:17Z</time>
      </trkpt>
      <trkpt lat="43.34831" lon="-0.54863">
        <ele>129.43</ele>
        <time>2017-02-28T07:05:18Z</time>
      </trkpt>
      <trkpt lat="43.34828" lon="-0.54858">
        <ele>128.95</ele>
        <time>2017-02-28T07:05:19Z</time>
      </trkpt>
      <trkpt lat="43.34827" lon="-0.54851">
        <ele>128.47</ele>
        <time>2017-02-28T07:05:20Z</time>
      </trkpt>
      <trkpt lat="43.34826" lon="-0.54845">
        <ele>128.47</ele>
        <time>2017-02-28T07:05:21Z</time>
      </trkpt>
      <trkpt lat="43.34826" lon="-0.5484">
        <ele>128.47</ele>
        <time>2017-02-28T07:05:22Z</time>
      </trkpt>
      <trkpt lat="43.34827" lon="-0.54835">
        <ele>128.47</ele>
        <time>2017-02-28T07:05:23Z</time>
      </trkpt>
      <trkpt lat="43.34827" lon="-0.5483">
        <ele>128.47</ele>
        <time>2017-02-28T07:05:24Z</time>
      </trkpt>
      <trkpt lat="43.34828" lon="-0.54826">
        <ele>128.47</ele>
        <time>2017-02-28T07:05:25Z</time>
      </trkpt>
      <trkpt lat="43.34829" lon="-0.54823">
        <ele>127.99</ele>
        <time>2017-02-28T07:05:26Z</time>
      </trkpt>
      <trkpt lat="43.34829" lon="-0.54819">
        <ele>127.99</ele>
        <time>2017-02-28T07:05:27Z</time>
      </trkpt>
      <trkpt lat="43.3483" lon="-0.54816">
        <ele>127.99</ele>
        <time>2017-02-28T07:05:28Z</time>
      </trkpt>
      <trkpt lat="43.34853" lon="-0.54788">
        <ele>130.4</ele>
        <time>2017-02-28T07:05:41Z</time>
      </trkpt>
      <trkpt lat="43.34879" lon="-0.54766">
        <ele>135.2</ele>
        <time>2017-02-28T07:05:56Z</time>
      </trkpt>
      <trkpt lat="43.34899" lon="-0.54739">
        <ele>136.64</ele>
        <time>2017-02-28T07:06:11Z</time>
      </trkpt>
      <trkpt lat="43.34918" lon="-0.54686">
        <ele>138.09</ele>
        <time>2017-02-28T07:06:30Z</time>
      </trkpt>
      <trkpt lat="43.34936" lon="-0.54641">
        <ele>140.97</ele>
        <time>2017-02-28T07:06:48Z</time>
      </trkpt>
      <trkpt lat="43.34958" lon="-0.54633">
        <ele>145.3</ele>
        <time>2017-02-28T07:07:04Z</time>
      </trkpt>
      <trkpt lat="43.34965" lon="-0.54633">
        <ele>146.74</ele>
        <time>2017-02-28T07:07:09Z</time>
      </trkpt>
      <trkpt lat="43.34987" lon="-0.54638">
        <ele>150.58</ele>
        <time>2017-02-28T07:07:27Z</time>
      </trkpt>
      <trkpt lat="43.3501" lon="-0.54643">
        <ele>152.51</ele>
        <time>2017-02-28T07:07:45Z</time>
      </trkpt>
      <trkpt lat="43.35022" lon="-0.54647">
        <ele>154.43</ele>
        <time>2017-02-28T07:07:55Z</time>
      </trkpt>
      <trkpt lat="43.35023" lon="-0.54647">
        <ele>154.91</ele>
        <time>2017-02-28T07:07:56Z</time>
      </trkpt>
      <trkpt lat="43.35025" lon="-0.54647">
        <ele>154.91</ele>
        <time>2017-02-28T07:07:57Z</time>
      </trkpt>
      <trkpt lat="43.35026" lon="-0.54647">
        <ele>154.91</ele>
        <time>2017-02-28T07:07:58Z</time>
      </trkpt>
      <trkpt lat="43.35027" lon="-0.54647">
        <ele>155.39</ele>
        <time>2017-02-28T07:07:59Z</time>
      </trkpt>
      <trkpt lat="43.35028" lon="-0.54647">
        <ele>155.39</ele>
        <time>2017-02-28T07:08:00Z</time>
      </trkpt>
      <trkpt lat="43.35029" lon="-0.54647">
        <ele>155.39</ele>
        <time>2017-02-28T07:08:01Z</time>
      </trkpt>
      <trkpt lat="43.35051" lon="-0.54649">
        <ele>157.79</ele>
        <time>2017-02-28T07:08:17Z</time>
      </trkpt>
      <trkpt lat="43.35072" lon="-0.54653">
        <ele>159.72</ele>
        <time>2017-02-28T07:08:34Z</time>
      </trkpt>
      <trkpt lat="43.35087" lon="-0.54659">
        <ele>164.52</ele>
        <time>2017-02-28T07:08:49Z</time>
      </trkpt>
      <trkpt lat="43.35088" lon="-0.54658">
        <ele>165</ele>
        <time>2017-02-28T07:08:50Z</time>
      </trkpt>
      <trkpt lat="43.35089" lon="-0.54658">
        <ele>165.48</ele>
        <time>2017-02-28T07:08:51Z</time>
      </trkpt>
      <trkpt lat="43.35104" lon="-0.54646">
        <ele>166.45</ele>
        <time>2017-02-28T07:09:00Z</time>
      </trkpt>
      <trkpt lat="43.35106" lon="-0.54644">
        <ele>166.45</ele>
        <time>2017-02-28T07:09:01Z</time>
      </trkpt>
      <trkpt lat="43.35131" lon="-0.54626">
        <ele>167.41</ele>
        <time>2017-02-28T07:09:16Z</time>
      </trkpt>
      <trkpt lat="43.35155" lon="-0.5461">
        <ele>170.77</ele>
        <time>2017-02-28T07:09:31Z</time>
      </trkpt>
      <trkpt lat="43.35162" lon="-0.54597">
        <ele>171.73</ele>
        <time>2017-02-28T07:09:37Z</time>
      </trkpt>
      <trkpt lat="43.35163" lon="-0.54595">
        <ele>171.73</ele>
        <time>2017-02-28T07:09:38Z</time>
      </trkpt>
      <trkpt lat="43.35165" lon="-0.54584">
        <ele>171.73</ele>
        <time>2017-02-28T07:09:46Z</time>
      </trkpt>
      <trkpt lat="43.35166" lon="-0.54582">
        <ele>171.73</ele>
        <time>2017-02-28T07:09:47Z</time>
      </trkpt>
      <trkpt lat="43.35166" lon="-0.54579">
        <ele>171.73</ele>
        <time>2017-02-28T07:09:48Z</time>
      </trkpt>
      <trkpt lat="43.35165" lon="-0.54545">
        <ele>170.77</ele>
        <time>2017-02-28T07:10:04Z</time>
      </trkpt>
      <trkpt lat="43.35166" lon="-0.54518">
        <ele>172.69</ele>
        <time>2017-02-28T07:10:18Z</time>
      </trkpt>
      <trkpt lat="43.35166" lon="-0.54516">
        <ele>172.21</ele>
        <time>2017-02-28T07:10:19Z</time>
      </trkpt>
      <trkpt lat="43.35166" lon="-0.54514">
        <ele>172.21</ele>
        <time>2017-02-28T07:10:20Z</time>
      </trkpt>
      <trkpt lat="43.35166" lon="-0.54512">
        <ele>172.69</ele>
        <time>2017-02-28T07:10:21Z</time>
      </trkpt>
      <trkpt lat="43.35166" lon="-0.54511">
        <ele>172.69</ele>
        <time>2017-02-28T07:10:22Z</time>
      </trkpt>
      <trkpt lat="43.35166" lon="-0.54509">
        <ele>172.69</ele>
        <time>2017-02-28T07:10:23Z</time>
      </trkpt>
      <trkpt lat="43.35166" lon="-0.54507">
        <ele>173.17</ele>
        <time>2017-02-28T07:10:24Z</time>
      </trkpt>
      <trkpt lat="43.35166" lon="-0.54505">
        <ele>173.17</ele>
        <time>2017-02-28T07:10:25Z</time>
      </trkpt>
      <trkpt lat="43.35165" lon="-0.54495">
        <ele>175.1</ele>
        <time>2017-02-28T07:10:32Z</time>
      </trkpt>
      <trkpt lat="43.35167" lon="-0.5447">
        <ele>177.98</ele>
        <time>2017-02-28T07:10:49Z</time>
      </trkpt>
      <trkpt lat="43.35169" lon="-0.54463">
        <ele>178.46</ele>
        <time>2017-02-28T07:10:53Z</time>
      </trkpt>
      <trkpt lat="43.3517" lon="-0.54462">
        <ele>178.94</ele>
        <time>2017-02-28T07:10:54Z</time>
      </trkpt>
      <trkpt lat="43.3517" lon="-0.5446">
        <ele>178.94</ele>
        <time>2017-02-28T07:10:55Z</time>
      </trkpt>
      <trkpt lat="43.35171" lon="-0.54459">
        <ele>179.42</ele>
        <time>2017-02-28T07:10:56Z</time>
      </trkpt>
      <trkpt lat="43.35171" lon="-0.54457">
        <ele>179.42</ele>
        <time>2017-02-28T07:10:57Z</time>
      </trkpt>
      <trkpt lat="43.35172" lon="-0.54455">
        <ele>179.42</ele>
        <time>2017-02-28T07:10:58Z</time>
      </trkpt>
      <trkpt lat="43.35183" lon="-0.5441">
        <ele>178.46</ele>
        <time>2017-02-28T07:11:13Z</time>
      </trkpt>
      <trkpt lat="43.35191" lon="-0.5435">
        <ele>177.98</ele>
        <time>2017-02-28T07:11:25Z</time>
      </trkpt>
      <trkpt lat="43.352" lon="-0.54317">
        <ele>177.02</ele>
        <time>2017-02-28T07:11:31Z</time>
      </trkpt>
      <trkpt lat="43.35201" lon="-0.5431">
        <ele>176.54</ele>
        <time>2017-02-28T07:11:32Z</time>
      </trkpt>
      <trkpt lat="43.352" lon="-0.54304">
        <ele>176.54</ele>
        <time>2017-02-28T07:11:33Z</time>
      </trkpt>
      <trkpt lat="43.35199" lon="-0.54297">
        <ele>176.54</ele>
        <time>2017-02-28T07:11:34Z</time>
      </trkpt>
      <trkpt lat="43.35198" lon="-0.54292">
        <ele>177.02</ele>
        <time>2017-02-28T07:11:35Z</time>
      </trkpt>
      <trkpt lat="43.35185" lon="-0.5423">
        <ele>179.42</ele>
        <time>2017-02-28T07:11:50Z</time>
      </trkpt>
      <trkpt lat="43.35172" lon="-0.5419">
        <ele>182.31</ele>
        <time>2017-02-28T07:12:04Z</time>
      </trkpt>
      <trkpt lat="43.35171" lon="-0.54158">
        <ele>185.19</ele>
        <time>2017-02-28T07:12:21Z</time>
      </trkpt>
      <trkpt lat="43.35178" lon="-0.54127">
        <ele>187.11</ele>
        <time>2017-02-28T07:12:39Z</time>
      </trkpt>
      <trkpt lat="43.35187" lon="-0.54097">
        <ele>189.52</ele>
        <time>2017-02-28T07:12:56Z</time>
      </trkpt>
      <trkpt lat="43.35188" lon="-0.54067">
        <ele>194.8</ele>
        <time>2017-02-28T07:13:13Z</time>
      </trkpt>
      <trkpt lat="43.35168" lon="-0.54051">
        <ele>197.69</ele>
        <time>2017-02-28T07:13:27Z</time>
      </trkpt>
      <trkpt lat="43.35147" lon="-0.5404">
        <ele>198.65</ele>
        <time>2017-02-28T07:13:39Z</time>
      </trkpt>
      <trkpt lat="43.35116" lon="-0.54029">
        <ele>200.57</ele>
        <time>2017-02-28T07:13:53Z</time>
      </trkpt>
      <trkpt lat="43.35093" lon="-0.53994">
        <ele>201.53</ele>
        <time>2017-02-28T07:14:05Z</time>
      </trkpt>
      <trkpt lat="43.35079" lon="-0.53967">
        <ele>201.53</ele>
        <time>2017-02-28T07:14:11Z</time>
      </trkpt>
      <trkpt lat="43.35077" lon="-0.53961">
        <ele>201.53</ele>
        <time>2017-02-28T07:14:12Z</time>
      </trkpt>
      <trkpt lat="43.35076" lon="-0.53954">
        <ele>201.05</ele>
        <time>2017-02-28T07:14:13Z</time>
      </trkpt>
      <trkpt lat="43.35076" lon="-0.53947">
        <ele>201.05</ele>
        <time>2017-02-28T07:14:14Z</time>
      </trkpt>
      <trkpt lat="43.35075" lon="-0.53939">
        <ele>201.05</ele>
        <time>2017-02-28T07:14:15Z</time>
      </trkpt>
      <trkpt lat="43.35075" lon="-0.53932">
        <ele>201.05</ele>
        <time>2017-02-28T07:14:16Z</time>
      </trkpt>
      <trkpt lat="43.35075" lon="-0.53926">
        <ele>201.05</ele>
        <time>2017-02-28T07:14:17Z</time>
      </trkpt>
      <trkpt lat="43.35076" lon="-0.53921">
        <ele>200.57</ele>
        <time>2017-02-28T07:14:18Z</time>
      </trkpt>
      <trkpt lat="43.35078" lon="-0.53892">
        <ele>198.65</ele>
        <time>2017-02-28T07:14:22Z</time>
      </trkpt>
      <trkpt lat="43.35076" lon="-0.53865">
        <ele>196.73</ele>
        <time>2017-02-28T07:14:26Z</time>
      </trkpt>
      <trkpt lat="43.35056" lon="-0.5377">
        <ele>191.44</ele>
        <time>2017-02-28T07:14:37Z</time>
      </trkpt>
      <trkpt lat="43.35044" lon="-0.53728">
        <ele>190</ele>
        <time>2017-02-28T07:14:42Z</time>
      </trkpt>
      <trkpt lat="43.35041" lon="-0.53725">
        <ele>190</ele>
        <time>2017-02-28T07:14:43Z</time>
      </trkpt>
      <trkpt lat="43.35037" lon="-0.53724">
        <ele>190</ele>
        <time>2017-02-28T07:14:44Z</time>
      </trkpt>
      <trkpt lat="43.35034" lon="-0.53724">
        <ele>189.52</ele>
        <time>2017-02-28T07:14:45Z</time>
      </trkpt>
      <trkpt lat="43.3503" lon="-0.53726">
        <ele>189.52</ele>
        <time>2017-02-28T07:14:46Z</time>
      </trkpt>
      <trkpt lat="43.35026" lon="-0.53729">
        <ele>189.04</ele>
        <time>2017-02-28T07:14:47Z</time>
      </trkpt>
      <trkpt lat="43.35021" lon="-0.53735">
        <ele>188.08</ele>
        <time>2017-02-28T07:14:48Z</time>
      </trkpt>
      <trkpt lat="43.34976" lon="-0.53786">
        <ele>177.98</ele>
        <time>2017-02-28T07:14:58Z</time>
      </trkpt>
      <trkpt lat="43.34973" lon="-0.53792">
        <ele>176.54</ele>
        <time>2017-02-28T07:14:59Z</time>
      </trkpt>
      <trkpt lat="43.34971" lon="-0.53799">
        <ele>176.06</ele>
        <time>2017-02-28T07:15:00Z</time>
      </trkpt>
      <trkpt lat="43.34971" lon="-0.53809">
        <ele>175.1</ele>
        <time>2017-02-28T07:15:01Z</time>
      </trkpt>
      <trkpt lat="43.34971" lon="-0.53817">
        <ele>174.62</ele>
        <time>2017-02-28T07:15:02Z</time>
      </trkpt>
      <trkpt lat="43.34972" lon="-0.53827">
        <ele>174.14</ele>
        <time>2017-02-28T07:15:03Z</time>
      </trkpt>
      <trkpt lat="43.34974" lon="-0.53906">
        <ele>175.1</ele>
        <time>2017-02-28T07:15:13Z</time>
      </trkpt>
      <trkpt lat="43.34978" lon="-0.53928">
        <ele>175.1</ele>
        <time>2017-02-28T07:15:16Z</time>
      </trkpt>
      <trkpt lat="43.34999" lon="-0.5401">
        <ele>177.5</ele>
        <time>2017-02-28T07:15:28Z</time>
      </trkpt>
      <trkpt lat="43.35" lon="-0.54018">
        <ele>177.02</ele>
        <time>2017-02-28T07:15:29Z</time>
      </trkpt>
      <trkpt lat="43.35" lon="-0.54026">
        <ele>176.54</ele>
        <time>2017-02-28T07:15:30Z</time>
      </trkpt>
      <trkpt lat="43.34999" lon="-0.54035">
        <ele>176.54</ele>
        <time>2017-02-28T07:15:31Z</time>
      </trkpt>
      <trkpt lat="43.34997" lon="-0.54044">
        <ele>176.54</ele>
        <time>2017-02-28T07:15:32Z</time>
      </trkpt>
      <trkpt lat="43.34995" lon="-0.54052">
        <ele>176.54</ele>
        <time>2017-02-28T07:15:33Z</time>
      </trkpt>
      <trkpt lat="43.34991" lon="-0.5407">
        <ele>176.54</ele>
        <time>2017-02-28T07:15:35Z</time>
      </trkpt>
      <trkpt lat="43.3499" lon="-0.54078">
        <ele>176.06</ele>
        <time>2017-02-28T07:15:36Z</time>
      </trkpt>
      <trkpt lat="43.34988" lon="-0.54155">
        <ele>174.62</ele>
        <time>2017-02-28T07:15:45Z</time>
      </trkpt>
      <trkpt lat="43.34989" lon="-0.54163">
        <ele>174.62</ele>
        <time>2017-02-28T07:15:46Z</time>
      </trkpt>
      <trkpt lat="43.34991" lon="-0.5417">
        <ele>174.62</ele>
        <time>2017-02-28T07:15:47Z</time>
      </trkpt>
      <trkpt lat="43.35005" lon="-0.54215">
        <ele>172.21</ele>
        <time>2017-02-28T07:15:53Z</time>
      </trkpt>
      <trkpt lat="43.35006" lon="-0.54223">
        <ele>171.25</ele>
        <time>2017-02-28T07:15:54Z</time>
      </trkpt>
      <trkpt lat="43.35005" lon="-0.5423">
        <ele>170.29</ele>
        <time>2017-02-28T07:15:55Z</time>
      </trkpt>
      <trkpt lat="43.35003" lon="-0.54238">
        <ele>169.81</ele>
        <time>2017-02-28T07:15:56Z</time>
      </trkpt>
      <trkpt lat="43.34999" lon="-0.54245">
        <ele>168.85</ele>
        <time>2017-02-28T07:15:57Z</time>
      </trkpt>
      <trkpt lat="43.34994" lon="-0.54252">
        <ele>167.89</ele>
        <time>2017-02-28T07:15:58Z</time>
      </trkpt>
      <trkpt lat="43.34987" lon="-0.5426">
        <ele>166.45</ele>
        <time>2017-02-28T07:15:59Z</time>
      </trkpt>
      <trkpt lat="43.34907" lon="-0.54362">
        <ele>156.83</ele>
        <time>2017-02-28T07:16:11Z</time>
      </trkpt>
      <trkpt lat="43.349" lon="-0.54368">
        <ele>156.83</ele>
        <time>2017-02-28T07:16:12Z</time>
      </trkpt>
      <trkpt lat="43.34894" lon="-0.54371">
        <ele>156.83</ele>
        <time>2017-02-28T07:16:13Z</time>
      </trkpt>
      <trkpt lat="43.34886" lon="-0.54372">
        <ele>156.35</ele>
        <time>2017-02-28T07:16:14Z</time>
      </trkpt>
      <trkpt lat="43.34878" lon="-0.54373">
        <ele>155.87</ele>
        <time>2017-02-28T07:16:15Z</time>
      </trkpt>
      <trkpt lat="43.3487" lon="-0.54376">
        <ele>155.39</ele>
        <time>2017-02-28T07:16:16Z</time>
      </trkpt>
      <trkpt lat="43.34863" lon="-0.5438">
        <ele>154.91</ele>
        <time>2017-02-28T07:16:17Z</time>
      </trkpt>
      <trkpt lat="43.34855" lon="-0.54385">
        <ele>154.43</ele>
        <time>2017-02-28T07:16:18Z</time>
      </trkpt>
      <trkpt lat="43.34849" lon="-0.54391">
        <ele>153.95</ele>
        <time>2017-02-28T07:16:19Z</time>
      </trkpt>
      <trkpt lat="43.34807" lon="-0.54436">
        <ele>152.03</ele>
        <time>2017-02-28T07:16:26Z</time>
      </trkpt>
      <trkpt lat="43.34728" lon="-0.54529">
        <ele>142.89</ele>
        <time>2017-02-28T07:16:38Z</time>
      </trkpt>
      <trkpt lat="43.34721" lon="-0.54538">
        <ele>142.41</ele>
        <time>2017-02-28T07:16:39Z</time>
      </trkpt>
      <trkpt lat="43.34663" lon="-0.54609">
        <ele>137.13</ele>
        <time>2017-02-28T07:16:49Z</time>
      </trkpt>
      <trkpt lat="43.34656" lon="-0.54617">
        <ele>136.16</ele>
        <time>2017-02-28T07:16:52Z</time>
      </trkpt>
      <trkpt lat="43.34653" lon="-0.54616">
        <ele>136.16</ele>
        <time>2017-02-28T07:16:53Z</time>
      </trkpt>
      <trkpt lat="43.34651" lon="-0.54614">
        <ele>136.16</ele>
        <time>2017-02-28T07:16:54Z</time>
      </trkpt>
      <trkpt lat="43.3465" lon="-0.54611">
        <ele>135.68</ele>
        <time>2017-02-28T07:16:55Z</time>
      </trkpt>
      <trkpt lat="43.3465" lon="-0.54607">
        <ele>135.68</ele>
        <time>2017-02-28T07:16:56Z</time>
      </trkpt>
      <trkpt lat="43.34651" lon="-0.54603">
        <ele>135.68</ele>
        <time>2017-02-28T07:16:57Z</time>
      </trkpt>
      <trkpt lat="43.34652" lon="-0.54598">
        <ele>135.2</ele>
        <time>2017-02-28T07:16:58Z</time>
      </trkpt>
      <trkpt lat="43.34653" lon="-0.54592">
        <ele>135.2</ele>
        <time>2017-02-28T07:16:59Z</time>
      </trkpt>
      <trkpt lat="43.34654" lon="-0.54587">
        <ele>135.2</ele>
        <time>2017-02-28T07:17:00Z</time>
      </trkpt>
      <trkpt lat="43.34654" lon="-0.54581">
        <ele>134.72</ele>
        <time>2017-02-28T07:17:01Z</time>
      </trkpt>
      <trkpt lat="43.34655" lon="-0.54575">
        <ele>134.24</ele>
        <time>2017-02-28T07:17:02Z</time>
      </trkpt>
      <trkpt lat="43.34664" lon="-0.54511">
        <ele>132.8</ele>
        <time>2017-02-28T07:17:11Z</time>
      </trkpt>
      <trkpt lat="43.34665" lon="-0.54504">
        <ele>132.32</ele>
        <time>2017-02-28T07:17:12Z</time>
      </trkpt>
      <trkpt lat="43.34677" lon="-0.54428">
        <ele>129.43</ele>
        <time>2017-02-28T07:17:22Z</time>
      </trkpt>
      <trkpt lat="43.34678" lon="-0.54421">
        <ele>129.43</ele>
        <time>2017-02-28T07:17:23Z</time>
      </trkpt>
      <trkpt lat="43.34678" lon="-0.54414">
        <ele>128.95</ele>
        <time>2017-02-28T07:17:24Z</time>
      </trkpt>
      <trkpt lat="43.34676" lon="-0.54409">
        <ele>129.43</ele>
        <time>2017-02-28T07:17:25Z</time>
      </trkpt>
      <trkpt lat="43.34675" lon="-0.54405">
        <ele>129.43</ele>
        <time>2017-02-28T07:17:26Z</time>
      </trkpt>
      <trkpt lat="43.34675" lon="-0.54402">
        <ele>129.92</ele>
        <time>2017-02-28T07:17:27Z</time>
      </trkpt>
      <trkpt lat="43.34672" lon="-0.54386">
        <ele>133.28</ele>
        <time>2017-02-28T07:17:40Z</time>
      </trkpt>
      <trkpt lat="43.3467" lon="-0.54381">
        <ele>137.13</ele>
        <time>2017-02-28T07:18:06Z</time>
      </trkpt>
      <trkpt lat="43.34671" lon="-0.54382">
        <ele>140.97</ele>
        <time>2017-02-28T07:18:32Z</time>
      </trkpt>
      <trkpt lat="43.34671" lon="-0.5438">
        <ele>137.61</ele>
        <time>2017-02-28T07:19:09Z</time>
      </trkpt>
      <trkpt lat="43.34672" lon="-0.54382">
        <ele>140.97</ele>
        <time>2017-02-28T07:19:46Z</time>
      </trkpt>
      <trkpt lat="43.34671" lon="-0.54375">
        <ele>143.85</ele>
        <time>2017-02-28T07:20:22Z</time>
      </trkpt>
      <trkpt lat="43.34675" lon="-0.54371">
        <ele>142.41</ele>
        <time>2017-02-28T07:20:28Z</time>
      </trkpt>
      <trkpt lat="43.34676" lon="-0.54369">
        <ele>142.89</ele>
        <time>2017-02-28T07:20:29Z</time>
      </trkpt>
      <trkpt lat="43.34677" lon="-0.54368">
        <ele>142.41</ele>
        <time>2017-02-28T07:20:30Z</time>
      </trkpt>
      <trkpt lat="43.34678" lon="-0.54366">
        <ele>142.41</ele>
        <time>2017-02-28T07:20:31Z</time>
      </trkpt>
      <trkpt lat="43.34679" lon="-0.54365">
        <ele>142.41</ele>
        <time>2017-02-28T07:20:32Z</time>
      </trkpt>
      <trkpt lat="43.34679" lon="-0.54363">
        <ele>142.41</ele>
        <time>2017-02-28T07:20:33Z</time>
      </trkpt>
      <trkpt lat="43.3468" lon="-0.54362">
        <ele>141.93</ele>
        <time>2017-02-28T07:20:34Z</time>
      </trkpt>
      <trkpt lat="43.34682" lon="-0.54359">
        <ele>141.45</ele>
        <time>2017-02-28T07:20:37Z</time>
      </trkpt>
      <trkpt lat="43.34683" lon="-0.54357">
        <ele>141.45</ele>
        <time>2017-02-28T07:20:38Z</time>
      </trkpt>
      <trkpt lat="43.34683" lon="-0.54355">
        <ele>141.45</ele>
        <time>2017-02-28T07:20:39Z</time>
      </trkpt>
      <trkpt lat="43.34684" lon="-0.54353">
        <ele>140.97</ele>
        <time>2017-02-28T07:20:40Z</time>
      </trkpt>
      <trkpt lat="43.34684" lon="-0.54351">
        <ele>140.97</ele>
        <time>2017-02-28T07:20:41Z</time>
      </trkpt>
      <trkpt lat="43.34685" lon="-0.54349">
        <ele>140.97</ele>
        <time>2017-02-28T07:20:42Z</time>
      </trkpt>
      <trkpt lat="43.34686" lon="-0.54347">
        <ele>140.97</ele>
        <time>2017-02-28T07:20:43Z</time>
      </trkpt>
      <trkpt lat="43.34686" lon="-0.54345">
        <ele>140.97</ele>
        <time>2017-02-28T07:20:44Z</time>
      </trkpt>
      <trkpt lat="43.34693" lon="-0.54318">
        <ele>141.45</ele>
        <time>2017-02-28T07:20:58Z</time>
      </trkpt>
      <trkpt lat="43.34696" lon="-0.54305">
        <ele>142.89</ele>
        <time>2017-02-28T07:21:06Z</time>
      </trkpt>
      <trkpt lat="43.34698" lon="-0.54295">
        <ele>144.34</ele>
        <time>2017-02-28T07:21:12Z</time>
      </trkpt>
      <trkpt lat="43.34704" lon="-0.54266">
        <ele>147.7</ele>
        <time>2017-02-28T07:21:28Z</time>
      </trkpt>
      <trkpt lat="43.34706" lon="-0.54257">
        <ele>148.18</ele>
        <time>2017-02-28T07:21:32Z</time>
      </trkpt>
      <trkpt lat="43.34706" lon="-0.54255">
        <ele>148.66</ele>
        <time>2017-02-28T07:21:33Z</time>
      </trkpt>
      <trkpt lat="43.34706" lon="-0.54253">
        <ele>149.14</ele>
        <time>2017-02-28T07:21:34Z</time>
      </trkpt>
      <trkpt lat="43.34707" lon="-0.54251">
        <ele>149.14</ele>
        <time>2017-02-28T07:21:35Z</time>
      </trkpt>
      <trkpt lat="43.34707" lon="-0.54249">
        <ele>149.62</ele>
        <time>2017-02-28T07:21:36Z</time>
      </trkpt>
      <trkpt lat="43.3471" lon="-0.54223">
        <ele>149.62</ele>
        <time>2017-02-28T07:21:49Z</time>
      </trkpt>
      <trkpt lat="43.3471" lon="-0.54221">
        <ele>149.62</ele>
        <time>2017-02-28T07:21:50Z</time>
      </trkpt>
      <trkpt lat="43.34695" lon="-0.54214">
        <ele>153.47</ele>
        <time>2017-02-28T07:22:04Z</time>
      </trkpt>
      <trkpt lat="43.34686" lon="-0.54219">
        <ele>154.43</ele>
        <time>2017-02-28T07:22:11Z</time>
      </trkpt>
      <trkpt lat="43.34684" lon="-0.5422">
        <ele>154.43</ele>
        <time>2017-02-28T07:22:12Z</time>
      </trkpt>
      <trkpt lat="43.34673" lon="-0.54226">
        <ele>154.91</ele>
        <time>2017-02-28T07:22:22Z</time>
      </trkpt>
      <trkpt lat="43.34671" lon="-0.54227">
        <ele>155.39</ele>
        <time>2017-02-28T07:22:23Z</time>
      </trkpt>
      <trkpt lat="43.3467" lon="-0.54227">
        <ele>155.87</ele>
        <time>2017-02-28T07:22:24Z</time>
      </trkpt>
      <trkpt lat="43.34668" lon="-0.54228">
        <ele>156.35</ele>
        <time>2017-02-28T07:22:25Z</time>
      </trkpt>
      <trkpt lat="43.34667" lon="-0.54228">
        <ele>156.83</ele>
        <time>2017-02-28T07:22:26Z</time>
      </trkpt>
      <trkpt lat="43.34648" lon="-0.54237">
        <ele>161.64</ele>
        <time>2017-02-28T07:22:42Z</time>
      </trkpt>
      <trkpt lat="43.34644" lon="-0.54239">
        <ele>162.12</ele>
        <time>2017-02-28T07:22:45Z</time>
      </trkpt>
      <trkpt lat="43.3463" lon="-0.54247">
        <ele>165</ele>
        <time>2017-02-28T07:22:56Z</time>
      </trkpt>
      <trkpt lat="43.34624" lon="-0.54249">
        <ele>166.93</ele>
        <time>2017-02-28T07:23:00Z</time>
      </trkpt>
      <trkpt lat="43.34622" lon="-0.5425">
        <ele>167.41</ele>
        <time>2017-02-28T07:23:01Z</time>
      </trkpt>
      <trkpt lat="43.34621" lon="-0.5425">
        <ele>167.89</ele>
        <time>2017-02-28T07:23:02Z</time>
      </trkpt>
      <trkpt lat="43.3462" lon="-0.54251">
        <ele>167.89</ele>
        <time>2017-02-28T07:23:03Z</time>
      </trkpt>
      <trkpt lat="43.34618" lon="-0.54252">
        <ele>168.37</ele>
        <time>2017-02-28T07:23:04Z</time>
      </trkpt>
      <trkpt lat="43.34617" lon="-0.54253">
        <ele>168.37</ele>
        <time>2017-02-28T07:23:05Z</time>
      </trkpt>
      <trkpt lat="43.34615" lon="-0.54253">
        <ele>168.85</ele>
        <time>2017-02-28T07:23:06Z</time>
      </trkpt>
      <trkpt lat="43.34593" lon="-0.54256">
        <ele>170.77</ele>
        <time>2017-02-28T07:23:18Z</time>
      </trkpt>
      <trkpt lat="43.3456" lon="-0.54242">
        <ele>170.29</ele>
        <time>2017-02-28T07:23:33Z</time>
      </trkpt>
      <trkpt lat="43.3456" lon="-0.54208">
        <ele>169.33</ele>
        <time>2017-02-28T07:23:48Z</time>
      </trkpt>
      <trkpt lat="43.34579" lon="-0.54182">
        <ele>166.45</ele>
        <time>2017-02-28T07:24:04Z</time>
      </trkpt>
      <trkpt lat="43.3458" lon="-0.5418">
        <ele>166.45</ele>
        <time>2017-02-28T07:24:05Z</time>
      </trkpt>
      <trkpt lat="43.3458" lon="-0.54178">
        <ele>166.45</ele>
        <time>2017-02-28T07:24:06Z</time>
      </trkpt>
      <trkpt lat="43.3458" lon="-0.54176">
        <ele>166.45</ele>
        <time>2017-02-28T07:24:07Z</time>
      </trkpt>
      <trkpt lat="43.3458" lon="-0.54173">
        <ele>166.45</ele>
        <time>2017-02-28T07:24:08Z</time>
      </trkpt>
      <trkpt lat="43.34579" lon="-0.54169">
        <ele>166.93</ele>
        <time>2017-02-28T07:24:10Z</time>
      </trkpt>
      <trkpt lat="43.34578" lon="-0.54167">
        <ele>166.93</ele>
        <time>2017-02-28T07:24:11Z</time>
      </trkpt>
      <trkpt lat="43.3456" lon="-0.54147">
        <ele>168.37</ele>
        <time>2017-02-28T07:24:24Z</time>
      </trkpt>
      <trkpt lat="43.34542" lon="-0.54132">
        <ele>171.73</ele>
        <time>2017-02-28T07:24:37Z</time>
      </trkpt>
      <trkpt lat="43.34515" lon="-0.54118">
        <ele>177.02</ele>
        <time>2017-02-28T07:24:53Z</time>
      </trkpt>
      <trkpt lat="43.3449" lon="-0.54109">
        <ele>180.38</ele>
        <time>2017-02-28T07:25:04Z</time>
      </trkpt>
      <trkpt lat="43.34473" lon="-0.54093">
        <ele>185.19</ele>
        <time>2017-02-28T07:25:17Z</time>
      </trkpt>
      <trkpt lat="43.34458" lon="-0.54079">
        <ele>188.56</ele>
        <time>2017-02-28T07:25:29Z</time>
      </trkpt>
      <trkpt lat="43.34458" lon="-0.54077">
        <ele>188.56</ele>
        <time>2017-02-28T07:25:30Z</time>
      </trkpt>
      <trkpt lat="43.34458" lon="-0.54075">
        <ele>188.56</ele>
        <time>2017-02-28T07:25:31Z</time>
      </trkpt>
      <trkpt lat="43.34462" lon="-0.54071">
        <ele>188.56</ele>
        <time>2017-02-28T07:25:38Z</time>
      </trkpt>
      <trkpt lat="43.34463" lon="-0.5407">
        <ele>189.04</ele>
        <time>2017-02-28T07:25:39Z</time>
      </trkpt>
      <trkpt lat="43.34464" lon="-0.5407">
        <ele>189.04</ele>
        <time>2017-02-28T07:25:40Z</time>
      </trkpt>
      <trkpt lat="43.34465" lon="-0.54069">
        <ele>189.52</ele>
        <time>2017-02-28T07:25:41Z</time>
      </trkpt>
      <trkpt lat="43.34467" lon="-0.54068">
        <ele>189.52</ele>
        <time>2017-02-28T07:25:42Z</time>
      </trkpt>
      <trkpt lat="43.34476" lon="-0.54063">
        <ele>189.52</ele>
        <time>2017-02-28T07:25:50Z</time>
      </trkpt>
      <trkpt lat="43.34477" lon="-0.54063">
        <ele>190</ele>
        <time>2017-02-28T07:25:51Z</time>
      </trkpt>
      <trkpt lat="43.34478" lon="-0.54062">
        <ele>190</ele>
        <time>2017-02-28T07:25:52Z</time>
      </trkpt>
      <trkpt lat="43.3448" lon="-0.54061">
        <ele>190</ele>
        <time>2017-02-28T07:25:53Z</time>
      </trkpt>
      <trkpt lat="43.34481" lon="-0.54061">
        <ele>190</ele>
        <time>2017-02-28T07:25:54Z</time>
      </trkpt>
      <trkpt lat="43.34482" lon="-0.54059">
        <ele>190</ele>
        <time>2017-02-28T07:25:55Z</time>
      </trkpt>
      <trkpt lat="43.34483" lon="-0.54058">
        <ele>189.52</ele>
        <time>2017-02-28T07:25:56Z</time>
      </trkpt>
      <trkpt lat="43.34484" lon="-0.54057">
        <ele>189.52</ele>
        <time>2017-02-28T07:25:57Z</time>
      </trkpt>
      <trkpt lat="43.34499" lon="-0.54047">
        <ele>190.48</ele>
        <time>2017-02-28T07:26:10Z</time>
      </trkpt>
      <trkpt lat="43.34508" lon="-0.54038">
        <ele>191.44</ele>
        <time>2017-02-28T07:26:19Z</time>
      </trkpt>
      <trkpt lat="43.34509" lon="-0.54037">
        <ele>191.92</ele>
        <time>2017-02-28T07:26:20Z</time>
      </trkpt>
      <trkpt lat="43.34512" lon="-0.5403">
        <ele>191.92</ele>
        <time>2017-02-28T07:26:25Z</time>
      </trkpt>
      <trkpt lat="43.34513" lon="-0.54028">
        <ele>191.92</ele>
        <time>2017-02-28T07:26:26Z</time>
      </trkpt>
      <trkpt lat="43.34514" lon="-0.54027">
        <ele>191.92</ele>
        <time>2017-02-28T07:26:27Z</time>
      </trkpt>
      <trkpt lat="43.34514" lon="-0.54025">
        <ele>191.92</ele>
        <time>2017-02-28T07:26:28Z</time>
      </trkpt>
      <trkpt lat="43.34521" lon="-0.54011">
        <ele>192.88</ele>
        <time>2017-02-28T07:26:37Z</time>
      </trkpt>
      <trkpt lat="43.34522" lon="-0.5401">
        <ele>192.88</ele>
        <time>2017-02-28T07:26:38Z</time>
      </trkpt>
      <trkpt lat="43.34523" lon="-0.54008">
        <ele>192.88</ele>
        <time>2017-02-28T07:26:39Z</time>
      </trkpt>
      <trkpt lat="43.34524" lon="-0.54006">
        <ele>193.36</ele>
        <time>2017-02-28T07:26:40Z</time>
      </trkpt>
      <trkpt lat="43.34525" lon="-0.54004">
        <ele>193.36</ele>
        <time>2017-02-28T07:26:41Z</time>
      </trkpt>
      <trkpt lat="43.34531" lon="-0.53976">
        <ele>196.73</ele>
        <time>2017-02-28T07:26:55Z</time>
      </trkpt>
      <trkpt lat="43.34532" lon="-0.53971">
        <ele>197.69</ele>
        <time>2017-02-28T07:26:58Z</time>
      </trkpt>
      <trkpt lat="43.34532" lon="-0.53969">
        <ele>197.69</ele>
        <time>2017-02-28T07:26:59Z</time>
      </trkpt>
      <trkpt lat="43.34532" lon="-0.53967">
        <ele>197.69</ele>
        <time>2017-02-28T07:27:00Z</time>
      </trkpt>
      <trkpt lat="43.34532" lon="-0.53965">
        <ele>197.69</ele>
        <time>2017-02-28T07:27:01Z</time>
      </trkpt>
      <trkpt lat="43.34532" lon="-0.53964">
        <ele>197.69</ele>
        <time>2017-02-28T07:27:02Z</time>
      </trkpt>
      <trkpt lat="43.34527" lon="-0.5394">
        <ele>198.65</ele>
        <time>2017-02-28T07:27:16Z</time>
      </trkpt>
      <trkpt lat="43.34527" lon="-0.53932">
        <ele>199.13</ele>
        <time>2017-02-28T07:27:21Z</time>
      </trkpt>
      <trkpt lat="43.34526" lon="-0.5393">
        <ele>199.61</ele>
        <time>2017-02-28T07:27:22Z</time>
      </trkpt>
      <trkpt lat="43.34523" lon="-0.53914">
        <ele>202.98</ele>
        <time>2017-02-28T07:27:32Z</time>
      </trkpt>
      <trkpt lat="43.34523" lon="-0.53912">
        <ele>203.46</ele>
        <time>2017-02-28T07:27:33Z</time>
      </trkpt>
      <trkpt lat="43.34518" lon="-0.53889">
        <ele>205.38</ele>
        <time>2017-02-28T07:27:46Z</time>
      </trkpt>
      <trkpt lat="43.34514" lon="-0.53851">
        <ele>205.86</ele>
        <time>2017-02-28T07:28:02Z</time>
      </trkpt>
      <trkpt lat="43.34523" lon="-0.53812">
        <ele>207.78</ele>
        <time>2017-02-28T07:28:15Z</time>
      </trkpt>
      <trkpt lat="43.3453" lon="-0.5376">
        <ele>212.11</ele>
        <time>2017-02-28T07:28:32Z</time>
      </trkpt>
      <trkpt lat="43.34531" lon="-0.53725">
        <ele>214.03</ele>
        <time>2017-02-28T07:28:45Z</time>
      </trkpt>
      <trkpt lat="43.34533" lon="-0.53689">
        <ele>215.95</ele>
        <time>2017-02-28T07:28:56Z</time>
      </trkpt>
      <trkpt lat="43.34536" lon="-0.5365">
        <ele>219.8</ele>
        <time>2017-02-28T07:29:08Z</time>
      </trkpt>
      <trkpt lat="43.34536" lon="-0.53613">
        <ele>217.4</ele>
        <time>2017-02-28T07:29:18Z</time>
      </trkpt>
      <trkpt lat="43.34536" lon="-0.53608">
        <ele>216.91</ele>
        <time>2017-02-28T07:29:19Z</time>
      </trkpt>
      <trkpt lat="43.34538" lon="-0.53538">
        <ele>212.11</ele>
        <time>2017-02-28T07:29:32Z</time>
      </trkpt>
      <trkpt lat="43.34535" lon="-0.53489">
        <ele>209.22</ele>
        <time>2017-02-28T07:29:42Z</time>
      </trkpt>
      <trkpt lat="43.34519" lon="-0.53443">
        <ele>207.3</ele>
        <time>2017-02-28T07:29:52Z</time>
      </trkpt>
      <trkpt lat="43.34505" lon="-0.53397">
        <ele>207.78</ele>
        <time>2017-02-28T07:30:04Z</time>
      </trkpt>
      <trkpt lat="43.34504" lon="-0.53394">
        <ele>207.78</ele>
        <time>2017-02-28T07:30:05Z</time>
      </trkpt>
      <trkpt lat="43.34504" lon="-0.53391">
        <ele>207.78</ele>
        <time>2017-02-28T07:30:06Z</time>
      </trkpt>
      <trkpt lat="43.34504" lon="-0.53378">
        <ele>208.26</ele>
        <time>2017-02-28T07:30:11Z</time>
      </trkpt>
      <trkpt lat="43.34503" lon="-0.53376">
        <ele>208.26</ele>
        <time>2017-02-28T07:30:12Z</time>
      </trkpt>
      <trkpt lat="43.34502" lon="-0.53373">
        <ele>209.22</ele>
        <time>2017-02-28T07:30:13Z</time>
      </trkpt>
      <trkpt lat="43.34502" lon="-0.53371">
        <ele>209.7</ele>
        <time>2017-02-28T07:30:14Z</time>
      </trkpt>
      <trkpt lat="43.34502" lon="-0.53368">
        <ele>210.19</ele>
        <time>2017-02-28T07:30:15Z</time>
      </trkpt>
      <trkpt lat="43.34502" lon="-0.53366">
        <ele>210.67</ele>
        <time>2017-02-28T07:30:16Z</time>
      </trkpt>
      <trkpt lat="43.34502" lon="-0.53364">
        <ele>211.15</ele>
        <time>2017-02-28T07:30:17Z</time>
      </trkpt>
      <trkpt lat="43.34501" lon="-0.53362">
        <ele>212.11</ele>
        <time>2017-02-28T07:30:18Z</time>
      </trkpt>
      <trkpt lat="43.34501" lon="-0.53359">
        <ele>212.59</ele>
        <time>2017-02-28T07:30:19Z</time>
      </trkpt>
      <trkpt lat="43.34501" lon="-0.53357">
        <ele>213.07</ele>
        <time>2017-02-28T07:30:20Z</time>
      </trkpt>
      <trkpt lat="43.34501" lon="-0.53354">
        <ele>213.55</ele>
        <time>2017-02-28T07:30:21Z</time>
      </trkpt>
      <trkpt lat="43.34501" lon="-0.53352">
        <ele>214.03</ele>
        <time>2017-02-28T07:30:22Z</time>
      </trkpt>
      <trkpt lat="43.34492" lon="-0.53321">
        <ele>214.51</ele>
        <time>2017-02-28T07:30:32Z</time>
      </trkpt>
      <trkpt lat="43.3447" lon="-0.53277">
        <ele>212.59</ele>
        <time>2017-02-28T07:30:42Z</time>
      </trkpt>
      <trkpt lat="43.34467" lon="-0.53271">
        <ele>212.59</ele>
        <time>2017-02-28T07:30:43Z</time>
      </trkpt>
      <trkpt lat="43.34465" lon="-0.53266">
        <ele>212.59</ele>
        <time>2017-02-28T07:30:44Z</time>
      </trkpt>
      <trkpt lat="43.34439" lon="-0.53194">
        <ele>208.74</ele>
        <time>2017-02-28T07:30:56Z</time>
      </trkpt>
      <trkpt lat="43.34437" lon="-0.53188">
        <ele>208.26</ele>
        <time>2017-02-28T07:30:57Z</time>
      </trkpt>
      <trkpt lat="43.34437" lon="-0.53182">
        <ele>207.78</ele>
        <time>2017-02-28T07:30:58Z</time>
      </trkpt>
      <trkpt lat="43.34437" lon="-0.53177">
        <ele>207.78</ele>
        <time>2017-02-28T07:30:59Z</time>
      </trkpt>
      <trkpt lat="43.34437" lon="-0.53172">
        <ele>208.26</ele>
        <time>2017-02-28T07:31:00Z</time>
      </trkpt>
      <trkpt lat="43.34432" lon="-0.53116">
        <ele>210.67</ele>
        <time>2017-02-28T07:31:10Z</time>
      </trkpt>
      <trkpt lat="43.34428" lon="-0.53074">
        <ele>210.19</ele>
        <time>2017-02-28T07:31:18Z</time>
      </trkpt>
      <trkpt lat="43.34427" lon="-0.53068">
        <ele>210.19</ele>
        <time>2017-02-28T07:31:19Z</time>
      </trkpt>
      <trkpt lat="43.34423" lon="-0.53056">
        <ele>210.19</ele>
        <time>2017-02-28T07:31:21Z</time>
      </trkpt>
      <trkpt lat="43.34421" lon="-0.53051">
        <ele>210.19</ele>
        <time>2017-02-28T07:31:22Z</time>
      </trkpt>
      <trkpt lat="43.3439" lon="-0.53002">
        <ele>206.82</ele>
        <time>2017-02-28T07:31:31Z</time>
      </trkpt>
      <trkpt lat="43.34385" lon="-0.52998">
        <ele>206.34</ele>
        <time>2017-02-28T07:31:32Z</time>
      </trkpt>
      <trkpt lat="43.3438" lon="-0.52996">
        <ele>206.34</ele>
        <time>2017-02-28T07:31:33Z</time>
      </trkpt>
      <trkpt lat="43.34361" lon="-0.52997">
        <ele>207.3</ele>
        <time>2017-02-28T07:31:37Z</time>
      </trkpt>
      <trkpt lat="43.34357" lon="-0.52998">
        <ele>207.78</ele>
        <time>2017-02-28T07:31:38Z</time>
      </trkpt>
      <trkpt lat="43.34353" lon="-0.52999">
        <ele>208.74</ele>
        <time>2017-02-28T07:31:39Z</time>
      </trkpt>
      <trkpt lat="43.34308" lon="-0.53021">
        <ele>212.11</ele>
        <time>2017-02-28T07:31:52Z</time>
      </trkpt>
      <trkpt lat="43.34296" lon="-0.53032">
        <ele>213.07</ele>
        <time>2017-02-28T07:31:56Z</time>
      </trkpt>
      <trkpt lat="43.34292" lon="-0.53037">
        <ele>213.55</ele>
        <time>2017-02-28T07:31:57Z</time>
      </trkpt>
      <trkpt lat="43.34288" lon="-0.53042">
        <ele>213.07</ele>
        <time>2017-02-28T07:31:58Z</time>
      </trkpt>
      <trkpt lat="43.34281" lon="-0.53053">
        <ele>213.07</ele>
        <time>2017-02-28T07:32:00Z</time>
      </trkpt>
      <trkpt lat="43.34278" lon="-0.5306">
        <ele>212.59</ele>
        <time>2017-02-28T07:32:01Z</time>
      </trkpt>
      <trkpt lat="43.3427" lon="-0.53078">
        <ele>212.11</ele>
        <time>2017-02-28T07:32:04Z</time>
      </trkpt>
      <trkpt lat="43.34266" lon="-0.53083">
        <ele>211.63</ele>
        <time>2017-02-28T07:32:05Z</time>
      </trkpt>
      <trkpt lat="43.34224" lon="-0.53128">
        <ele>210.67</ele>
        <time>2017-02-28T07:32:15Z</time>
      </trkpt>
      <trkpt lat="43.34221" lon="-0.53132">
        <ele>211.15</ele>
        <time>2017-02-28T07:32:16Z</time>
      </trkpt>
      <trkpt lat="43.34185" lon="-0.53174">
        <ele>214.51</ele>
        <time>2017-02-28T07:32:28Z</time>
      </trkpt>
      <trkpt lat="43.34167" lon="-0.53179">
        <ele>213.55</ele>
        <time>2017-02-28T07:32:32Z</time>
      </trkpt>
      <trkpt lat="43.34096" lon="-0.53176">
        <ele>209.22</ele>
        <time>2017-02-28T07:32:43Z</time>
      </trkpt>
      <trkpt lat="43.34029" lon="-0.53177">
        <ele>207.3</ele>
        <time>2017-02-28T07:32:54Z</time>
      </trkpt>
      <trkpt lat="43.33996" lon="-0.53168">
        <ele>204.42</ele>
        <time>2017-02-28T07:33:01Z</time>
      </trkpt>
      <trkpt lat="43.33994" lon="-0.53169">
        <ele>204.42</ele>
        <time>2017-02-28T07:33:02Z</time>
      </trkpt>
      <trkpt lat="43.33984" lon="-0.532">
        <ele>202.49</ele>
        <time>2017-02-28T07:33:09Z</time>
      </trkpt>
      <trkpt lat="43.33964" lon="-0.53218">
        <ele>198.65</ele>
        <time>2017-02-28T07:33:14Z</time>
      </trkpt>
      <trkpt lat="43.33941" lon="-0.53221">
        <ele>192.4</ele>
        <time>2017-02-28T07:33:21Z</time>
      </trkpt>
      <trkpt lat="43.33921" lon="-0.53211">
        <ele>188.56</ele>
        <time>2017-02-28T07:33:31Z</time>
      </trkpt>
      <trkpt lat="43.33918" lon="-0.53204">
        <ele>187.59</ele>
        <time>2017-02-28T07:33:33Z</time>
      </trkpt>
      <trkpt lat="43.33915" lon="-0.53194">
        <ele>186.63</ele>
        <time>2017-02-28T07:33:36Z</time>
      </trkpt>
      <trkpt lat="43.33897" lon="-0.53202">
        <ele>183.27</ele>
        <time>2017-02-28T07:33:43Z</time>
      </trkpt>
      <trkpt lat="43.33879" lon="-0.53202">
        <ele>179.42</ele>
        <time>2017-02-28T07:33:47Z</time>
      </trkpt>
      <trkpt lat="43.33856" lon="-0.53192">
        <ele>176.54</ele>
        <time>2017-02-28T07:33:54Z</time>
      </trkpt>
      <trkpt lat="43.33845" lon="-0.53171">
        <ele>175.1</ele>
        <time>2017-02-28T07:34:02Z</time>
      </trkpt>
      <trkpt lat="43.33824" lon="-0.53159">
        <ele>171.25</ele>
        <time>2017-02-28T07:34:10Z</time>
      </trkpt>
      <trkpt lat="43.33801" lon="-0.53156">
        <ele>164.04</ele>
        <time>2017-02-28T07:34:17Z</time>
      </trkpt>
      <trkpt lat="43.33781" lon="-0.53158">
        <ele>157.31</ele>
        <time>2017-02-28T07:34:22Z</time>
      </trkpt>
      <trkpt lat="43.33772" lon="-0.53165">
        <ele>155.87</ele>
        <time>2017-02-28T07:34:24Z</time>
      </trkpt>
      <trkpt lat="43.3375" lon="-0.53171">
        <ele>150.58</ele>
        <time>2017-02-28T07:34:29Z</time>
      </trkpt>
      <trkpt lat="43.33719" lon="-0.53145">
        <ele>145.78</ele>
        <time>2017-02-28T07:34:35Z</time>
      </trkpt>
      <trkpt lat="43.33693" lon="-0.53134">
        <ele>141.93</ele>
        <time>2017-02-28T07:34:40Z</time>
      </trkpt>
      <trkpt lat="43.33675" lon="-0.53143">
        <ele>140.01</ele>
        <time>2017-02-28T07:34:44Z</time>
      </trkpt>
      <trkpt lat="43.33665" lon="-0.53154">
        <ele>139.53</ele>
        <time>2017-02-28T07:34:46Z</time>
      </trkpt>
      <trkpt lat="43.33634" lon="-0.53162">
        <ele>135.68</ele>
        <time>2017-02-28T07:34:51Z</time>
      </trkpt>
      <trkpt lat="43.33612" lon="-0.53182">
        <ele>132.32</ele>
        <time>2017-02-28T07:34:58Z</time>
      </trkpt>
      <trkpt lat="43.33578" lon="-0.5317">
        <ele>129.92</ele>
        <time>2017-02-28T07:35:05Z</time>
      </trkpt>
      <trkpt lat="43.33553" lon="-0.53183">
        <ele>128.95</ele>
        <time>2017-02-28T07:35:11Z</time>
      </trkpt>
      <trkpt lat="43.33531" lon="-0.53205">
        <ele>127.99</ele>
        <time>2017-02-28T07:35:16Z</time>
      </trkpt>
      <trkpt lat="43.33509" lon="-0.53214">
        <ele>127.03</ele>
        <time>2017-02-28T07:35:20Z</time>
      </trkpt>
      <trkpt lat="43.33504" lon="-0.53216">
        <ele>127.03</ele>
        <time>2017-02-28T07:35:21Z</time>
      </trkpt>
      <trkpt lat="43.335" lon="-0.53219">
        <ele>127.03</ele>
        <time>2017-02-28T07:35:22Z</time>
      </trkpt>
      <trkpt lat="43.33497" lon="-0.53222">
        <ele>127.03</ele>
        <time>2017-02-28T07:35:23Z</time>
      </trkpt>
      <trkpt lat="43.33495" lon="-0.53226">
        <ele>127.03</ele>
        <time>2017-02-28T07:35:24Z</time>
      </trkpt>
      <trkpt lat="43.33493" lon="-0.5323">
        <ele>126.55</ele>
        <time>2017-02-28T07:35:25Z</time>
      </trkpt>
      <trkpt lat="43.33491" lon="-0.53233">
        <ele>126.55</ele>
        <time>2017-02-28T07:35:26Z</time>
      </trkpt>
      <trkpt lat="43.33469" lon="-0.53245">
        <ele>126.55</ele>
        <time>2017-02-28T07:35:35Z</time>
      </trkpt>
      <trkpt lat="43.33462" lon="-0.53239">
        <ele>126.55</ele>
        <time>2017-02-28T07:35:41Z</time>
      </trkpt>
      <trkpt lat="43.33462" lon="-0.53237">
        <ele>126.55</ele>
        <time>2017-02-28T07:35:42Z</time>
      </trkpt>
      <trkpt lat="43.33463" lon="-0.53233">
        <ele>127.03</ele>
        <time>2017-02-28T07:35:43Z</time>
      </trkpt>
      <trkpt lat="43.33464" lon="-0.53231">
        <ele>127.03</ele>
        <time>2017-02-28T07:35:44Z</time>
      </trkpt>
      <trkpt lat="43.33466" lon="-0.53229">
        <ele>127.51</ele>
        <time>2017-02-28T07:35:45Z</time>
      </trkpt>
      <trkpt lat="43.33468" lon="-0.53226">
        <ele>127.99</ele>
        <time>2017-02-28T07:35:46Z</time>
      </trkpt>
      <trkpt lat="43.3347" lon="-0.53223">
        <ele>128.47</ele>
        <time>2017-02-28T07:35:47Z</time>
      </trkpt>
      <trkpt lat="43.33477" lon="-0.53205">
        <ele>129.92</ele>
        <time>2017-02-28T07:35:53Z</time>
      </trkpt>
      <trkpt lat="43.33476" lon="-0.53199">
        <ele>129.43</ele>
        <time>2017-02-28T07:35:55Z</time>
      </trkpt>
      <trkpt lat="43.33472" lon="-0.53195">
        <ele>129.92</ele>
        <time>2017-02-28T07:35:56Z</time>
      </trkpt>
      <trkpt lat="43.33468" lon="-0.53193">
        <ele>129.92</ele>
        <time>2017-02-28T07:35:57Z</time>
      </trkpt>
      <trkpt lat="43.33464" lon="-0.53192">
        <ele>129.92</ele>
        <time>2017-02-28T07:35:58Z</time>
      </trkpt>
      <trkpt lat="43.33422" lon="-0.53202">
        <ele>129.92</ele>
        <time>2017-02-28T07:36:11Z</time>
      </trkpt>
      <trkpt lat="43.33393" lon="-0.53211">
        <ele>130.4</ele>
        <time>2017-02-28T07:36:20Z</time>
      </trkpt>
      <trkpt lat="43.33352" lon="-0.532">
        <ele>131.84</ele>
        <time>2017-02-28T07:36:32Z</time>
      </trkpt>
      <trkpt lat="43.33331" lon="-0.53154">
        <ele>133.28</ele>
        <time>2017-02-28T07:36:43Z</time>
      </trkpt>
      <trkpt lat="43.33317" lon="-0.53101">
        <ele>137.13</ele>
        <time>2017-02-28T07:36:55Z</time>
      </trkpt>
      <trkpt lat="43.33303" lon="-0.53055">
        <ele>138.57</ele>
        <time>2017-02-28T07:37:05Z</time>
      </trkpt>
      <trkpt lat="43.33295" lon="-0.5304">
        <ele>138.57</ele>
        <time>2017-02-28T07:37:08Z</time>
      </trkpt>
      <trkpt lat="43.33286" lon="-0.53025">
        <ele>138.57</ele>
        <time>2017-02-28T07:37:11Z</time>
      </trkpt>
      <trkpt lat="43.33232" lon="-0.52968">
        <ele>136.64</ele>
        <time>2017-02-28T07:37:23Z</time>
      </trkpt>
      <trkpt lat="43.33201" lon="-0.52941">
        <ele>137.13</ele>
        <time>2017-02-28T07:37:32Z</time>
      </trkpt>
      <trkpt lat="43.33197" lon="-0.52936">
        <ele>137.13</ele>
        <time>2017-02-28T07:37:33Z</time>
      </trkpt>
      <trkpt lat="43.33193" lon="-0.52932">
        <ele>137.13</ele>
        <time>2017-02-28T07:37:34Z</time>
      </trkpt>
      <trkpt lat="43.3314" lon="-0.52847">
        <ele>138.09</ele>
        <time>2017-02-28T07:37:52Z</time>
      </trkpt>
      <trkpt lat="43.331" lon="-0.52795">
        <ele>137.13</ele>
        <time>2017-02-28T07:38:05Z</time>
      </trkpt>
      <trkpt lat="43.33081" lon="-0.52764">
        <ele>137.13</ele>
        <time>2017-02-28T07:38:11Z</time>
      </trkpt>
      <trkpt lat="43.33078" lon="-0.52759">
        <ele>137.13</ele>
        <time>2017-02-28T07:38:12Z</time>
      </trkpt>
      <trkpt lat="43.33074" lon="-0.52749">
        <ele>137.13</ele>
        <time>2017-02-28T07:38:14Z</time>
      </trkpt>
      <trkpt lat="43.33072" lon="-0.52744">
        <ele>137.61</ele>
        <time>2017-02-28T07:38:15Z</time>
      </trkpt>
      <trkpt lat="43.33071" lon="-0.52738">
        <ele>137.61</ele>
        <time>2017-02-28T07:38:16Z</time>
      </trkpt>
      <trkpt lat="43.33069" lon="-0.52733">
        <ele>137.61</ele>
        <time>2017-02-28T07:38:17Z</time>
      </trkpt>
      <trkpt lat="43.33068" lon="-0.52727">
        <ele>137.61</ele>
        <time>2017-02-28T07:38:18Z</time>
      </trkpt>
      <trkpt lat="43.33067" lon="-0.52721">
        <ele>137.61</ele>
        <time>2017-02-28T07:38:19Z</time>
      </trkpt>
      <trkpt lat="43.33065" lon="-0.52715">
        <ele>137.61</ele>
        <time>2017-02-28T07:38:20Z</time>
      </trkpt>
      <trkpt lat="43.33057" lon="-0.52686">
        <ele>136.64</ele>
        <time>2017-02-28T07:38:25Z</time>
      </trkpt>
      <trkpt lat="43.33054" lon="-0.52676">
        <ele>136.64</ele>
        <time>2017-02-28T07:38:27Z</time>
      </trkpt>
      <trkpt lat="43.33051" lon="-0.52664">
        <ele>136.16</ele>
        <time>2017-02-28T07:38:29Z</time>
      </trkpt>
      <trkpt lat="43.33026" lon="-0.52605">
        <ele>135.2</ele>
        <time>2017-02-28T07:38:42Z</time>
      </trkpt>
      <trkpt lat="43.33008" lon="-0.52555">
        <ele>139.53</ele>
        <time>2017-02-28T07:38:53Z</time>
      </trkpt>
      <trkpt lat="43.32981" lon="-0.52495">
        <ele>142.89</ele>
        <time>2017-02-28T07:39:07Z</time>
      </trkpt>
      <trkpt lat="43.32966" lon="-0.52447">
        <ele>147.7</ele>
        <time>2017-02-28T07:39:18Z</time>
      </trkpt>
      <trkpt lat="43.3295" lon="-0.52384">
        <ele>152.51</ele>
        <time>2017-02-28T07:39:30Z</time>
      </trkpt>
      <trkpt lat="43.32935" lon="-0.52311">
        <ele>152.03</ele>
        <time>2017-02-28T07:39:44Z</time>
      </trkpt>
      <trkpt lat="43.32932" lon="-0.52306">
        <ele>151.06</ele>
        <time>2017-02-28T07:39:45Z</time>
      </trkpt>
      <trkpt lat="43.32928" lon="-0.52301">
        <ele>150.58</ele>
        <time>2017-02-28T07:39:46Z</time>
      </trkpt>
      <trkpt lat="43.32923" lon="-0.52297">
        <ele>150.1</ele>
        <time>2017-02-28T07:39:47Z</time>
      </trkpt>
      <trkpt lat="43.32918" lon="-0.52294">
        <ele>150.1</ele>
        <time>2017-02-28T07:39:48Z</time>
      </trkpt>
      <trkpt lat="43.32913" lon="-0.52292">
        <ele>150.1</ele>
        <time>2017-02-28T07:39:49Z</time>
      </trkpt>
      <trkpt lat="43.32907" lon="-0.5229">
        <ele>150.1</ele>
        <time>2017-02-28T07:39:50Z</time>
      </trkpt>
      <trkpt lat="43.32901" lon="-0.52289">
        <ele>149.62</ele>
        <time>2017-02-28T07:39:51Z</time>
      </trkpt>
      <trkpt lat="43.32895" lon="-0.52288">
        <ele>149.62</ele>
        <time>2017-02-28T07:39:52Z</time>
      </trkpt>
      <trkpt lat="43.32825" lon="-0.52286">
        <ele>144.34</ele>
        <time>2017-02-28T07:40:02Z</time>
      </trkpt>
      <trkpt lat="43.32811" lon="-0.52281">
        <ele>143.37</ele>
        <time>2017-02-28T07:40:04Z</time>
      </trkpt>
      <trkpt lat="43.32723" lon="-0.52228">
        <ele>136.64</ele>
        <time>2017-02-28T07:40:18Z</time>
      </trkpt>
      <trkpt lat="43.32678" lon="-0.52196">
        <ele>136.16</ele>
        <time>2017-02-28T07:40:30Z</time>
      </trkpt>
      <trkpt lat="43.32637" lon="-0.52145">
        <ele>136.64</ele>
        <time>2017-02-28T07:40:43Z</time>
      </trkpt>
      <trkpt lat="43.32601" lon="-0.52089">
        <ele>135.68</ele>
        <time>2017-02-28T07:40:56Z</time>
      </trkpt>
      <trkpt lat="43.32574" lon="-0.52041">
        <ele>136.16</ele>
        <time>2017-02-28T07:41:08Z</time>
      </trkpt>
      <trkpt lat="43.32546" lon="-0.51999">
        <ele>137.61</ele>
        <time>2017-02-28T07:41:20Z</time>
      </trkpt>
      <trkpt lat="43.32501" lon="-0.5196">
        <ele>138.57</ele>
        <time>2017-02-28T07:41:36Z</time>
      </trkpt>
      <trkpt lat="43.32454" lon="-0.51925">
        <ele>136.64</ele>
        <time>2017-02-28T07:41:49Z</time>
      </trkpt>
      <trkpt lat="43.32389" lon="-0.51872">
        <ele>131.36</ele>
        <time>2017-02-28T07:42:03Z</time>
      </trkpt>
      <trkpt lat="43.32363" lon="-0.51847">
        <ele>128.47</ele>
        <time>2017-02-28T07:42:08Z</time>
      </trkpt>
      <trkpt lat="43.32313" lon="-0.51799">
        <ele>129.43</ele>
        <time>2017-02-28T07:42:21Z</time>
      </trkpt>
      <trkpt lat="43.32295" lon="-0.51767">
        <ele>130.88</ele>
        <time>2017-02-28T07:42:30Z</time>
      </trkpt>
      <trkpt lat="43.32267" lon="-0.51715">
        <ele>134.24</ele>
        <time>2017-02-28T07:42:44Z</time>
      </trkpt>
      <trkpt lat="43.32235" lon="-0.51672">
        <ele>136.16</ele>
        <time>2017-02-28T07:42:57Z</time>
      </trkpt>
      <trkpt lat="43.32189" lon="-0.51621">
        <ele>138.09</ele>
        <time>2017-02-28T07:43:13Z</time>
      </trkpt>
      <trkpt lat="43.32149" lon="-0.51588">
        <ele>138.57</ele>
        <time>2017-02-28T07:43:26Z</time>
      </trkpt>
      <trkpt lat="43.32122" lon="-0.51567">
        <ele>140.01</ele>
        <time>2017-02-28T07:43:39Z</time>
      </trkpt>
      <trkpt lat="43.3209" lon="-0.51541">
        <ele>142.89</ele>
        <time>2017-02-28T07:43:52Z</time>
      </trkpt>
      <trkpt lat="43.32056" lon="-0.51505">
        <ele>145.78</ele>
        <time>2017-02-28T07:44:06Z</time>
      </trkpt>
      <trkpt lat="43.32037" lon="-0.51463">
        <ele>147.22</ele>
        <time>2017-02-28T07:44:18Z</time>
      </trkpt>
      <trkpt lat="43.32022" lon="-0.5145">
        <ele>145.78</ele>
        <time>2017-02-28T07:44:22Z</time>
      </trkpt>
      <trkpt lat="43.32017" lon="-0.51447">
        <ele>145.3</ele>
        <time>2017-02-28T07:44:23Z</time>
      </trkpt>
      <trkpt lat="43.32012" lon="-0.51445">
        <ele>144.82</ele>
        <time>2017-02-28T07:44:24Z</time>
      </trkpt>
      <trkpt lat="43.32005" lon="-0.51444">
        <ele>143.85</ele>
        <time>2017-02-28T07:44:25Z</time>
      </trkpt>
      <trkpt lat="43.31999" lon="-0.51443">
        <ele>143.37</ele>
        <time>2017-02-28T07:44:26Z</time>
      </trkpt>
      <trkpt lat="43.31992" lon="-0.51441">
        <ele>142.41</ele>
        <time>2017-02-28T07:44:27Z</time>
      </trkpt>
      <trkpt lat="43.31986" lon="-0.51436">
        <ele>141.93</ele>
        <time>2017-02-28T07:44:28Z</time>
      </trkpt>
      <trkpt lat="43.31974" lon="-0.51427">
        <ele>141.45</ele>
        <time>2017-02-28T07:44:30Z</time>
      </trkpt>
      <trkpt lat="43.31962" lon="-0.51421">
        <ele>140.97</ele>
        <time>2017-02-28T07:44:32Z</time>
      </trkpt>
      <trkpt lat="43.31943" lon="-0.51415">
        <ele>140.49</ele>
        <time>2017-02-28T07:44:35Z</time>
      </trkpt>
      <trkpt lat="43.31938" lon="-0.51412">
        <ele>140.49</ele>
        <time>2017-02-28T07:44:36Z</time>
      </trkpt>
      <trkpt lat="43.31933" lon="-0.51407">
        <ele>140.01</ele>
        <time>2017-02-28T07:44:37Z</time>
      </trkpt>
      <trkpt lat="43.31929" lon="-0.51402">
        <ele>140.01</ele>
        <time>2017-02-28T07:44:38Z</time>
      </trkpt>
      <trkpt lat="43.31926" lon="-0.51396">
        <ele>139.53</ele>
        <time>2017-02-28T07:44:39Z</time>
      </trkpt>
      <trkpt lat="43.31924" lon="-0.5139">
        <ele>139.53</ele>
        <time>2017-02-28T07:44:40Z</time>
      </trkpt>
      <trkpt lat="43.31922" lon="-0.51385">
        <ele>140.01</ele>
        <time>2017-02-28T07:44:41Z</time>
      </trkpt>
      <trkpt lat="43.31916" lon="-0.51373">
        <ele>141.93</ele>
        <time>2017-02-28T07:44:46Z</time>
      </trkpt>
      <trkpt lat="43.31915" lon="-0.51372">
        <ele>142.41</ele>
        <time>2017-02-28T07:44:47Z</time>
      </trkpt>
      <trkpt lat="43.31913" lon="-0.51371">
        <ele>142.41</ele>
        <time>2017-02-28T07:44:48Z</time>
      </trkpt>
      <trkpt lat="43.31911" lon="-0.51371">
        <ele>142.89</ele>
        <time>2017-02-28T07:44:49Z</time>
      </trkpt>
      <trkpt lat="43.3191" lon="-0.51372">
        <ele>143.37</ele>
        <time>2017-02-28T07:44:50Z</time>
      </trkpt>
      <trkpt lat="43.31907" lon="-0.51373">
        <ele>143.85</ele>
        <time>2017-02-28T07:44:51Z</time>
      </trkpt>
      <trkpt lat="43.31889" lon="-0.51403">
        <ele>145.3</ele>
        <time>2017-02-28T07:45:04Z</time>
      </trkpt>
      <trkpt lat="43.31857" lon="-0.51438">
        <ele>146.74</ele>
        <time>2017-02-28T07:45:16Z</time>
      </trkpt>
      <trkpt lat="43.31849" lon="-0.51443">
        <ele>148.66</ele>
        <time>2017-02-28T07:45:20Z</time>
      </trkpt>
      <trkpt lat="43.31847" lon="-0.51443">
        <ele>149.14</ele>
        <time>2017-02-28T07:45:21Z</time>
      </trkpt>
      <trkpt lat="43.31821" lon="-0.51438">
        <ele>151.06</ele>
        <time>2017-02-28T07:45:33Z</time>
      </trkpt>
      <trkpt lat="43.31776" lon="-0.51408">
        <ele>145.3</ele>
        <time>2017-02-28T07:45:43Z</time>
      </trkpt>
      <trkpt lat="43.31771" lon="-0.51405">
        <ele>145.3</ele>
        <time>2017-02-28T07:45:44Z</time>
      </trkpt>
      <trkpt lat="43.31765" lon="-0.51403">
        <ele>145.3</ele>
        <time>2017-02-28T07:45:45Z</time>
      </trkpt>
      <trkpt lat="43.3176" lon="-0.51402">
        <ele>145.3</ele>
        <time>2017-02-28T07:45:46Z</time>
      </trkpt>
      <trkpt lat="43.31708" lon="-0.51391">
        <ele>145.3</ele>
        <time>2017-02-28T07:45:55Z</time>
      </trkpt>
      <trkpt lat="43.31679" lon="-0.51381">
        <ele>145.78</ele>
        <time>2017-02-28T07:46:05Z</time>
      </trkpt>
      <trkpt lat="43.31668" lon="-0.51377">
        <ele>147.22</ele>
        <time>2017-02-28T07:46:11Z</time>
      </trkpt>
      <trkpt lat="43.31666" lon="-0.51376">
        <ele>147.22</ele>
        <time>2017-02-28T07:46:12Z</time>
      </trkpt>
      <trkpt lat="43.31641" lon="-0.51366">
        <ele>147.7</ele>
        <time>2017-02-28T07:46:25Z</time>
      </trkpt>
      <trkpt lat="43.3161" lon="-0.51347">
        <ele>147.22</ele>
        <time>2017-02-28T07:46:41Z</time>
      </trkpt>
      <trkpt lat="43.31591" lon="-0.51329">
        <ele>151.54</ele>
        <time>2017-02-28T07:46:53Z</time>
      </trkpt>
      <trkpt lat="43.31571" lon="-0.51304">
        <ele>155.39</ele>
        <time>2017-02-28T07:47:07Z</time>
      </trkpt>
      <trkpt lat="43.31571" lon="-0.51302">
        <ele>155.39</ele>
        <time>2017-02-28T07:47:08Z</time>
      </trkpt>
      <trkpt lat="43.31557" lon="-0.51279">
        <ele>161.16</ele>
        <time>2017-02-28T07:47:21Z</time>
      </trkpt>
      <trkpt lat="43.31543" lon="-0.5125">
        <ele>162.6</ele>
        <time>2017-02-28T07:47:34Z</time>
      </trkpt>
      <trkpt lat="43.31538" lon="-0.51242">
        <ele>163.08</ele>
        <time>2017-02-28T07:47:38Z</time>
      </trkpt>
      <trkpt lat="43.31537" lon="-0.51239">
        <ele>163.56</ele>
        <time>2017-02-28T07:47:39Z</time>
      </trkpt>
      <trkpt lat="43.31535" lon="-0.51237">
        <ele>163.56</ele>
        <time>2017-02-28T07:47:40Z</time>
      </trkpt>
      <trkpt lat="43.31534" lon="-0.51234">
        <ele>164.04</ele>
        <time>2017-02-28T07:47:41Z</time>
      </trkpt>
      <trkpt lat="43.31533" lon="-0.51232">
        <ele>164.04</ele>
        <time>2017-02-28T07:47:42Z</time>
      </trkpt>
      <trkpt lat="43.31532" lon="-0.51229">
        <ele>164.04</ele>
        <time>2017-02-28T07:47:43Z</time>
      </trkpt>
      <trkpt lat="43.31501" lon="-0.5122">
        <ele>165</ele>
        <time>2017-02-28T07:47:54Z</time>
      </trkpt>
      <trkpt lat="43.31455" lon="-0.51225">
        <ele>163.08</ele>
        <time>2017-02-28T07:48:07Z</time>
      </trkpt>
      <trkpt lat="43.31416" lon="-0.51224">
        <ele>166.45</ele>
        <time>2017-02-28T07:48:25Z</time>
      </trkpt>
      <trkpt lat="43.31373" lon="-0.51214">
        <ele>166.93</ele>
        <time>2017-02-28T07:48:42Z</time>
      </trkpt>
      <trkpt lat="43.31332" lon="-0.51194">
        <ele>165.48</ele>
        <time>2017-02-28T07:48:53Z</time>
      </trkpt>
      <trkpt lat="43.31328" lon="-0.51192">
        <ele>165</ele>
        <time>2017-02-28T07:48:54Z</time>
      </trkpt>
      <trkpt lat="43.31324" lon="-0.51189">
        <ele>165</ele>
        <time>2017-02-28T07:48:55Z</time>
      </trkpt>
      <trkpt lat="43.3132" lon="-0.51187">
        <ele>164.52</ele>
        <time>2017-02-28T07:48:56Z</time>
      </trkpt>
      <trkpt lat="43.31317" lon="-0.51185">
        <ele>164.04</ele>
        <time>2017-02-28T07:48:57Z</time>
      </trkpt>
      <trkpt lat="43.31273" lon="-0.51162">
        <ele>162.12</ele>
        <time>2017-02-28T07:49:11Z</time>
      </trkpt>
      <trkpt lat="43.3123" lon="-0.51121">
        <ele>160.68</ele>
        <time>2017-02-28T07:49:25Z</time>
      </trkpt>
      <trkpt lat="43.31208" lon="-0.51103">
        <ele>161.64</ele>
        <time>2017-02-28T07:49:35Z</time>
      </trkpt>
      <trkpt lat="43.31186" lon="-0.51081">
        <ele>162.6</ele>
        <time>2017-02-28T07:49:48Z</time>
      </trkpt>
      <trkpt lat="43.31185" lon="-0.51079">
        <ele>163.08</ele>
        <time>2017-02-28T07:49:49Z</time>
      </trkpt>
      <trkpt lat="43.31184" lon="-0.51077">
        <ele>163.56</ele>
        <time>2017-02-28T07:49:50Z</time>
      </trkpt>
      <trkpt lat="43.31183" lon="-0.51075">
        <ele>163.56</ele>
        <time>2017-02-28T07:49:51Z</time>
      </trkpt>
      <trkpt lat="43.31182" lon="-0.51072">
        <ele>164.04</ele>
        <time>2017-02-28T07:49:52Z</time>
      </trkpt>
      <trkpt lat="43.3118" lon="-0.5107">
        <ele>164.52</ele>
        <time>2017-02-28T07:49:53Z</time>
      </trkpt>
      <trkpt lat="43.3116" lon="-0.5103">
        <ele>164.04</ele>
        <time>2017-02-28T07:50:06Z</time>
      </trkpt>
      <trkpt lat="43.31118" lon="-0.50981">
        <ele>165.96</ele>
        <time>2017-02-28T07:50:22Z</time>
      </trkpt>
      <trkpt lat="43.31085" lon="-0.50943">
        <ele>170.29</ele>
        <time>2017-02-28T07:50:38Z</time>
      </trkpt>
      <trkpt lat="43.31065" lon="-0.50916">
        <ele>174.62</ele>
        <time>2017-02-28T07:50:52Z</time>
      </trkpt>
      <trkpt lat="43.31059" lon="-0.50904">
        <ele>175.58</ele>
        <time>2017-02-28T07:50:57Z</time>
      </trkpt>
      <trkpt lat="43.31057" lon="-0.50901">
        <ele>176.06</ele>
        <time>2017-02-28T07:50:58Z</time>
      </trkpt>
      <trkpt lat="43.31056" lon="-0.50898">
        <ele>176.06</ele>
        <time>2017-02-28T07:50:59Z</time>
      </trkpt>
      <trkpt lat="43.31042" lon="-0.50867">
        <ele>175.58</ele>
        <time>2017-02-28T07:51:07Z</time>
      </trkpt>
      <trkpt lat="43.31038" lon="-0.50861">
        <ele>175.58</ele>
        <time>2017-02-28T07:51:08Z</time>
      </trkpt>
      <trkpt lat="43.31034" lon="-0.50855">
        <ele>175.58</ele>
        <time>2017-02-28T07:51:09Z</time>
      </trkpt>
      <trkpt lat="43.3103" lon="-0.50851">
        <ele>175.58</ele>
        <time>2017-02-28T07:51:10Z</time>
      </trkpt>
      <trkpt lat="43.31026" lon="-0.50848">
        <ele>175.58</ele>
        <time>2017-02-28T07:51:11Z</time>
      </trkpt>
      <trkpt lat="43.30977" lon="-0.5081">
        <ele>176.06</ele>
        <time>2017-02-28T07:51:24Z</time>
      </trkpt>
      <trkpt lat="43.30941" lon="-0.50781">
        <ele>174.62</ele>
        <time>2017-02-28T07:51:37Z</time>
      </trkpt>
      <trkpt lat="43.30883" lon="-0.50724">
        <ele>175.58</ele>
        <time>2017-02-28T07:51:52Z</time>
      </trkpt>
      <trkpt lat="43.30841" lon="-0.50694">
        <ele>173.17</ele>
        <time>2017-02-28T07:52:07Z</time>
      </trkpt>
      <trkpt lat="43.30805" lon="-0.5068">
        <ele>171.73</ele>
        <time>2017-02-28T07:52:19Z</time>
      </trkpt>
      <trkpt lat="43.30767" lon="-0.5066">
        <ele>171.73</ele>
        <time>2017-02-28T07:52:32Z</time>
      </trkpt>
      <trkpt lat="43.30744" lon="-0.50649">
        <ele>176.54</ele>
        <time>2017-02-28T07:52:45Z</time>
      </trkpt>
      <trkpt lat="43.30727" lon="-0.50636">
        <ele>184.71</ele>
        <time>2017-02-28T07:52:58Z</time>
      </trkpt>
      <trkpt lat="43.30711" lon="-0.50618">
        <ele>188.56</ele>
        <time>2017-02-28T07:53:14Z</time>
      </trkpt>
      <trkpt lat="43.30687" lon="-0.50592">
        <ele>192.4</ele>
        <time>2017-02-28T07:53:29Z</time>
      </trkpt>
      <trkpt lat="43.30662" lon="-0.50565">
        <ele>195.28</ele>
        <time>2017-02-28T07:53:45Z</time>
      </trkpt>
      <trkpt lat="43.30637" lon="-0.5054">
        <ele>197.69</ele>
        <time>2017-02-28T07:54:01Z</time>
      </trkpt>
      <trkpt lat="43.30607" lon="-0.50523">
        <ele>199.61</ele>
        <time>2017-02-28T07:54:16Z</time>
      </trkpt>
      <trkpt lat="43.30574" lon="-0.50495">
        <ele>201.05</ele>
        <time>2017-02-28T07:54:35Z</time>
      </trkpt>
      <trkpt lat="43.30543" lon="-0.50464">
        <ele>202.01</ele>
        <time>2017-02-28T07:54:51Z</time>
      </trkpt>
      <trkpt lat="43.30513" lon="-0.50431">
        <ele>202.01</ele>
        <time>2017-02-28T07:55:08Z</time>
      </trkpt>
      <trkpt lat="43.30488" lon="-0.50403">
        <ele>201.53</ele>
        <time>2017-02-28T07:55:22Z</time>
      </trkpt>
      <trkpt lat="43.30465" lon="-0.50376">
        <ele>203.46</ele>
        <time>2017-02-28T07:55:34Z</time>
      </trkpt>
      <trkpt lat="43.30437" lon="-0.50334">
        <ele>205.86</ele>
        <time>2017-02-28T07:55:50Z</time>
      </trkpt>
      <trkpt lat="43.30413" lon="-0.50307">
        <ele>207.78</ele>
        <time>2017-02-28T07:56:04Z</time>
      </trkpt>
      <trkpt lat="43.30385" lon="-0.50279">
        <ele>207.78</ele>
        <time>2017-02-28T07:56:18Z</time>
      </trkpt>
      <trkpt lat="43.30373" lon="-0.50262">
        <ele>209.7</ele>
        <time>2017-02-28T07:56:30Z</time>
      </trkpt>
      <trkpt lat="43.30371" lon="-0.50256">
        <ele>208.74</ele>
        <time>2017-02-28T07:56:59Z</time>
      </trkpt>
      <trkpt lat="43.30354" lon="-0.50247">
        <ele>207.78</ele>
        <time>2017-02-28T07:57:08Z</time>
      </trkpt>
      <trkpt lat="43.30353" lon="-0.50246">
        <ele>207.3</ele>
        <time>2017-02-28T07:57:09Z</time>
      </trkpt>
      <trkpt lat="43.30351" lon="-0.50245">
        <ele>206.82</ele>
        <time>2017-02-28T07:57:10Z</time>
      </trkpt>
      <trkpt lat="43.30349" lon="-0.50244">
        <ele>206.82</ele>
        <time>2017-02-28T07:57:11Z</time>
      </trkpt>
      <trkpt lat="43.30348" lon="-0.50242">
        <ele>206.34</ele>
        <time>2017-02-28T07:57:12Z</time>
      </trkpt>
      <trkpt lat="43.30347" lon="-0.5024">
        <ele>205.86</ele>
        <time>2017-02-28T07:57:13Z</time>
      </trkpt>
      <trkpt lat="43.30346" lon="-0.50238">
        <ele>205.38</ele>
        <time>2017-02-28T07:57:14Z</time>
      </trkpt>
      <trkpt lat="43.30345" lon="-0.50236">
        <ele>204.9</ele>
        <time>2017-02-28T07:57:15Z</time>
      </trkpt>
      <trkpt lat="43.30338" lon="-0.50212">
        <ele>200.57</ele>
        <time>2017-02-28T07:57:24Z</time>
      </trkpt>
      <trkpt lat="43.30338" lon="-0.50209">
        <ele>200.09</ele>
        <time>2017-02-28T07:57:25Z</time>
      </trkpt>
      <trkpt lat="43.30338" lon="-0.50201">
        <ele>198.65</ele>
        <time>2017-02-28T07:57:28Z</time>
      </trkpt>
      <trkpt lat="43.30337" lon="-0.50199">
        <ele>198.65</ele>
        <time>2017-02-28T07:57:29Z</time>
      </trkpt>
      <trkpt lat="43.30335" lon="-0.50196">
        <ele>198.17</ele>
        <time>2017-02-28T07:57:30Z</time>
      </trkpt>
      <trkpt lat="43.30334" lon="-0.50193">
        <ele>198.17</ele>
        <time>2017-02-28T07:57:31Z</time>
      </trkpt>
      <trkpt lat="43.3033" lon="-0.50192">
        <ele>196.73</ele>
        <time>2017-02-28T07:57:35Z</time>
      </trkpt>
      <trkpt lat="43.3033" lon="-0.50192">
        <ele>196.25</ele>
        <time>2017-02-28T07:57:36Z</time>
      </trkpt>
      <trkpt lat="43.3033" lon="-0.50194">
        <ele>195.77</ele>
        <time>2017-02-28T07:57:38Z</time>
      </trkpt>
      <trkpt lat="43.3033" lon="-0.50195">
        <ele>195.28</ele>
        <time>2017-02-28T07:57:39Z</time>
      </trkpt>
      <trkpt lat="43.30329" lon="-0.50196">
        <ele>195.28</ele>
        <time>2017-02-28T07:57:40Z</time>
      </trkpt>
      <trkpt lat="43.30327" lon="-0.50197">
        <ele>194.8</ele>
        <time>2017-02-28T07:57:41Z</time>
      </trkpt>
      <trkpt lat="43.30326" lon="-0.50197">
        <ele>194.8</ele>
        <time>2017-02-28T07:57:42Z</time>
      </trkpt>
      <trkpt lat="43.30324" lon="-0.50197">
        <ele>195.28</ele>
        <time>2017-02-28T07:57:43Z</time>
      </trkpt>
      <trkpt lat="43.30323" lon="-0.50196">
        <ele>195.28</ele>
        <time>2017-02-28T07:57:44Z</time>
      </trkpt>
      <trkpt lat="43.30318" lon="-0.50195">
        <ele>194.32</ele>
        <time>2017-02-28T07:57:48Z</time>
      </trkpt>
      <trkpt lat="43.30317" lon="-0.50194">
        <ele>193.84</ele>
        <time>2017-02-28T07:57:49Z</time>
      </trkpt>
      <trkpt lat="43.30309" lon="-0.5018">
        <ele>188.56</ele>
        <time>2017-02-28T07:58:01Z</time>
      </trkpt>
      <trkpt lat="43.30308" lon="-0.50175">
        <ele>187.59</ele>
        <time>2017-02-28T07:58:04Z</time>
      </trkpt>
      <trkpt lat="43.30304" lon="-0.50167">
        <ele>187.11</ele>
        <time>2017-02-28T07:58:13Z</time>
      </trkpt>
      <trkpt lat="43.30302" lon="-0.50166">
        <ele>187.11</ele>
        <time>2017-02-28T07:58:15Z</time>
      </trkpt>
      <trkpt lat="43.303" lon="-0.50164">
        <ele>187.11</ele>
        <time>2017-02-28T07:58:16Z</time>
      </trkpt>
      <trkpt lat="43.30299" lon="-0.50162">
        <ele>187.11</ele>
        <time>2017-02-28T07:58:17Z</time>
      </trkpt>
      <trkpt lat="43.30297" lon="-0.5016">
        <ele>186.63</ele>
        <time>2017-02-28T07:58:18Z</time>
      </trkpt>
      <trkpt lat="43.30294" lon="-0.50159">
        <ele>186.63</ele>
        <time>2017-02-28T07:58:19Z</time>
      </trkpt>
      <trkpt lat="43.30278" lon="-0.50149">
        <ele>183.27</ele>
        <time>2017-02-28T07:58:29Z</time>
      </trkpt>
      <trkpt lat="43.30275" lon="-0.50144">
        <ele>182.79</ele>
        <time>2017-02-28T07:58:32Z</time>
      </trkpt>
      <trkpt lat="43.30273" lon="-0.50138">
        <ele>182.31</ele>
        <time>2017-02-28T07:58:35Z</time>
      </trkpt>
      <trkpt lat="43.30255" lon="-0.50126">
        <ele>177.98</ele>
        <time>2017-02-28T07:58:45Z</time>
      </trkpt>
      <trkpt lat="43.30234" lon="-0.50123">
        <ele>173.17</ele>
        <time>2017-02-28T07:58:55Z</time>
      </trkpt>
      <trkpt lat="43.30218" lon="-0.5012">
        <ele>171.25</ele>
        <time>2017-02-28T07:59:05Z</time>
      </trkpt>
      <trkpt lat="43.30213" lon="-0.50118">
        <ele>170.77</ele>
        <time>2017-02-28T07:59:07Z</time>
      </trkpt>
      <trkpt lat="43.30212" lon="-0.50116">
        <ele>170.29</ele>
        <time>2017-02-28T07:59:08Z</time>
      </trkpt>
      <trkpt lat="43.30211" lon="-0.50114">
        <ele>169.81</ele>
        <time>2017-02-28T07:59:09Z</time>
      </trkpt>
      <trkpt lat="43.30204" lon="-0.50093">
        <ele>165.96</ele>
        <time>2017-02-28T07:59:17Z</time>
      </trkpt>
      <trkpt lat="43.30188" lon="-0.50085">
        <ele>159.72</ele>
        <time>2017-02-28T07:59:26Z</time>
      </trkpt>
      <trkpt lat="43.30181" lon="-0.50102">
        <ele>156.83</ele>
        <time>2017-02-28T07:59:34Z</time>
      </trkpt>
      <trkpt lat="43.30177" lon="-0.50103">
        <ele>155.87</ele>
        <time>2017-02-28T07:59:44Z</time>
      </trkpt>
      <trkpt lat="43.30175" lon="-0.50085">
        <ele>160.68</ele>
        <time>2017-02-28T07:59:57Z</time>
      </trkpt>
      <trkpt lat="43.30172" lon="-0.50079">
        <ele>163.08</ele>
        <time>2017-02-28T08:00:03Z</time>
      </trkpt>
      <trkpt lat="43.30166" lon="-0.50071">
        <ele>165</ele>
        <time>2017-02-28T08:00:11Z</time>
      </trkpt>
      <trkpt lat="43.30151" lon="-0.50067">
        <ele>166.93</ele>
        <time>2017-02-28T08:00:24Z</time>
      </trkpt>
      <trkpt lat="43.30145" lon="-0.50059">
        <ele>169.33</ele>
        <time>2017-02-28T08:00:34Z</time>
      </trkpt>
      <trkpt lat="43.30149" lon="-0.50035">
        <ele>175.58</ele>
        <time>2017-02-28T08:00:51Z</time>
      </trkpt>
      <trkpt lat="43.30152" lon="-0.50016">
        <ele>180.38</ele>
        <time>2017-02-28T08:01:05Z</time>
      </trkpt>
      <trkpt lat="43.30152" lon="-0.50007">
        <ele>181.35</ele>
        <time>2017-02-28T08:01:09Z</time>
      </trkpt>
      <trkpt lat="43.30156" lon="-0.49977">
        <ele>185.19</ele>
        <time>2017-02-28T08:01:24Z</time>
      </trkpt>
      <trkpt lat="43.30157" lon="-0.4995">
        <ele>186.63</ele>
        <time>2017-02-28T08:01:40Z</time>
      </trkpt>
      <trkpt lat="43.30157" lon="-0.49945">
        <ele>186.15</ele>
        <time>2017-02-28T08:01:43Z</time>
      </trkpt>
      <trkpt lat="43.3015" lon="-0.49932">
        <ele>186.15</ele>
        <time>2017-02-28T08:01:52Z</time>
      </trkpt>
      <trkpt lat="43.30146" lon="-0.49922">
        <ele>187.11</ele>
        <time>2017-02-28T08:01:58Z</time>
      </trkpt>
      <trkpt lat="43.3014" lon="-0.49886">
        <ele>188.08</ele>
        <time>2017-02-28T08:02:14Z</time>
      </trkpt>
      <trkpt lat="43.30141" lon="-0.49852">
        <ele>189.04</ele>
        <time>2017-02-28T08:02:30Z</time>
      </trkpt>
      <trkpt lat="43.30139" lon="-0.49826">
        <ele>189.52</ele>
        <time>2017-02-28T08:02:44Z</time>
      </trkpt>
      <trkpt lat="43.30137" lon="-0.49805">
        <ele>191.92</ele>
        <time>2017-02-28T08:02:57Z</time>
      </trkpt>
      <trkpt lat="43.30131" lon="-0.49785">
        <ele>195.28</ele>
        <time>2017-02-28T08:03:09Z</time>
      </trkpt>
      <trkpt lat="43.30126" lon="-0.49763">
        <ele>193.36</ele>
        <time>2017-02-28T08:03:23Z</time>
      </trkpt>
      <trkpt lat="43.30116" lon="-0.4975">
        <ele>195.28</ele>
        <time>2017-02-28T08:03:33Z</time>
      </trkpt>
      <trkpt lat="43.301" lon="-0.49763">
        <ele>196.25</ele>
        <time>2017-02-28T08:03:47Z</time>
      </trkpt>
      <trkpt lat="43.30095" lon="-0.4978">
        <ele>198.17</ele>
        <time>2017-02-28T08:04:01Z</time>
      </trkpt>
      <trkpt lat="43.30091" lon="-0.49788">
        <ele>200.09</ele>
        <time>2017-02-28T08:04:08Z</time>
      </trkpt>
      <trkpt lat="43.3008" lon="-0.49801">
        <ele>201.53</ele>
        <time>2017-02-28T08:04:22Z</time>
      </trkpt>
      <trkpt lat="43.30063" lon="-0.49808">
        <ele>204.9</ele>
        <time>2017-02-28T08:04:39Z</time>
      </trkpt>
      <trkpt lat="43.30043" lon="-0.49822">
        <ele>205.38</ele>
        <time>2017-02-28T08:04:51Z</time>
      </trkpt>
      <trkpt lat="43.30021" lon="-0.49824">
        <ele>204.9</ele>
        <time>2017-02-28T08:05:06Z</time>
      </trkpt>
      <trkpt lat="43.30003" lon="-0.49812">
        <ele>208.26</ele>
        <time>2017-02-28T08:05:22Z</time>
      </trkpt>
      <trkpt lat="43.29985" lon="-0.49803">
        <ele>212.11</ele>
        <time>2017-02-28T08:05:38Z</time>
      </trkpt>
      <trkpt lat="43.29975" lon="-0.49795">
        <ele>212.59</ele>
        <time>2017-02-28T08:05:51Z</time>
      </trkpt>
      <trkpt lat="43.29961" lon="-0.49782">
        <ele>215.47</ele>
        <time>2017-02-28T08:06:07Z</time>
      </trkpt>
      <trkpt lat="43.29951" lon="-0.49774">
        <ele>216.91</ele>
        <time>2017-02-28T08:06:18Z</time>
      </trkpt>
      <trkpt lat="43.29938" lon="-0.49763">
        <ele>219.8</ele>
        <time>2017-02-28T08:06:31Z</time>
      </trkpt>
      <trkpt lat="43.29931" lon="-0.49754">
        <ele>221.24</ele>
        <time>2017-02-28T08:06:40Z</time>
      </trkpt>
      <trkpt lat="43.29922" lon="-0.49739">
        <ele>224.61</ele>
        <time>2017-02-28T08:06:55Z</time>
      </trkpt>
      <trkpt lat="43.29921" lon="-0.49736">
        <ele>224.61</ele>
        <time>2017-02-28T08:06:58Z</time>
      </trkpt>
      <trkpt lat="43.29914" lon="-0.49724">
        <ele>225.57</ele>
        <time>2017-02-28T08:07:07Z</time>
      </trkpt>
      <trkpt lat="43.29913" lon="-0.49723">
        <ele>225.57</ele>
        <time>2017-02-28T08:07:08Z</time>
      </trkpt>
      <trkpt lat="43.29912" lon="-0.49722">
        <ele>226.05</ele>
        <time>2017-02-28T08:07:09Z</time>
      </trkpt>
      <trkpt lat="43.29911" lon="-0.4972">
        <ele>226.05</ele>
        <time>2017-02-28T08:07:10Z</time>
      </trkpt>
      <trkpt lat="43.29898" lon="-0.4971">
        <ele>227.97</ele>
        <time>2017-02-28T08:07:23Z</time>
      </trkpt>
      <trkpt lat="43.29883" lon="-0.49704">
        <ele>229.89</ele>
        <time>2017-02-28T08:07:39Z</time>
      </trkpt>
      <trkpt lat="43.29874" lon="-0.49699">
        <ele>232.78</ele>
        <time>2017-02-28T08:07:48Z</time>
      </trkpt>
      <trkpt lat="43.29862" lon="-0.49684">
        <ele>234.7</ele>
        <time>2017-02-28T08:08:02Z</time>
      </trkpt>
      <trkpt lat="43.29861" lon="-0.49683">
        <ele>234.7</ele>
        <time>2017-02-28T08:08:03Z</time>
      </trkpt>
      <trkpt lat="43.2986" lon="-0.49681">
        <ele>235.18</ele>
        <time>2017-02-28T08:08:04Z</time>
      </trkpt>
      <trkpt lat="43.29859" lon="-0.4968">
        <ele>235.18</ele>
        <time>2017-02-28T08:08:05Z</time>
      </trkpt>
      <trkpt lat="43.29856" lon="-0.49666">
        <ele>236.62</ele>
        <time>2017-02-28T08:08:13Z</time>
      </trkpt>
      <trkpt lat="43.29857" lon="-0.49664">
        <ele>237.1</ele>
        <time>2017-02-28T08:08:14Z</time>
      </trkpt>
      <trkpt lat="43.2986" lon="-0.4963">
        <ele>239.99</ele>
        <time>2017-02-28T08:08:35Z</time>
      </trkpt>
      <trkpt lat="43.29864" lon="-0.49604">
        <ele>242.87</ele>
        <time>2017-02-28T08:08:52Z</time>
      </trkpt>
      <trkpt lat="43.29864" lon="-0.49603">
        <ele>242.87</ele>
        <time>2017-02-28T08:08:53Z</time>
      </trkpt>
      <trkpt lat="43.29864" lon="-0.49601">
        <ele>242.87</ele>
        <time>2017-02-28T08:08:54Z</time>
      </trkpt>
      <trkpt lat="43.29865" lon="-0.49599">
        <ele>243.35</ele>
        <time>2017-02-28T08:08:55Z</time>
      </trkpt>
      <trkpt lat="43.29865" lon="-0.49598">
        <ele>243.35</ele>
        <time>2017-02-28T08:08:56Z</time>
      </trkpt>
      <trkpt lat="43.29866" lon="-0.49596">
        <ele>243.35</ele>
        <time>2017-02-28T08:08:57Z</time>
      </trkpt>
      <trkpt lat="43.29866" lon="-0.49595">
        <ele>243.35</ele>
        <time>2017-02-28T08:08:58Z</time>
      </trkpt>
      <trkpt lat="43.29867" lon="-0.49593">
        <ele>243.35</ele>
        <time>2017-02-28T08:08:59Z</time>
      </trkpt>
      <trkpt lat="43.29867" lon="-0.49592">
        <ele>243.35</ele>
        <time>2017-02-28T08:09:00Z</time>
      </trkpt>
      <trkpt lat="43.29867" lon="-0.4959">
        <ele>243.35</ele>
        <time>2017-02-28T08:09:01Z</time>
      </trkpt>
      <trkpt lat="43.29868" lon="-0.49588">
        <ele>243.35</ele>
        <time>2017-02-28T08:09:02Z</time>
      </trkpt>
      <trkpt lat="43.29868" lon="-0.49587">
        <ele>243.83</ele>
        <time>2017-02-28T08:09:03Z</time>
      </trkpt>
      <trkpt lat="43.29871" lon="-0.49574">
        <ele>243.83</ele>
        <time>2017-02-28T08:09:12Z</time>
      </trkpt>
      <trkpt lat="43.29871" lon="-0.49573">
        <ele>243.83</ele>
        <time>2017-02-28T08:09:13Z</time>
      </trkpt>
      <trkpt lat="43.29872" lon="-0.49571">
        <ele>243.83</ele>
        <time>2017-02-28T08:09:14Z</time>
      </trkpt>
      <trkpt lat="43.29872" lon="-0.4957">
        <ele>243.83</ele>
        <time>2017-02-28T08:09:15Z</time>
      </trkpt>
      <trkpt lat="43.29872" lon="-0.49568">
        <ele>243.83</ele>
        <time>2017-02-28T08:09:16Z</time>
      </trkpt>
      <trkpt lat="43.29872" lon="-0.49567">
        <ele>243.83</ele>
        <time>2017-02-28T08:09:17Z</time>
      </trkpt>
      <trkpt lat="43.29873" lon="-0.49565">
        <ele>243.83</ele>
        <time>2017-02-28T08:09:18Z</time>
      </trkpt>
      <trkpt lat="43.29875" lon="-0.49558">
        <ele>244.79</ele>
        <time>2017-02-28T08:09:23Z</time>
      </trkpt>
      <trkpt lat="43.2988" lon="-0.49535">
        <ele>245.75</ele>
        <time>2017-02-28T08:09:38Z</time>
      </trkpt>
      <trkpt lat="43.29883" lon="-0.49505">
        <ele>249.6</ele>
        <time>2017-02-28T08:09:56Z</time>
      </trkpt>
      <trkpt lat="43.29884" lon="-0.49483">
        <ele>252.48</ele>
        <time>2017-02-28T08:10:11Z</time>
      </trkpt>
      <trkpt lat="43.29885" lon="-0.49477">
        <ele>253.44</ele>
        <time>2017-02-28T08:10:15Z</time>
      </trkpt>
      <trkpt lat="43.29886" lon="-0.49464">
        <ele>256.33</ele>
        <time>2017-02-28T08:10:23Z</time>
      </trkpt>
      <trkpt lat="43.29885" lon="-0.49447">
        <ele>255.85</ele>
        <time>2017-02-28T08:10:34Z</time>
      </trkpt>
      <trkpt lat="43.29885" lon="-0.49445">
        <ele>255.85</ele>
        <time>2017-02-28T08:10:35Z</time>
      </trkpt>
      <trkpt lat="43.29887" lon="-0.49417">
        <ele>257.77</ele>
        <time>2017-02-28T08:10:51Z</time>
      </trkpt>
      <trkpt lat="43.2989" lon="-0.49394">
        <ele>262.1</ele>
        <time>2017-02-28T08:11:06Z</time>
      </trkpt>
      <trkpt lat="43.29891" lon="-0.49367">
        <ele>266.42</ele>
        <time>2017-02-28T08:11:24Z</time>
      </trkpt>
      <trkpt lat="43.29893" lon="-0.4934">
        <ele>269.31</ele>
        <time>2017-02-28T08:11:41Z</time>
      </trkpt>
      <trkpt lat="43.29895" lon="-0.4933">
        <ele>270.75</ele>
        <time>2017-02-28T08:11:48Z</time>
      </trkpt>
      <trkpt lat="43.29895" lon="-0.49328">
        <ele>270.75</ele>
        <time>2017-02-28T08:11:49Z</time>
      </trkpt>
      <trkpt lat="43.29896" lon="-0.49321">
        <ele>271.23</ele>
        <time>2017-02-28T08:11:54Z</time>
      </trkpt>
      <trkpt lat="43.29896" lon="-0.49319">
        <ele>271.23</ele>
        <time>2017-02-28T08:11:55Z</time>
      </trkpt>
      <trkpt lat="43.29896" lon="-0.49317">
        <ele>271.23</ele>
        <time>2017-02-28T08:11:56Z</time>
      </trkpt>
      <trkpt lat="43.29896" lon="-0.49315">
        <ele>271.23</ele>
        <time>2017-02-28T08:11:57Z</time>
      </trkpt>
      <trkpt lat="43.29897" lon="-0.49313">
        <ele>271.71</ele>
        <time>2017-02-28T08:11:58Z</time>
      </trkpt>
      <trkpt lat="43.29897" lon="-0.49312">
        <ele>271.71</ele>
        <time>2017-02-28T08:11:59Z</time>
      </trkpt>
      <trkpt lat="43.29897" lon="-0.4931">
        <ele>271.71</ele>
        <time>2017-02-28T08:12:00Z</time>
      </trkpt>
      <trkpt lat="43.29897" lon="-0.49308">
        <ele>272.19</ele>
        <time>2017-02-28T08:12:01Z</time>
      </trkpt>
      <trkpt lat="43.29897" lon="-0.49306">
        <ele>272.19</ele>
        <time>2017-02-28T08:12:02Z</time>
      </trkpt>
      <trkpt lat="43.29897" lon="-0.49305">
        <ele>272.19</ele>
        <time>2017-02-28T08:12:03Z</time>
      </trkpt>
      <trkpt lat="43.29897" lon="-0.49303">
        <ele>272.19</ele>
        <time>2017-02-28T08:12:04Z</time>
      </trkpt>
      <trkpt lat="43.29897" lon="-0.49301">
        <ele>272.67</ele>
        <time>2017-02-28T08:12:05Z</time>
      </trkpt>
      <trkpt lat="43.29897" lon="-0.49299">
        <ele>272.67</ele>
        <time>2017-02-28T08:12:06Z</time>
      </trkpt>
      <trkpt lat="43.29898" lon="-0.49297">
        <ele>272.67</ele>
        <time>2017-02-28T08:12:07Z</time>
      </trkpt>
      <trkpt lat="43.29898" lon="-0.49295">
        <ele>273.15</ele>
        <time>2017-02-28T08:12:08Z</time>
      </trkpt>
      <trkpt lat="43.29898" lon="-0.49293">
        <ele>273.15</ele>
        <time>2017-02-28T08:12:09Z</time>
      </trkpt>
      <trkpt lat="43.29905" lon="-0.49259">
        <ele>276.04</ele>
        <time>2017-02-28T08:12:28Z</time>
      </trkpt>
      <trkpt lat="43.29914" lon="-0.49231">
        <ele>277.48</ele>
        <time>2017-02-28T08:12:43Z</time>
      </trkpt>
      <trkpt lat="43.29928" lon="-0.49196">
        <ele>279.4</ele>
        <time>2017-02-28T08:12:59Z</time>
      </trkpt>
      <trkpt lat="43.29941" lon="-0.49166">
        <ele>281.8</ele>
        <time>2017-02-28T08:13:12Z</time>
      </trkpt>
      <trkpt lat="43.29964" lon="-0.49107">
        <ele>281.8</ele>
        <time>2017-02-28T08:13:30Z</time>
      </trkpt>
      <trkpt lat="43.2998" lon="-0.49051">
        <ele>284.21</ele>
        <time>2017-02-28T08:13:48Z</time>
      </trkpt>
      <trkpt lat="43.29976" lon="-0.48987">
        <ele>285.65</ele>
        <time>2017-02-28T08:14:05Z</time>
      </trkpt>
      <trkpt lat="43.29951" lon="-0.48919">
        <ele>283.25</ele>
        <time>2017-02-28T08:14:18Z</time>
      </trkpt>
      <trkpt lat="43.29949" lon="-0.4891">
        <ele>282.77</ele>
        <time>2017-02-28T08:14:19Z</time>
      </trkpt>
      <trkpt lat="43.29948" lon="-0.489">
        <ele>281.8</ele>
        <time>2017-02-28T08:14:20Z</time>
      </trkpt>
      <trkpt lat="43.29947" lon="-0.4889">
        <ele>280.84</ele>
        <time>2017-02-28T08:14:21Z</time>
      </trkpt>
      <trkpt lat="43.29948" lon="-0.48877">
        <ele>279.88</ele>
        <time>2017-02-28T08:14:22Z</time>
      </trkpt>
      <trkpt lat="43.29951" lon="-0.48865">
        <ele>278.92</ele>
        <time>2017-02-28T08:14:23Z</time>
      </trkpt>
      <trkpt lat="43.29954" lon="-0.48853">
        <ele>278.44</ele>
        <time>2017-02-28T08:14:24Z</time>
      </trkpt>
      <trkpt lat="43.29959" lon="-0.48842">
        <ele>277.48</ele>
        <time>2017-02-28T08:14:25Z</time>
      </trkpt>
      <trkpt lat="43.29965" lon="-0.48832">
        <ele>277</ele>
        <time>2017-02-28T08:14:26Z</time>
      </trkpt>
      <trkpt lat="43.29971" lon="-0.48823">
        <ele>276.52</ele>
        <time>2017-02-28T08:14:27Z</time>
      </trkpt>
      <trkpt lat="43.29977" lon="-0.48814">
        <ele>276.52</ele>
        <time>2017-02-28T08:14:28Z</time>
      </trkpt>
      <trkpt lat="43.29983" lon="-0.48807">
        <ele>276.52</ele>
        <time>2017-02-28T08:14:29Z</time>
      </trkpt>
      <trkpt lat="43.30012" lon="-0.48781">
        <ele>276.52</ele>
        <time>2017-02-28T08:14:34Z</time>
      </trkpt>
      <trkpt lat="43.30059" lon="-0.48761">
        <ele>278.44</ele>
        <time>2017-02-28T08:14:46Z</time>
      </trkpt>
      <trkpt lat="43.30086" lon="-0.48751">
        <ele>281.32</ele>
        <time>2017-02-28T08:14:57Z</time>
      </trkpt>
      <trkpt lat="43.30141" lon="-0.48784">
        <ele>282.28</ele>
        <time>2017-02-28T08:15:13Z</time>
      </trkpt>
      <trkpt lat="43.30182" lon="-0.48812">
        <ele>283.25</ele>
        <time>2017-02-28T08:15:26Z</time>
      </trkpt>
      <trkpt lat="43.30219" lon="-0.48839">
        <ele>285.65</ele>
        <time>2017-02-28T08:15:40Z</time>
      </trkpt>
      <trkpt lat="43.30267" lon="-0.48876">
        <ele>289.49</ele>
        <time>2017-02-28T08:15:58Z</time>
      </trkpt>
      <trkpt lat="43.30285" lon="-0.48887">
        <ele>289.01</ele>
        <time>2017-02-28T08:16:03Z</time>
      </trkpt>
      <trkpt lat="43.30349" lon="-0.489">
        <ele>285.65</ele>
        <time>2017-02-28T08:16:14Z</time>
      </trkpt>
      <trkpt lat="43.30459" lon="-0.48893">
        <ele>277.96</ele>
        <time>2017-02-28T08:16:26Z</time>
      </trkpt>
      <trkpt lat="43.30521" lon="-0.48889">
        <ele>279.4</ele>
        <time>2017-02-28T08:16:36Z</time>
      </trkpt>
      <trkpt lat="43.30595" lon="-0.48887">
        <ele>280.84</ele>
        <time>2017-02-28T08:16:50Z</time>
      </trkpt>
      <trkpt lat="43.30695" lon="-0.48882">
        <ele>278.92</ele>
        <time>2017-02-28T08:17:03Z</time>
      </trkpt>
      <trkpt lat="43.30712" lon="-0.48879">
        <ele>278.44</ele>
        <time>2017-02-28T08:17:05Z</time>
      </trkpt>
      <trkpt lat="43.30735" lon="-0.48869">
        <ele>280.36</ele>
        <time>2017-02-28T08:17:09Z</time>
      </trkpt>
      <trkpt lat="43.30738" lon="-0.48866">
        <ele>280.84</ele>
        <time>2017-02-28T08:17:10Z</time>
      </trkpt>
      <trkpt lat="43.30741" lon="-0.48863">
        <ele>280.84</ele>
        <time>2017-02-28T08:17:11Z</time>
      </trkpt>
      <trkpt lat="43.30743" lon="-0.4886">
        <ele>281.32</ele>
        <time>2017-02-28T08:17:12Z</time>
      </trkpt>
      <trkpt lat="43.30745" lon="-0.48857">
        <ele>281.8</ele>
        <time>2017-02-28T08:17:13Z</time>
      </trkpt>
      <trkpt lat="43.30758" lon="-0.48812">
        <ele>283.73</ele>
        <time>2017-02-28T08:17:26Z</time>
      </trkpt>
      <trkpt lat="43.30766" lon="-0.48742">
        <ele>279.88</ele>
        <time>2017-02-28T08:17:36Z</time>
      </trkpt>
      <trkpt lat="43.30767" lon="-0.48734">
        <ele>279.4</ele>
        <time>2017-02-28T08:17:37Z</time>
      </trkpt>
      <trkpt lat="43.30781" lon="-0.48634">
        <ele>277.48</ele>
        <time>2017-02-28T08:17:49Z</time>
      </trkpt>
      <trkpt lat="43.30782" lon="-0.48627">
        <ele>277.48</ele>
        <time>2017-02-28T08:17:50Z</time>
      </trkpt>
      <trkpt lat="43.30786" lon="-0.48606">
        <ele>277</ele>
        <time>2017-02-28T08:17:53Z</time>
      </trkpt>
      <trkpt lat="43.30788" lon="-0.486">
        <ele>277</ele>
        <time>2017-02-28T08:17:54Z</time>
      </trkpt>
      <trkpt lat="43.30794" lon="-0.48582">
        <ele>277</ele>
        <time>2017-02-28T08:17:57Z</time>
      </trkpt>
      <trkpt lat="43.30799" lon="-0.48558">
        <ele>275.56</ele>
        <time>2017-02-28T08:18:00Z</time>
      </trkpt>
      <trkpt lat="43.308" lon="-0.48549">
        <ele>274.59</ele>
        <time>2017-02-28T08:18:01Z</time>
      </trkpt>
      <trkpt lat="43.30802" lon="-0.48539">
        <ele>273.63</ele>
        <time>2017-02-28T08:18:02Z</time>
      </trkpt>
      <trkpt lat="43.30803" lon="-0.48531">
        <ele>272.67</ele>
        <time>2017-02-28T08:18:03Z</time>
      </trkpt>
      <trkpt lat="43.30803" lon="-0.48523">
        <ele>272.19</ele>
        <time>2017-02-28T08:18:04Z</time>
      </trkpt>
      <trkpt lat="43.30803" lon="-0.48514">
        <ele>271.23</ele>
        <time>2017-02-28T08:18:05Z</time>
      </trkpt>
      <trkpt lat="43.30802" lon="-0.48477">
        <ele>266.9</ele>
        <time>2017-02-28T08:18:09Z</time>
      </trkpt>
      <trkpt lat="43.30805" lon="-0.48402">
        <ele>259.69</ele>
        <time>2017-02-28T08:18:17Z</time>
      </trkpt>
      <trkpt lat="43.30804" lon="-0.48396">
        <ele>258.73</ele>
        <time>2017-02-28T08:18:18Z</time>
      </trkpt>
      <trkpt lat="43.30804" lon="-0.4839">
        <ele>258.25</ele>
        <time>2017-02-28T08:18:19Z</time>
      </trkpt>
      <trkpt lat="43.30804" lon="-0.48385">
        <ele>257.29</ele>
        <time>2017-02-28T08:18:20Z</time>
      </trkpt>
      <trkpt lat="43.30804" lon="-0.48379">
        <ele>256.81</ele>
        <time>2017-02-28T08:18:21Z</time>
      </trkpt>
      <trkpt lat="43.30804" lon="-0.48373">
        <ele>255.85</ele>
        <time>2017-02-28T08:18:22Z</time>
      </trkpt>
      <trkpt lat="43.30806" lon="-0.48366">
        <ele>255.37</ele>
        <time>2017-02-28T08:18:23Z</time>
      </trkpt>
      <trkpt lat="43.30809" lon="-0.48359">
        <ele>255.37</ele>
        <time>2017-02-28T08:18:24Z</time>
      </trkpt>
      <trkpt lat="43.30813" lon="-0.48351">
        <ele>254.41</ele>
        <time>2017-02-28T08:18:25Z</time>
      </trkpt>
      <trkpt lat="43.30847" lon="-0.48281">
        <ele>247.68</ele>
        <time>2017-02-28T08:18:35Z</time>
      </trkpt>
      <trkpt lat="43.30859" lon="-0.48261">
        <ele>245.27</ele>
        <time>2017-02-28T08:18:38Z</time>
      </trkpt>
      <trkpt lat="43.30863" lon="-0.48255">
        <ele>244.31</ele>
        <time>2017-02-28T08:18:39Z</time>
      </trkpt>
      <trkpt lat="43.30867" lon="-0.48249">
        <ele>243.35</ele>
        <time>2017-02-28T08:18:40Z</time>
      </trkpt>
      <trkpt lat="43.30871" lon="-0.48245">
        <ele>242.39</ele>
        <time>2017-02-28T08:18:41Z</time>
      </trkpt>
      <trkpt lat="43.30875" lon="-0.48241">
        <ele>241.43</ele>
        <time>2017-02-28T08:18:42Z</time>
      </trkpt>
      <trkpt lat="43.3088" lon="-0.48238">
        <ele>240.95</ele>
        <time>2017-02-28T08:18:43Z</time>
      </trkpt>
      <trkpt lat="43.30884" lon="-0.48234">
        <ele>239.99</ele>
        <time>2017-02-28T08:18:44Z</time>
      </trkpt>
      <trkpt lat="43.30888" lon="-0.48231">
        <ele>239.51</ele>
        <time>2017-02-28T08:18:45Z</time>
      </trkpt>
      <trkpt lat="43.30892" lon="-0.48227">
        <ele>239.02</ele>
        <time>2017-02-28T08:18:46Z</time>
      </trkpt>
      <trkpt lat="43.30897" lon="-0.48223">
        <ele>238.06</ele>
        <time>2017-02-28T08:18:47Z</time>
      </trkpt>
      <trkpt lat="43.30903" lon="-0.48219">
        <ele>237.58</ele>
        <time>2017-02-28T08:18:48Z</time>
      </trkpt>
      <trkpt lat="43.30949" lon="-0.48182">
        <ele>228.93</ele>
        <time>2017-02-28T08:18:57Z</time>
      </trkpt>
      <trkpt lat="43.30954" lon="-0.48177">
        <ele>228.45</ele>
        <time>2017-02-28T08:18:58Z</time>
      </trkpt>
      <trkpt lat="43.30967" lon="-0.48162">
        <ele>225.57</ele>
        <time>2017-02-28T08:19:01Z</time>
      </trkpt>
      <trkpt lat="43.30972" lon="-0.48158">
        <ele>224.61</ele>
        <time>2017-02-28T08:19:02Z</time>
      </trkpt>
      <trkpt lat="43.31022" lon="-0.48101">
        <ele>209.7</ele>
        <time>2017-02-28T08:19:12Z</time>
      </trkpt>
      <trkpt lat="43.3103" lon="-0.48087">
        <ele>206.82</ele>
        <time>2017-02-28T08:19:14Z</time>
      </trkpt>
      <trkpt lat="43.31034" lon="-0.48078">
        <ele>205.38</ele>
        <time>2017-02-28T08:19:15Z</time>
      </trkpt>
      <trkpt lat="43.31038" lon="-0.4807">
        <ele>204.42</ele>
        <time>2017-02-28T08:19:16Z</time>
      </trkpt>
      <trkpt lat="43.31044" lon="-0.48061">
        <ele>202.49</ele>
        <time>2017-02-28T08:19:17Z</time>
      </trkpt>
      <trkpt lat="43.31052" lon="-0.48053">
        <ele>200.09</ele>
        <time>2017-02-28T08:19:18Z</time>
      </trkpt>
      <trkpt lat="43.31061" lon="-0.48046">
        <ele>198.17</ele>
        <time>2017-02-28T08:19:19Z</time>
      </trkpt>
      <trkpt lat="43.31071" lon="-0.4804">
        <ele>195.77</ele>
        <time>2017-02-28T08:19:20Z</time>
      </trkpt>
      <trkpt lat="43.31083" lon="-0.48034">
        <ele>193.84</ele>
        <time>2017-02-28T08:19:21Z</time>
      </trkpt>
      <trkpt lat="43.31165" lon="-0.47985">
        <ele>182.31</ele>
        <time>2017-02-28T08:19:28Z</time>
      </trkpt>
      <trkpt lat="43.31176" lon="-0.47975">
        <ele>180.87</ele>
        <time>2017-02-28T08:19:29Z</time>
      </trkpt>
      <trkpt lat="43.31186" lon="-0.47964">
        <ele>179.9</ele>
        <time>2017-02-28T08:19:30Z</time>
      </trkpt>
      <trkpt lat="43.31195" lon="-0.47952">
        <ele>178.46</ele>
        <time>2017-02-28T08:19:31Z</time>
      </trkpt>
      <trkpt lat="43.31203" lon="-0.4794">
        <ele>177.02</ele>
        <time>2017-02-28T08:19:32Z</time>
      </trkpt>
      <trkpt lat="43.31211" lon="-0.47927">
        <ele>175.58</ele>
        <time>2017-02-28T08:19:33Z</time>
      </trkpt>
      <trkpt lat="43.31255" lon="-0.47844">
        <ele>166.45</ele>
        <time>2017-02-28T08:19:39Z</time>
      </trkpt>
      <trkpt lat="43.31263" lon="-0.47835">
        <ele>165.48</ele>
        <time>2017-02-28T08:19:40Z</time>
      </trkpt>
      <trkpt lat="43.31298" lon="-0.47796">
        <ele>162.6</ele>
        <time>2017-02-28T08:19:47Z</time>
      </trkpt>
      <trkpt lat="43.31305" lon="-0.4778">
        <ele>161.64</ele>
        <time>2017-02-28T08:19:52Z</time>
      </trkpt>
      <trkpt lat="43.31308" lon="-0.47777">
        <ele>161.64</ele>
        <time>2017-02-28T08:19:53Z</time>
      </trkpt>
      <trkpt lat="43.31311" lon="-0.47777">
        <ele>161.64</ele>
        <time>2017-02-28T08:19:54Z</time>
      </trkpt>
      <trkpt lat="43.31315" lon="-0.47776">
        <ele>161.16</ele>
        <time>2017-02-28T08:19:55Z</time>
      </trkpt>
      <trkpt lat="43.3132" lon="-0.47776">
        <ele>161.16</ele>
        <time>2017-02-28T08:19:56Z</time>
      </trkpt>
      <trkpt lat="43.31408" lon="-0.47779">
        <ele>156.35</ele>
        <time>2017-02-28T08:20:11Z</time>
      </trkpt>
      <trkpt lat="43.31442" lon="-0.47775">
        <ele>154.43</ele>
        <time>2017-02-28T08:20:16Z</time>
      </trkpt>
      <trkpt lat="43.31447" lon="-0.47776">
        <ele>154.43</ele>
        <time>2017-02-28T08:20:17Z</time>
      </trkpt>
      <trkpt lat="43.31451" lon="-0.47778">
        <ele>154.43</ele>
        <time>2017-02-28T08:20:18Z</time>
      </trkpt>
      <trkpt lat="43.31455" lon="-0.47782">
        <ele>154.43</ele>
        <time>2017-02-28T08:20:19Z</time>
      </trkpt>
      <trkpt lat="43.31459" lon="-0.47787">
        <ele>153.95</ele>
        <time>2017-02-28T08:20:20Z</time>
      </trkpt>
      <trkpt lat="43.31461" lon="-0.47791">
        <ele>154.43</ele>
        <time>2017-02-28T08:20:21Z</time>
      </trkpt>
      <trkpt lat="43.31464" lon="-0.47795">
        <ele>154.43</ele>
        <time>2017-02-28T08:20:22Z</time>
      </trkpt>
      <trkpt lat="43.31507" lon="-0.47869">
        <ele>154.43</ele>
        <time>2017-02-28T08:20:37Z</time>
      </trkpt>
      <trkpt lat="43.31516" lon="-0.47881">
        <ele>153.47</ele>
        <time>2017-02-28T08:20:39Z</time>
      </trkpt>
      <trkpt lat="43.31521" lon="-0.47885">
        <ele>153.47</ele>
        <time>2017-02-28T08:20:40Z</time>
      </trkpt>
      <trkpt lat="43.31527" lon="-0.47889">
        <ele>152.99</ele>
        <time>2017-02-28T08:20:41Z</time>
      </trkpt>
      <trkpt lat="43.31596" lon="-0.47929">
        <ele>150.58</ele>
        <time>2017-02-28T08:20:53Z</time>
      </trkpt>
      <trkpt lat="43.31601" lon="-0.47931">
        <ele>150.58</ele>
        <time>2017-02-28T08:20:54Z</time>
      </trkpt>
      <trkpt lat="43.31606" lon="-0.47933">
        <ele>150.58</ele>
        <time>2017-02-28T08:20:55Z</time>
      </trkpt>
      <trkpt lat="43.31643" lon="-0.47944">
        <ele>150.1</ele>
        <time>2017-02-28T08:21:03Z</time>
      </trkpt>
      <trkpt lat="43.31646" lon="-0.47947">
        <ele>149.62</ele>
        <time>2017-02-28T08:21:04Z</time>
      </trkpt>
      <trkpt lat="43.31647" lon="-0.47952">
        <ele>149.62</ele>
        <time>2017-02-28T08:21:05Z</time>
      </trkpt>
      <trkpt lat="43.31646" lon="-0.47957">
        <ele>149.62</ele>
        <time>2017-02-28T08:21:06Z</time>
      </trkpt>
      <trkpt lat="43.31643" lon="-0.4796">
        <ele>149.14</ele>
        <time>2017-02-28T08:21:07Z</time>
      </trkpt>
      <trkpt lat="43.31641" lon="-0.47963">
        <ele>149.14</ele>
        <time>2017-02-28T08:21:08Z</time>
      </trkpt>
      <trkpt lat="43.31638" lon="-0.47966">
        <ele>149.14</ele>
        <time>2017-02-28T08:21:09Z</time>
      </trkpt>
      <trkpt lat="43.31636" lon="-0.4797">
        <ele>149.14</ele>
        <time>2017-02-28T08:21:10Z</time>
      </trkpt>
      <trkpt lat="43.3161" lon="-0.48021">
        <ele>150.1</ele>
        <time>2017-02-28T08:21:22Z</time>
      </trkpt>
      <trkpt lat="43.31601" lon="-0.4807">
        <ele>152.99</ele>
        <time>2017-02-28T08:21:35Z</time>
      </trkpt>
      <trkpt lat="43.31576" lon="-0.48109">
        <ele>156.35</ele>
        <time>2017-02-28T08:21:51Z</time>
      </trkpt>
      <trkpt lat="43.31553" lon="-0.48147">
        <ele>160.68</ele>
        <time>2017-02-28T08:22:08Z</time>
      </trkpt>
      <trkpt lat="43.31541" lon="-0.48183">
        <ele>163.08</ele>
        <time>2017-02-28T08:22:23Z</time>
      </trkpt>
      <trkpt lat="43.31569" lon="-0.48213">
        <ele>162.6</ele>
        <time>2017-02-28T08:22:36Z</time>
      </trkpt>
      <trkpt lat="43.31601" lon="-0.48236">
        <ele>160.2</ele>
        <time>2017-02-28T08:22:46Z</time>
      </trkpt>
      <trkpt lat="43.31643" lon="-0.48264">
        <ele>160.2</ele>
        <time>2017-02-28T08:22:58Z</time>
      </trkpt>
      <trkpt lat="43.31647" lon="-0.48267">
        <ele>159.72</ele>
        <time>2017-02-28T08:22:59Z</time>
      </trkpt>
      <trkpt lat="43.31665" lon="-0.48282">
        <ele>158.27</ele>
        <time>2017-02-28T08:23:03Z</time>
      </trkpt>
      <trkpt lat="43.31694" lon="-0.48305">
        <ele>156.35</ele>
        <time>2017-02-28T08:23:08Z</time>
      </trkpt>
      <trkpt lat="43.31733" lon="-0.48333">
        <ele>154.43</ele>
        <time>2017-02-28T08:23:16Z</time>
      </trkpt>
      <trkpt lat="43.31753" lon="-0.48351">
        <ele>152.99</ele>
        <time>2017-02-28T08:23:22Z</time>
      </trkpt>
      <trkpt lat="43.31757" lon="-0.48355">
        <ele>152.99</ele>
        <time>2017-02-28T08:23:23Z</time>
      </trkpt>
      <trkpt lat="43.31775" lon="-0.48375">
        <ele>152.03</ele>
        <time>2017-02-28T08:23:28Z</time>
      </trkpt>
      <trkpt lat="43.3178" lon="-0.48378">
        <ele>151.54</ele>
        <time>2017-02-28T08:23:29Z</time>
      </trkpt>
      <trkpt lat="43.31792" lon="-0.48383">
        <ele>151.54</ele>
        <time>2017-02-28T08:23:32Z</time>
      </trkpt>
      <trkpt lat="43.31794" lon="-0.48385">
        <ele>151.54</ele>
        <time>2017-02-28T08:23:33Z</time>
      </trkpt>
      <trkpt lat="43.31817" lon="-0.48414">
        <ele>148.18</ele>
        <time>2017-02-28T08:23:43Z</time>
      </trkpt>
      <trkpt lat="43.31818" lon="-0.48436">
        <ele>151.06</ele>
        <time>2017-02-28T08:23:54Z</time>
      </trkpt>
      <trkpt lat="43.31816" lon="-0.48439">
        <ele>151.54</ele>
        <time>2017-02-28T08:23:56Z</time>
      </trkpt>
      <trkpt lat="43.31816" lon="-0.4844">
        <ele>151.54</ele>
        <time>2017-02-28T08:23:57Z</time>
      </trkpt>
      <trkpt lat="43.31813" lon="-0.48453">
        <ele>154.43</ele>
        <time>2017-02-28T08:24:07Z</time>
      </trkpt>
      <trkpt lat="43.31813" lon="-0.48464">
        <ele>153.47</ele>
        <time>2017-02-28T08:24:13Z</time>
      </trkpt>
      <trkpt lat="43.31814" lon="-0.48466">
        <ele>153.95</ele>
        <time>2017-02-28T08:24:14Z</time>
      </trkpt>
      <trkpt lat="43.31815" lon="-0.48467">
        <ele>154.43</ele>
        <time>2017-02-28T08:24:15Z</time>
      </trkpt>
      <trkpt lat="43.31816" lon="-0.48469">
        <ele>154.43</ele>
        <time>2017-02-28T08:24:16Z</time>
      </trkpt>
      <trkpt lat="43.31817" lon="-0.48471">
        <ele>154.43</ele>
        <time>2017-02-28T08:24:17Z</time>
      </trkpt>
      <trkpt lat="43.31818" lon="-0.48472">
        <ele>154.43</ele>
        <time>2017-02-28T08:24:18Z</time>
      </trkpt>
      <trkpt lat="43.31819" lon="-0.48474">
        <ele>154.91</ele>
        <time>2017-02-28T08:24:19Z</time>
      </trkpt>
      <trkpt lat="43.3182" lon="-0.48475">
        <ele>154.43</ele>
        <time>2017-02-28T08:24:20Z</time>
      </trkpt>
      <trkpt lat="43.31833" lon="-0.48496">
        <ele>150.58</ele>
        <time>2017-02-28T08:24:32Z</time>
      </trkpt>
      <trkpt lat="43.31856" lon="-0.48525">
        <ele>149.14</ele>
        <time>2017-02-28T08:24:49Z</time>
      </trkpt>
      <trkpt lat="43.31892" lon="-0.48554">
        <ele>147.22</ele>
        <time>2017-02-28T08:25:00Z</time>
      </trkpt>
      <trkpt lat="43.31925" lon="-0.48589">
        <ele>147.22</ele>
        <time>2017-02-28T08:25:11Z</time>
      </trkpt>
      <trkpt lat="43.31944" lon="-0.4862">
        <ele>150.1</ele>
        <time>2017-02-28T08:25:23Z</time>
      </trkpt>
      <trkpt lat="43.31955" lon="-0.48638">
        <ele>152.99</ele>
        <time>2017-02-28T08:25:31Z</time>
      </trkpt>
      <trkpt lat="43.31955" lon="-0.48641">
        <ele>152.99</ele>
        <time>2017-02-28T08:25:32Z</time>
      </trkpt>
      <trkpt lat="43.31954" lon="-0.48644">
        <ele>153.47</ele>
        <time>2017-02-28T08:25:33Z</time>
      </trkpt>
      <trkpt lat="43.31953" lon="-0.48646">
        <ele>153.47</ele>
        <time>2017-02-28T08:25:34Z</time>
      </trkpt>
      <trkpt lat="43.31952" lon="-0.48648">
        <ele>153.95</ele>
        <time>2017-02-28T08:25:35Z</time>
      </trkpt>
      <trkpt lat="43.31931" lon="-0.48678">
        <ele>156.83</ele>
        <time>2017-02-28T08:25:52Z</time>
      </trkpt>
      <trkpt lat="43.31913" lon="-0.48701">
        <ele>158.27</ele>
        <time>2017-02-28T08:26:07Z</time>
      </trkpt>
      <trkpt lat="43.31908" lon="-0.48705">
        <ele>157.79</ele>
        <time>2017-02-28T08:26:10Z</time>
      </trkpt>
      <trkpt lat="43.31907" lon="-0.48706">
        <ele>157.79</ele>
        <time>2017-02-28T08:26:11Z</time>
      </trkpt>
      <trkpt lat="43.31906" lon="-0.48707">
        <ele>157.79</ele>
        <time>2017-02-28T08:26:12Z</time>
      </trkpt>
      <trkpt lat="43.31904" lon="-0.48708">
        <ele>157.31</ele>
        <time>2017-02-28T08:26:13Z</time>
      </trkpt>
      <trkpt lat="43.31902" lon="-0.48709">
        <ele>157.31</ele>
        <time>2017-02-28T08:26:14Z</time>
      </trkpt>
      <trkpt lat="43.31885" lon="-0.48723">
        <ele>156.35</ele>
        <time>2017-02-28T08:26:25Z</time>
      </trkpt>
      <trkpt lat="43.31864" lon="-0.48743">
        <ele>155.39</ele>
        <time>2017-02-28T08:26:38Z</time>
      </trkpt>
      <trkpt lat="43.31841" lon="-0.48765">
        <ele>154.43</ele>
        <time>2017-02-28T08:26:53Z</time>
      </trkpt>
      <trkpt lat="43.31819" lon="-0.48784">
        <ele>156.35</ele>
        <time>2017-02-28T08:27:06Z</time>
      </trkpt>
      <trkpt lat="43.31802" lon="-0.48799">
        <ele>164.04</ele>
        <time>2017-02-28T08:27:17Z</time>
      </trkpt>
      <trkpt lat="43.31801" lon="-0.488">
        <ele>165</ele>
        <time>2017-02-28T08:27:18Z</time>
      </trkpt>
      <trkpt lat="43.31799" lon="-0.48802">
        <ele>165.48</ele>
        <time>2017-02-28T08:27:19Z</time>
      </trkpt>
      <trkpt lat="43.31798" lon="-0.48803">
        <ele>165.96</ele>
        <time>2017-02-28T08:27:20Z</time>
      </trkpt>
      <trkpt lat="43.31797" lon="-0.48805">
        <ele>166.45</ele>
        <time>2017-02-28T08:27:21Z</time>
      </trkpt>
      <trkpt lat="43.31796" lon="-0.48807">
        <ele>166.93</ele>
        <time>2017-02-28T08:27:22Z</time>
      </trkpt>
      <trkpt lat="43.31785" lon="-0.48822">
        <ele>172.21</ele>
        <time>2017-02-28T08:27:30Z</time>
      </trkpt>
      <trkpt lat="43.31767" lon="-0.48829">
        <ele>176.06</ele>
        <time>2017-02-28T08:27:42Z</time>
      </trkpt>
      <trkpt lat="43.31766" lon="-0.48829">
        <ele>176.54</ele>
        <time>2017-02-28T08:27:43Z</time>
      </trkpt>
      <trkpt lat="43.31765" lon="-0.48828">
        <ele>176.54</ele>
        <time>2017-02-28T08:27:44Z</time>
      </trkpt>
      <trkpt lat="43.3176" lon="-0.48827">
        <ele>177.98</ele>
        <time>2017-02-28T08:27:57Z</time>
      </trkpt>
      <trkpt lat="43.31757" lon="-0.48828">
        <ele>177.02</ele>
        <time>2017-02-28T08:28:05Z</time>
      </trkpt>
      <trkpt lat="43.31756" lon="-0.48828">
        <ele>176.54</ele>
        <time>2017-02-28T08:28:06Z</time>
      </trkpt>
      <trkpt lat="43.31754" lon="-0.48828">
        <ele>176.54</ele>
        <time>2017-02-28T08:28:07Z</time>
      </trkpt>
      <trkpt lat="43.31753" lon="-0.48828">
        <ele>176.54</ele>
        <time>2017-02-28T08:28:08Z</time>
      </trkpt>
      <trkpt lat="43.31751" lon="-0.48829">
        <ele>176.06</ele>
        <time>2017-02-28T08:28:09Z</time>
      </trkpt>
      <trkpt lat="43.31746" lon="-0.48831">
        <ele>175.1</ele>
        <time>2017-02-28T08:28:13Z</time>
      </trkpt>
      <trkpt lat="43.31731" lon="-0.48842">
        <ele>178.94</ele>
        <time>2017-02-28T08:28:25Z</time>
      </trkpt>
      <trkpt lat="43.31729" lon="-0.48842">
        <ele>179.42</ele>
        <time>2017-02-28T08:28:26Z</time>
      </trkpt>
      <trkpt lat="43.31728" lon="-0.48843">
        <ele>179.42</ele>
        <time>2017-02-28T08:28:27Z</time>
      </trkpt>
      <trkpt lat="43.31726" lon="-0.48843">
        <ele>179.9</ele>
        <time>2017-02-28T08:28:28Z</time>
      </trkpt>
      <trkpt lat="43.31725" lon="-0.48843">
        <ele>180.38</ele>
        <time>2017-02-28T08:28:29Z</time>
      </trkpt>
      <trkpt lat="43.31712" lon="-0.48847">
        <ele>183.27</ele>
        <time>2017-02-28T08:28:37Z</time>
      </trkpt>
      <trkpt lat="43.31711" lon="-0.48848">
        <ele>183.75</ele>
        <time>2017-02-28T08:28:38Z</time>
      </trkpt>
      <trkpt lat="43.31709" lon="-0.48849">
        <ele>184.23</ele>
        <time>2017-02-28T08:28:39Z</time>
      </trkpt>
      <trkpt lat="43.31708" lon="-0.4885">
        <ele>184.23</ele>
        <time>2017-02-28T08:28:40Z</time>
      </trkpt>
      <trkpt lat="43.31704" lon="-0.48853">
        <ele>184.23</ele>
        <time>2017-02-28T08:28:43Z</time>
      </trkpt>
      <trkpt lat="43.31703" lon="-0.48855">
        <ele>183.75</ele>
        <time>2017-02-28T08:28:44Z</time>
      </trkpt>
      <trkpt lat="43.31697" lon="-0.4886">
        <ele>183.27</ele>
        <time>2017-02-28T08:28:54Z</time>
      </trkpt>
      <trkpt lat="43.31694" lon="-0.48862">
        <ele>183.27</ele>
        <time>2017-02-28T08:28:56Z</time>
      </trkpt>
      <trkpt lat="43.31693" lon="-0.48862">
        <ele>183.27</ele>
        <time>2017-02-28T08:28:57Z</time>
      </trkpt>
      <trkpt lat="43.3169" lon="-0.48862">
        <ele>183.27</ele>
        <time>2017-02-28T08:28:59Z</time>
      </trkpt>
      <trkpt lat="43.31689" lon="-0.48863">
        <ele>183.27</ele>
        <time>2017-02-28T08:29:00Z</time>
      </trkpt>
      <trkpt lat="43.31687" lon="-0.48864">
        <ele>183.27</ele>
        <time>2017-02-28T08:29:01Z</time>
      </trkpt>
      <trkpt lat="43.31673" lon="-0.48864">
        <ele>189.04</ele>
        <time>2017-02-28T08:29:12Z</time>
      </trkpt>
      <trkpt lat="43.31672" lon="-0.48864">
        <ele>190</ele>
        <time>2017-02-28T08:29:13Z</time>
      </trkpt>
      <trkpt lat="43.31653" lon="-0.48877">
        <ele>196.25</ele>
        <time>2017-02-28T08:29:27Z</time>
      </trkpt>
      <trkpt lat="43.31652" lon="-0.48879">
        <ele>195.77</ele>
        <time>2017-02-28T08:29:28Z</time>
      </trkpt>
      <trkpt lat="43.3165" lon="-0.48881">
        <ele>196.25</ele>
        <time>2017-02-28T08:29:30Z</time>
      </trkpt>
      <trkpt lat="43.3165" lon="-0.48883">
        <ele>196.25</ele>
        <time>2017-02-28T08:29:31Z</time>
      </trkpt>
      <trkpt lat="43.31649" lon="-0.48885">
        <ele>196.25</ele>
        <time>2017-02-28T08:29:32Z</time>
      </trkpt>
      <trkpt lat="43.31649" lon="-0.48887">
        <ele>195.77</ele>
        <time>2017-02-28T08:29:33Z</time>
      </trkpt>
      <trkpt lat="43.31649" lon="-0.48888">
        <ele>195.77</ele>
        <time>2017-02-28T08:29:34Z</time>
      </trkpt>
      <trkpt lat="43.31647" lon="-0.4889">
        <ele>195.28</ele>
        <time>2017-02-28T08:29:37Z</time>
      </trkpt>
      <trkpt lat="43.31632" lon="-0.48891">
        <ele>192.4</ele>
        <time>2017-02-28T08:29:52Z</time>
      </trkpt>
      <trkpt lat="43.3162" lon="-0.48886">
        <ele>190.96</ele>
        <time>2017-02-28T08:30:05Z</time>
      </trkpt>
      <trkpt lat="43.31602" lon="-0.48885">
        <ele>189.52</ele>
        <time>2017-02-28T08:30:21Z</time>
      </trkpt>
      <trkpt lat="43.31601" lon="-0.48886">
        <ele>189.52</ele>
        <time>2017-02-28T08:30:22Z</time>
      </trkpt>
      <trkpt lat="43.316" lon="-0.48886">
        <ele>189.52</ele>
        <time>2017-02-28T08:30:23Z</time>
      </trkpt>
      <trkpt lat="43.31599" lon="-0.48887">
        <ele>189.52</ele>
        <time>2017-02-28T08:30:24Z</time>
      </trkpt>
      <trkpt lat="43.31586" lon="-0.48892">
        <ele>188.08</ele>
        <time>2017-02-28T08:30:36Z</time>
      </trkpt>
      <trkpt lat="43.31585" lon="-0.48893">
        <ele>188.08</ele>
        <time>2017-02-28T08:30:37Z</time>
      </trkpt>
      <trkpt lat="43.31584" lon="-0.48894">
        <ele>187.59</ele>
        <time>2017-02-28T08:30:38Z</time>
      </trkpt>
      <trkpt lat="43.31564" lon="-0.48902">
        <ele>186.63</ele>
        <time>2017-02-28T08:30:54Z</time>
      </trkpt>
      <trkpt lat="43.3155" lon="-0.48905">
        <ele>188.08</ele>
        <time>2017-02-28T08:31:05Z</time>
      </trkpt>
      <trkpt lat="43.31548" lon="-0.48906">
        <ele>188.56</ele>
        <time>2017-02-28T08:31:06Z</time>
      </trkpt>
      <trkpt lat="43.31533" lon="-0.48916">
        <ele>192.4</ele>
        <time>2017-02-28T08:31:20Z</time>
      </trkpt>
      <trkpt lat="43.31523" lon="-0.48931">
        <ele>193.36</ele>
        <time>2017-02-28T08:31:35Z</time>
      </trkpt>
      <trkpt lat="43.31521" lon="-0.48937">
        <ele>193.84</ele>
        <time>2017-02-28T08:31:40Z</time>
      </trkpt>
      <trkpt lat="43.3152" lon="-0.48939">
        <ele>193.84</ele>
        <time>2017-02-28T08:31:41Z</time>
      </trkpt>
      <trkpt lat="43.31519" lon="-0.48955">
        <ele>195.77</ele>
        <time>2017-02-28T08:31:54Z</time>
      </trkpt>
      <trkpt lat="43.31516" lon="-0.48972">
        <ele>194.32</ele>
        <time>2017-02-28T08:32:09Z</time>
      </trkpt>
      <trkpt lat="43.31516" lon="-0.48993">
        <ele>200.09</ele>
        <time>2017-02-28T08:32:25Z</time>
      </trkpt>
      <trkpt lat="43.31522" lon="-0.49008">
        <ele>204.9</ele>
        <time>2017-02-28T08:32:38Z</time>
      </trkpt>
      <trkpt lat="43.31528" lon="-0.49017">
        <ele>204.9</ele>
        <time>2017-02-28T08:32:50Z</time>
      </trkpt>
      <trkpt lat="43.31535" lon="-0.49032">
        <ele>208.26</ele>
        <time>2017-02-28T08:33:03Z</time>
      </trkpt>
      <trkpt lat="43.31535" lon="-0.49047">
        <ele>214.99</ele>
        <time>2017-02-28T08:33:16Z</time>
      </trkpt>
      <trkpt lat="43.31533" lon="-0.49062">
        <ele>215.47</ele>
        <time>2017-02-28T08:33:29Z</time>
      </trkpt>
      <trkpt lat="43.31522" lon="-0.49074">
        <ele>218.36</ele>
        <time>2017-02-28T08:33:44Z</time>
      </trkpt>
      <trkpt lat="43.3152" lon="-0.49074">
        <ele>218.84</ele>
        <time>2017-02-28T08:33:46Z</time>
      </trkpt>
      <trkpt lat="43.31503" lon="-0.4908">
        <ele>226.05</ele>
        <time>2017-02-28T08:34:03Z</time>
      </trkpt>
      <trkpt lat="43.31504" lon="-0.49099">
        <ele>230.85</ele>
        <time>2017-02-28T08:34:17Z</time>
      </trkpt>
      <trkpt lat="43.31504" lon="-0.49102">
        <ele>231.81</ele>
        <time>2017-02-28T08:34:19Z</time>
      </trkpt>
      <trkpt lat="43.3151" lon="-0.49118">
        <ele>232.3</ele>
        <time>2017-02-28T08:34:32Z</time>
      </trkpt>
      <trkpt lat="43.31511" lon="-0.49128">
        <ele>232.3</ele>
        <time>2017-02-28T08:34:42Z</time>
      </trkpt>
      <trkpt lat="43.31517" lon="-0.49139">
        <ele>234.22</ele>
        <time>2017-02-28T08:34:53Z</time>
      </trkpt>
      <trkpt lat="43.31532" lon="-0.49143">
        <ele>235.18</ele>
        <time>2017-02-28T08:35:06Z</time>
      </trkpt>
      <trkpt lat="43.31557" lon="-0.49138">
        <ele>236.62</ele>
        <time>2017-02-28T08:35:16Z</time>
      </trkpt>
      <trkpt lat="43.31583" lon="-0.49118">
        <ele>235.66</ele>
        <time>2017-02-28T08:35:29Z</time>
      </trkpt>
      <trkpt lat="43.31593" lon="-0.49117">
        <ele>235.66</ele>
        <time>2017-02-28T08:35:34Z</time>
      </trkpt>
      <trkpt lat="43.31599" lon="-0.49121">
        <ele>235.66</ele>
        <time>2017-02-28T08:35:39Z</time>
      </trkpt>
      <trkpt lat="43.31616" lon="-0.49124">
        <ele>233.74</ele>
        <time>2017-02-28T08:35:47Z</time>
      </trkpt>
      <trkpt lat="43.3164" lon="-0.49138">
        <ele>236.62</ele>
        <time>2017-02-28T08:36:00Z</time>
      </trkpt>
      <trkpt lat="43.31641" lon="-0.49138">
        <ele>237.1</ele>
        <time>2017-02-28T08:36:01Z</time>
      </trkpt>
      <trkpt lat="43.31649" lon="-0.49155">
        <ele>236.62</ele>
        <time>2017-02-28T08:36:14Z</time>
      </trkpt>
      <trkpt lat="43.31658" lon="-0.49156">
        <ele>235.66</ele>
        <time>2017-02-28T08:36:19Z</time>
      </trkpt>
      <trkpt lat="43.31665" lon="-0.49156">
        <ele>235.66</ele>
        <time>2017-02-28T08:36:21Z</time>
      </trkpt>
      <trkpt lat="43.31681" lon="-0.49169">
        <ele>235.18</ele>
        <time>2017-02-28T08:36:34Z</time>
      </trkpt>
      <trkpt lat="43.31683" lon="-0.4917">
        <ele>235.18</ele>
        <time>2017-02-28T08:36:35Z</time>
      </trkpt>
      <trkpt lat="43.31705" lon="-0.49174">
        <ele>243.35</ele>
        <time>2017-02-28T08:36:51Z</time>
      </trkpt>
      <trkpt lat="43.31725" lon="-0.4917">
        <ele>252.48</ele>
        <time>2017-02-28T08:37:08Z</time>
      </trkpt>
      <trkpt lat="43.3174" lon="-0.49165">
        <ele>256.33</ele>
        <time>2017-02-28T08:37:22Z</time>
      </trkpt>
      <trkpt lat="43.31755" lon="-0.4916">
        <ele>257.77</ele>
        <time>2017-02-28T08:37:37Z</time>
      </trkpt>
      <trkpt lat="43.31765" lon="-0.49164">
        <ele>260.65</ele>
        <time>2017-02-28T08:37:48Z</time>
      </trkpt>
      <trkpt lat="43.31767" lon="-0.49177">
        <ele>261.14</ele>
        <time>2017-02-28T08:37:58Z</time>
      </trkpt>
      <trkpt lat="43.31765" lon="-0.49182">
        <ele>261.62</ele>
        <time>2017-02-28T08:38:02Z</time>
      </trkpt>
      <trkpt lat="43.31764" lon="-0.49185">
        <ele>261.14</ele>
        <time>2017-02-28T08:38:04Z</time>
      </trkpt>
      <trkpt lat="43.31768" lon="-0.49191">
        <ele>261.62</ele>
        <time>2017-02-28T08:38:09Z</time>
      </trkpt>
      <trkpt lat="43.31775" lon="-0.49202">
        <ele>261.14</ele>
        <time>2017-02-28T08:38:19Z</time>
      </trkpt>
      <trkpt lat="43.31784" lon="-0.49229">
        <ele>256.81</ele>
        <time>2017-02-28T08:38:32Z</time>
      </trkpt>
      <trkpt lat="43.31783" lon="-0.49236">
        <ele>255.85</ele>
        <time>2017-02-28T08:38:34Z</time>
      </trkpt>
      <trkpt lat="43.31788" lon="-0.49245">
        <ele>253.93</ele>
        <time>2017-02-28T08:38:38Z</time>
      </trkpt>
      <trkpt lat="43.31818" lon="-0.49249">
        <ele>253.93</ele>
        <time>2017-02-28T08:38:56Z</time>
      </trkpt>
      <trkpt lat="43.31842" lon="-0.49249">
        <ele>256.81</ele>
        <time>2017-02-28T08:39:10Z</time>
      </trkpt>
      <trkpt lat="43.31869" lon="-0.49247">
        <ele>261.14</ele>
        <time>2017-02-28T08:39:28Z</time>
      </trkpt>
      <trkpt lat="43.31894" lon="-0.49248">
        <ele>262.58</ele>
        <time>2017-02-28T08:39:42Z</time>
      </trkpt>
      <trkpt lat="43.31926" lon="-0.49251">
        <ele>264.5</ele>
        <time>2017-02-28T08:39:57Z</time>
      </trkpt>
      <trkpt lat="43.31958" lon="-0.4926">
        <ele>263.06</ele>
        <time>2017-02-28T08:40:10Z</time>
      </trkpt>
      <trkpt lat="43.31973" lon="-0.49267">
        <ele>262.1</ele>
        <time>2017-02-28T08:40:18Z</time>
      </trkpt>
      <trkpt lat="43.31974" lon="-0.49269">
        <ele>262.1</ele>
        <time>2017-02-28T08:40:19Z</time>
      </trkpt>
      <trkpt lat="43.31975" lon="-0.49271">
        <ele>261.62</ele>
        <time>2017-02-28T08:40:20Z</time>
      </trkpt>
      <trkpt lat="43.31975" lon="-0.49273">
        <ele>261.62</ele>
        <time>2017-02-28T08:40:21Z</time>
      </trkpt>
      <trkpt lat="43.31975" lon="-0.49276">
        <ele>261.14</ele>
        <time>2017-02-28T08:40:22Z</time>
      </trkpt>
      <trkpt lat="43.31974" lon="-0.49278">
        <ele>261.14</ele>
        <time>2017-02-28T08:40:23Z</time>
      </trkpt>
      <trkpt lat="43.31973" lon="-0.49281">
        <ele>260.65</ele>
        <time>2017-02-28T08:40:24Z</time>
      </trkpt>
      <trkpt lat="43.31971" lon="-0.49285">
        <ele>260.65</ele>
        <time>2017-02-28T08:40:25Z</time>
      </trkpt>
      <trkpt lat="43.31968" lon="-0.49289">
        <ele>260.65</ele>
        <time>2017-02-28T08:40:26Z</time>
      </trkpt>
      <trkpt lat="43.31958" lon="-0.49299">
        <ele>259.69</ele>
        <time>2017-02-28T08:40:29Z</time>
      </trkpt>
      <trkpt lat="43.3195" lon="-0.49301">
        <ele>258.25</ele>
        <time>2017-02-28T08:40:31Z</time>
      </trkpt>
      <trkpt lat="43.31945" lon="-0.49302">
        <ele>257.29</ele>
        <time>2017-02-28T08:40:32Z</time>
      </trkpt>
      <trkpt lat="43.31885" lon="-0.49311">
        <ele>241.91</ele>
        <time>2017-02-28T08:40:44Z</time>
      </trkpt>
      <trkpt lat="43.31878" lon="-0.49314">
        <ele>239.02</ele>
        <time>2017-02-28T08:40:46Z</time>
      </trkpt>
      <trkpt lat="43.31875" lon="-0.49317">
        <ele>237.58</ele>
        <time>2017-02-28T08:40:47Z</time>
      </trkpt>
      <trkpt lat="43.31871" lon="-0.49319">
        <ele>236.14</ele>
        <time>2017-02-28T08:40:48Z</time>
      </trkpt>
      <trkpt lat="43.31866" lon="-0.4932">
        <ele>234.7</ele>
        <time>2017-02-28T08:40:49Z</time>
      </trkpt>
      <trkpt lat="43.3186" lon="-0.49321">
        <ele>233.26</ele>
        <time>2017-02-28T08:40:50Z</time>
      </trkpt>
      <trkpt lat="43.31834" lon="-0.49324">
        <ele>226.53</ele>
        <time>2017-02-28T08:40:55Z</time>
      </trkpt>
      <trkpt lat="43.31831" lon="-0.49328">
        <ele>225.57</ele>
        <time>2017-02-28T08:40:56Z</time>
      </trkpt>
      <trkpt lat="43.31827" lon="-0.49332">
        <ele>224.12</ele>
        <time>2017-02-28T08:40:57Z</time>
      </trkpt>
      <trkpt lat="43.31824" lon="-0.49337">
        <ele>223.16</ele>
        <time>2017-02-28T08:40:58Z</time>
      </trkpt>
      <trkpt lat="43.31803" lon="-0.4936">
        <ele>215.47</ele>
        <time>2017-02-28T08:41:08Z</time>
      </trkpt>
      <trkpt lat="43.318" lon="-0.49377">
        <ele>213.07</ele>
        <time>2017-02-28T08:41:17Z</time>
      </trkpt>
      <trkpt lat="43.31803" lon="-0.49388">
        <ele>214.99</ele>
        <time>2017-02-28T08:41:24Z</time>
      </trkpt>
      <trkpt lat="43.318" lon="-0.49396">
        <ele>217.4</ele>
        <time>2017-02-28T08:41:30Z</time>
      </trkpt>
      <trkpt lat="43.318" lon="-0.49423">
        <ele>224.12</ele>
        <time>2017-02-28T08:41:46Z</time>
      </trkpt>
      <trkpt lat="43.31798" lon="-0.49448">
        <ele>229.41</ele>
        <time>2017-02-28T08:42:01Z</time>
      </trkpt>
      <trkpt lat="43.318" lon="-0.49455">
        <ele>230.37</ele>
        <time>2017-02-28T08:42:04Z</time>
      </trkpt>
      <trkpt lat="43.31802" lon="-0.49458">
        <ele>231.33</ele>
        <time>2017-02-28T08:42:05Z</time>
      </trkpt>
      <trkpt lat="43.31802" lon="-0.4946">
        <ele>231.81</ele>
        <time>2017-02-28T08:42:06Z</time>
      </trkpt>
      <trkpt lat="43.31803" lon="-0.49461">
        <ele>231.81</ele>
        <time>2017-02-28T08:42:07Z</time>
      </trkpt>
      <trkpt lat="43.31804" lon="-0.49463">
        <ele>232.3</ele>
        <time>2017-02-28T08:42:08Z</time>
      </trkpt>
      <trkpt lat="43.31806" lon="-0.49465">
        <ele>232.78</ele>
        <time>2017-02-28T08:42:10Z</time>
      </trkpt>
      <trkpt lat="43.31808" lon="-0.49467">
        <ele>232.78</ele>
        <time>2017-02-28T08:42:11Z</time>
      </trkpt>
      <trkpt lat="43.31809" lon="-0.49468">
        <ele>233.26</ele>
        <time>2017-02-28T08:42:12Z</time>
      </trkpt>
      <trkpt lat="43.31832" lon="-0.4949">
        <ele>237.1</ele>
        <time>2017-02-28T08:42:24Z</time>
      </trkpt>
      <trkpt lat="43.31861" lon="-0.49508">
        <ele>234.7</ele>
        <time>2017-02-28T08:42:36Z</time>
      </trkpt>
      <trkpt lat="43.31895" lon="-0.49529">
        <ele>232.3</ele>
        <time>2017-02-28T08:42:50Z</time>
      </trkpt>
      <trkpt lat="43.31922" lon="-0.49559">
        <ele>235.18</ele>
        <time>2017-02-28T08:43:04Z</time>
      </trkpt>
      <trkpt lat="43.31938" lon="-0.49594">
        <ele>232.3</ele>
        <time>2017-02-28T08:43:17Z</time>
      </trkpt>
      <trkpt lat="43.31913" lon="-0.49613">
        <ele>231.33</ele>
        <time>2017-02-28T08:43:30Z</time>
      </trkpt>
      <trkpt lat="43.3189" lon="-0.4963">
        <ele>232.78</ele>
        <time>2017-02-28T08:43:42Z</time>
      </trkpt>
      <trkpt lat="43.31869" lon="-0.49643">
        <ele>232.3</ele>
        <time>2017-02-28T08:43:54Z</time>
      </trkpt>
      <trkpt lat="43.31849" lon="-0.49668">
        <ele>234.22</ele>
        <time>2017-02-28T08:44:07Z</time>
      </trkpt>
      <trkpt lat="43.31835" lon="-0.49688">
        <ele>233.26</ele>
        <time>2017-02-28T08:44:15Z</time>
      </trkpt>
      <trkpt lat="43.31813" lon="-0.49704">
        <ele>234.22</ele>
        <time>2017-02-28T08:44:26Z</time>
      </trkpt>
      <trkpt lat="43.31798" lon="-0.49706">
        <ele>232.78</ele>
        <time>2017-02-28T08:44:38Z</time>
      </trkpt>
      <trkpt lat="43.31796" lon="-0.49706">
        <ele>233.26</ele>
        <time>2017-02-28T08:44:40Z</time>
      </trkpt>
      <trkpt lat="43.31794" lon="-0.49707">
        <ele>233.74</ele>
        <time>2017-02-28T08:44:41Z</time>
      </trkpt>
      <trkpt lat="43.31787" lon="-0.49709">
        <ele>234.7</ele>
        <time>2017-02-28T08:44:50Z</time>
      </trkpt>
      <trkpt lat="43.31777" lon="-0.49714">
        <ele>237.1</ele>
        <time>2017-02-28T08:44:58Z</time>
      </trkpt>
      <trkpt lat="43.31776" lon="-0.49715">
        <ele>237.58</ele>
        <time>2017-02-28T08:44:59Z</time>
      </trkpt>
      <trkpt lat="43.31774" lon="-0.49716">
        <ele>237.1</ele>
        <time>2017-02-28T08:45:00Z</time>
      </trkpt>
      <trkpt lat="43.31772" lon="-0.49717">
        <ele>237.1</ele>
        <time>2017-02-28T08:45:01Z</time>
      </trkpt>
      <trkpt lat="43.3177" lon="-0.49717">
        <ele>237.1</ele>
        <time>2017-02-28T08:45:02Z</time>
      </trkpt>
      <trkpt lat="43.31769" lon="-0.49718">
        <ele>237.58</ele>
        <time>2017-02-28T08:45:03Z</time>
      </trkpt>
      <trkpt lat="43.3176" lon="-0.49721">
        <ele>241.91</ele>
        <time>2017-02-28T08:45:12Z</time>
      </trkpt>
      <trkpt lat="43.31742" lon="-0.49733">
        <ele>246.72</ele>
        <time>2017-02-28T08:45:23Z</time>
      </trkpt>
      <trkpt lat="43.31732" lon="-0.49738">
        <ele>247.2</ele>
        <time>2017-02-28T08:45:28Z</time>
      </trkpt>
      <trkpt lat="43.31726" lon="-0.49747">
        <ele>247.68</ele>
        <time>2017-02-28T08:45:36Z</time>
      </trkpt>
      <trkpt lat="43.31738" lon="-0.49774">
        <ele>245.27</ele>
        <time>2017-02-28T08:45:44Z</time>
      </trkpt>
      <trkpt lat="43.31743" lon="-0.49784">
        <ele>243.83</ele>
        <time>2017-02-28T08:45:46Z</time>
      </trkpt>
      <trkpt lat="43.31743" lon="-0.49788">
        <ele>243.35</ele>
        <time>2017-02-28T08:45:47Z</time>
      </trkpt>
      <trkpt lat="43.31743" lon="-0.49792">
        <ele>242.39</ele>
        <time>2017-02-28T08:45:48Z</time>
      </trkpt>
      <trkpt lat="43.31743" lon="-0.49795">
        <ele>241.91</ele>
        <time>2017-02-28T08:45:49Z</time>
      </trkpt>
      <trkpt lat="43.31738" lon="-0.49815">
        <ele>240.47</ele>
        <time>2017-02-28T08:46:02Z</time>
      </trkpt>
      <trkpt lat="43.3173" lon="-0.49835">
        <ele>241.91</ele>
        <time>2017-02-28T08:46:18Z</time>
      </trkpt>
      <trkpt lat="43.31724" lon="-0.49853">
        <ele>245.75</ele>
        <time>2017-02-28T08:46:32Z</time>
      </trkpt>
      <trkpt lat="43.31719" lon="-0.49875">
        <ele>246.23</ele>
        <time>2017-02-28T08:46:47Z</time>
      </trkpt>
      <trkpt lat="43.31717" lon="-0.49887">
        <ele>247.2</ele>
        <time>2017-02-28T08:46:54Z</time>
      </trkpt>
      <trkpt lat="43.31713" lon="-0.4991">
        <ele>250.56</ele>
        <time>2017-02-28T08:47:08Z</time>
      </trkpt>
      <trkpt lat="43.31707" lon="-0.49934">
        <ele>253.93</ele>
        <time>2017-02-28T08:47:24Z</time>
      </trkpt>
      <trkpt lat="43.31706" lon="-0.49939">
        <ele>253.44</ele>
        <time>2017-02-28T08:47:27Z</time>
      </trkpt>
      <trkpt lat="43.31706" lon="-0.49941">
        <ele>250.56</ele>
        <time>2017-02-28T08:47:43Z</time>
      </trkpt>
      <trkpt lat="43.31706" lon="-0.49941">
        <ele>247.68</ele>
        <time>2017-02-28T08:48:06Z</time>
      </trkpt>
      <trkpt lat="43.31708" lon="-0.49942">
        <ele>247.68</ele>
        <time>2017-02-28T08:48:09Z</time>
      </trkpt>
      <trkpt lat="43.3171" lon="-0.49944">
        <ele>248.16</ele>
        <time>2017-02-28T08:48:11Z</time>
      </trkpt>
      <trkpt lat="43.3175" lon="-0.49973">
        <ele>245.75</ele>
        <time>2017-02-28T08:48:22Z</time>
      </trkpt>
      <trkpt lat="43.31755" lon="-0.49976">
        <ele>245.27</ele>
        <time>2017-02-28T08:48:23Z</time>
      </trkpt>
      <trkpt lat="43.31768" lon="-0.49985">
        <ele>242.87</ele>
        <time>2017-02-28T08:48:26Z</time>
      </trkpt>
      <trkpt lat="43.31773" lon="-0.49991">
        <ele>241.91</ele>
        <time>2017-02-28T08:48:28Z</time>
      </trkpt>
      <trkpt lat="43.31774" lon="-0.49994">
        <ele>241.43</ele>
        <time>2017-02-28T08:48:29Z</time>
      </trkpt>
      <trkpt lat="43.31773" lon="-0.49997">
        <ele>240.95</ele>
        <time>2017-02-28T08:48:30Z</time>
      </trkpt>
      <trkpt lat="43.31771" lon="-0.5">
        <ele>240.47</ele>
        <time>2017-02-28T08:48:31Z</time>
      </trkpt>
      <trkpt lat="43.31769" lon="-0.50002">
        <ele>239.99</ele>
        <time>2017-02-28T08:48:32Z</time>
      </trkpt>
      <trkpt lat="43.31768" lon="-0.50004">
        <ele>239.51</ele>
        <time>2017-02-28T08:48:33Z</time>
      </trkpt>
      <trkpt lat="43.31767" lon="-0.50005">
        <ele>239.51</ele>
        <time>2017-02-28T08:48:34Z</time>
      </trkpt>
      <trkpt lat="43.31766" lon="-0.50007">
        <ele>238.54</ele>
        <time>2017-02-28T08:48:35Z</time>
      </trkpt>
      <trkpt lat="43.31765" lon="-0.50009">
        <ele>238.06</ele>
        <time>2017-02-28T08:48:36Z</time>
      </trkpt>
      <trkpt lat="43.31765" lon="-0.50011">
        <ele>237.58</ele>
        <time>2017-02-28T08:48:37Z</time>
      </trkpt>
      <trkpt lat="43.31764" lon="-0.50021">
        <ele>236.62</ele>
        <time>2017-02-28T08:48:40Z</time>
      </trkpt>
      <trkpt lat="43.31763" lon="-0.50029">
        <ele>232.78</ele>
        <time>2017-02-28T08:48:54Z</time>
      </trkpt>
      <trkpt lat="43.31764" lon="-0.50032">
        <ele>233.26</ele>
        <time>2017-02-28T08:49:11Z</time>
      </trkpt>
      <trkpt lat="43.31774" lon="-0.50058">
        <ele>234.22</ele>
        <time>2017-02-28T08:49:17Z</time>
      </trkpt>
      <trkpt lat="43.31788" lon="-0.50078">
        <ele>233.26</ele>
        <time>2017-02-28T08:49:22Z</time>
      </trkpt>
      <trkpt lat="43.31791" lon="-0.50082">
        <ele>232.78</ele>
        <time>2017-02-28T08:49:23Z</time>
      </trkpt>
      <trkpt lat="43.31802" lon="-0.50093">
        <ele>231.33</ele>
        <time>2017-02-28T08:49:26Z</time>
      </trkpt>
      <trkpt lat="43.31806" lon="-0.50095">
        <ele>230.85</ele>
        <time>2017-02-28T08:49:27Z</time>
      </trkpt>
      <trkpt lat="43.3181" lon="-0.50099">
        <ele>229.89</ele>
        <time>2017-02-28T08:49:28Z</time>
      </trkpt>
      <trkpt lat="43.31828" lon="-0.50118">
        <ele>227.01</ele>
        <time>2017-02-28T08:49:32Z</time>
      </trkpt>
      <trkpt lat="43.31832" lon="-0.50124">
        <ele>226.05</ele>
        <time>2017-02-28T08:49:33Z</time>
      </trkpt>
      <trkpt lat="43.31844" lon="-0.5014">
        <ele>221.72</ele>
        <time>2017-02-28T08:49:37Z</time>
      </trkpt>
      <trkpt lat="43.31846" lon="-0.50141">
        <ele>220.76</ele>
        <time>2017-02-28T08:49:38Z</time>
      </trkpt>
      <trkpt lat="43.31848" lon="-0.50141">
        <ele>220.28</ele>
        <time>2017-02-28T08:49:39Z</time>
      </trkpt>
      <trkpt lat="43.3185" lon="-0.50143">
        <ele>219.32</ele>
        <time>2017-02-28T08:49:40Z</time>
      </trkpt>
      <trkpt lat="43.31853" lon="-0.50145">
        <ele>218.84</ele>
        <time>2017-02-28T08:49:41Z</time>
      </trkpt>
      <trkpt lat="43.31855" lon="-0.50147">
        <ele>218.84</ele>
        <time>2017-02-28T08:49:42Z</time>
      </trkpt>
      <trkpt lat="43.31859" lon="-0.5015">
        <ele>218.36</ele>
        <time>2017-02-28T08:49:43Z</time>
      </trkpt>
      <trkpt lat="43.31866" lon="-0.50156">
        <ele>217.88</ele>
        <time>2017-02-28T08:49:45Z</time>
      </trkpt>
      <trkpt lat="43.31874" lon="-0.50164">
        <ele>217.4</ele>
        <time>2017-02-28T08:49:47Z</time>
      </trkpt>
      <trkpt lat="43.31878" lon="-0.5017">
        <ele>217.4</ele>
        <time>2017-02-28T08:49:48Z</time>
      </trkpt>
      <trkpt lat="43.31901" lon="-0.50211">
        <ele>215.95</ele>
        <time>2017-02-28T08:49:56Z</time>
      </trkpt>
      <trkpt lat="43.31905" lon="-0.50215">
        <ele>215.95</ele>
        <time>2017-02-28T08:49:57Z</time>
      </trkpt>
      <trkpt lat="43.31908" lon="-0.50218">
        <ele>215.47</ele>
        <time>2017-02-28T08:49:58Z</time>
      </trkpt>
      <trkpt lat="43.31912" lon="-0.50221">
        <ele>215.47</ele>
        <time>2017-02-28T08:49:59Z</time>
      </trkpt>
      <trkpt lat="43.31916" lon="-0.50224">
        <ele>214.99</ele>
        <time>2017-02-28T08:50:00Z</time>
      </trkpt>
      <trkpt lat="43.31918" lon="-0.50226">
        <ele>214.51</ele>
        <time>2017-02-28T08:50:01Z</time>
      </trkpt>
      <trkpt lat="43.3192" lon="-0.50228">
        <ele>214.51</ele>
        <time>2017-02-28T08:50:02Z</time>
      </trkpt>
      <trkpt lat="43.31924" lon="-0.50234">
        <ele>215.95</ele>
        <time>2017-02-28T08:50:17Z</time>
      </trkpt>
      <trkpt lat="43.31932" lon="-0.5026">
        <ele>217.4</ele>
        <time>2017-02-28T08:50:35Z</time>
      </trkpt>
      <trkpt lat="43.31933" lon="-0.50266">
        <ele>216.91</ele>
        <time>2017-02-28T08:50:36Z</time>
      </trkpt>
      <trkpt lat="43.31935" lon="-0.50272">
        <ele>216.91</ele>
        <time>2017-02-28T08:50:37Z</time>
      </trkpt>
      <trkpt lat="43.31941" lon="-0.50301">
        <ele>215.47</ele>
        <time>2017-02-28T08:50:41Z</time>
      </trkpt>
      <trkpt lat="43.31942" lon="-0.50309">
        <ele>215.47</ele>
        <time>2017-02-28T08:50:42Z</time>
      </trkpt>
      <trkpt lat="43.3196" lon="-0.50395">
        <ele>210.19</ele>
        <time>2017-02-28T08:50:51Z</time>
      </trkpt>
      <trkpt lat="43.31962" lon="-0.50403">
        <ele>209.7</ele>
        <time>2017-02-28T08:50:52Z</time>
      </trkpt>
      <trkpt lat="43.31962" lon="-0.50418">
        <ele>208.74</ele>
        <time>2017-02-28T08:50:54Z</time>
      </trkpt>
      <trkpt lat="43.3196" lon="-0.50424">
        <ele>208.74</ele>
        <time>2017-02-28T08:50:55Z</time>
      </trkpt>
      <trkpt lat="43.31957" lon="-0.50428">
        <ele>208.26</ele>
        <time>2017-02-28T08:50:56Z</time>
      </trkpt>
      <trkpt lat="43.31953" lon="-0.50431">
        <ele>207.78</ele>
        <time>2017-02-28T08:50:57Z</time>
      </trkpt>
      <trkpt lat="43.31949" lon="-0.50432">
        <ele>207.3</ele>
        <time>2017-02-28T08:50:58Z</time>
      </trkpt>
      <trkpt lat="43.31943" lon="-0.50431">
        <ele>206.82</ele>
        <time>2017-02-28T08:50:59Z</time>
      </trkpt>
      <trkpt lat="43.31938" lon="-0.50428">
        <ele>206.34</ele>
        <time>2017-02-28T08:51:00Z</time>
      </trkpt>
      <trkpt lat="43.31932" lon="-0.50424">
        <ele>205.38</ele>
        <time>2017-02-28T08:51:01Z</time>
      </trkpt>
      <trkpt lat="43.31926" lon="-0.50418">
        <ele>204.42</ele>
        <time>2017-02-28T08:51:02Z</time>
      </trkpt>
      <trkpt lat="43.3192" lon="-0.50413">
        <ele>203.94</ele>
        <time>2017-02-28T08:51:03Z</time>
      </trkpt>
      <trkpt lat="43.31914" lon="-0.50408">
        <ele>202.98</ele>
        <time>2017-02-28T08:51:04Z</time>
      </trkpt>
      <trkpt lat="43.31837" lon="-0.50349">
        <ele>192.4</ele>
        <time>2017-02-28T08:51:15Z</time>
      </trkpt>
      <trkpt lat="43.31831" lon="-0.50345">
        <ele>191.44</ele>
        <time>2017-02-28T08:51:16Z</time>
      </trkpt>
      <trkpt lat="43.31826" lon="-0.50342">
        <ele>190.48</ele>
        <time>2017-02-28T08:51:17Z</time>
      </trkpt>
      <trkpt lat="43.31817" lon="-0.50338">
        <ele>188.56</ele>
        <time>2017-02-28T08:51:19Z</time>
      </trkpt>
      <trkpt lat="43.31813" lon="-0.50337">
        <ele>187.59</ele>
        <time>2017-02-28T08:51:20Z</time>
      </trkpt>
      <trkpt lat="43.31797" lon="-0.50334">
        <ele>183.27</ele>
        <time>2017-02-28T08:51:25Z</time>
      </trkpt>
      <trkpt lat="43.31795" lon="-0.50338">
        <ele>181.35</ele>
        <time>2017-02-28T08:51:26Z</time>
      </trkpt>
      <trkpt lat="43.31794" lon="-0.50341">
        <ele>180.87</ele>
        <time>2017-02-28T08:51:27Z</time>
      </trkpt>
      <trkpt lat="43.31794" lon="-0.50346">
        <ele>179.42</ele>
        <time>2017-02-28T08:51:28Z</time>
      </trkpt>
      <trkpt lat="43.31795" lon="-0.50351">
        <ele>178.46</ele>
        <time>2017-02-28T08:51:29Z</time>
      </trkpt>
      <trkpt lat="43.31798" lon="-0.50357">
        <ele>177.5</ele>
        <time>2017-02-28T08:51:30Z</time>
      </trkpt>
      <trkpt lat="43.31802" lon="-0.50363">
        <ele>176.54</ele>
        <time>2017-02-28T08:51:31Z</time>
      </trkpt>
      <trkpt lat="43.31809" lon="-0.50376">
        <ele>174.62</ele>
        <time>2017-02-28T08:51:33Z</time>
      </trkpt>
      <trkpt lat="43.31825" lon="-0.50447">
        <ele>168.85</ele>
        <time>2017-02-28T08:51:40Z</time>
      </trkpt>
      <trkpt lat="43.31827" lon="-0.50457">
        <ele>168.37</ele>
        <time>2017-02-28T08:51:41Z</time>
      </trkpt>
      <trkpt lat="43.31829" lon="-0.50467">
        <ele>167.41</ele>
        <time>2017-02-28T08:51:42Z</time>
      </trkpt>
      <trkpt lat="43.31838" lon="-0.50511">
        <ele>162.6</ele>
        <time>2017-02-28T08:51:50Z</time>
      </trkpt>
      <trkpt lat="43.31837" lon="-0.50568">
        <ele>156.35</ele>
        <time>2017-02-28T08:52:02Z</time>
      </trkpt>
      <trkpt lat="43.31837" lon="-0.50577">
        <ele>155.39</ele>
        <time>2017-02-28T08:52:05Z</time>
      </trkpt>
      <trkpt lat="43.31836" lon="-0.5058">
        <ele>155.39</ele>
        <time>2017-02-28T08:52:06Z</time>
      </trkpt>
      <trkpt lat="43.31835" lon="-0.50582">
        <ele>154.91</ele>
        <time>2017-02-28T08:52:07Z</time>
      </trkpt>
      <trkpt lat="43.31833" lon="-0.50585">
        <ele>154.91</ele>
        <time>2017-02-28T08:52:08Z</time>
      </trkpt>
      <trkpt lat="43.31833" lon="-0.50588">
        <ele>154.43</ele>
        <time>2017-02-28T08:52:09Z</time>
      </trkpt>
      <trkpt lat="43.31832" lon="-0.50591">
        <ele>153.95</ele>
        <time>2017-02-28T08:52:10Z</time>
      </trkpt>
      <trkpt lat="43.31831" lon="-0.50594">
        <ele>153.47</ele>
        <time>2017-02-28T08:52:11Z</time>
      </trkpt>
      <trkpt lat="43.31831" lon="-0.50597">
        <ele>153.47</ele>
        <time>2017-02-28T08:52:12Z</time>
      </trkpt>
      <trkpt lat="43.31831" lon="-0.50611">
        <ele>152.99</ele>
        <time>2017-02-28T08:52:17Z</time>
      </trkpt>
      <trkpt lat="43.31831" lon="-0.50613">
        <ele>152.51</ele>
        <time>2017-02-28T08:52:18Z</time>
      </trkpt>
      <trkpt lat="43.3183" lon="-0.50645">
        <ele>154.43</ele>
        <time>2017-02-28T08:52:29Z</time>
      </trkpt>
      <trkpt lat="43.3183" lon="-0.50653">
        <ele>154.91</ele>
        <time>2017-02-28T08:52:33Z</time>
      </trkpt>
      <trkpt lat="43.31831" lon="-0.50656">
        <ele>155.87</ele>
        <time>2017-02-28T08:52:34Z</time>
      </trkpt>
      <trkpt lat="43.31832" lon="-0.50676">
        <ele>158.27</ele>
        <time>2017-02-28T08:52:43Z</time>
      </trkpt>
      <trkpt lat="43.31831" lon="-0.50678">
        <ele>158.75</ele>
        <time>2017-02-28T08:52:44Z</time>
      </trkpt>
      <trkpt lat="43.31829" lon="-0.50688">
        <ele>159.72</ele>
        <time>2017-02-28T08:52:49Z</time>
      </trkpt>
      <trkpt lat="43.31822" lon="-0.5071">
        <ele>160.68</ele>
        <time>2017-02-28T08:53:04Z</time>
      </trkpt>
      <trkpt lat="43.31819" lon="-0.50721">
        <ele>159.72</ele>
        <time>2017-02-28T08:53:15Z</time>
      </trkpt>
      <trkpt lat="43.31819" lon="-0.50729">
        <ele>157.31</ele>
        <time>2017-02-28T08:53:26Z</time>
      </trkpt>
      <trkpt lat="43.31816" lon="-0.50738">
        <ele>155.39</ele>
        <time>2017-02-28T08:53:39Z</time>
      </trkpt>
      <trkpt lat="43.31814" lon="-0.50743">
        <ele>154.43</ele>
        <time>2017-02-28T08:53:55Z</time>
      </trkpt>
      <trkpt lat="43.31812" lon="-0.50757">
        <ele>155.87</ele>
        <time>2017-02-28T08:54:07Z</time>
      </trkpt>
      <trkpt lat="43.31811" lon="-0.50758">
        <ele>155.87</ele>
        <time>2017-02-28T08:54:08Z</time>
      </trkpt>
      <trkpt lat="43.3181" lon="-0.50759">
        <ele>156.35</ele>
        <time>2017-02-28T08:54:09Z</time>
      </trkpt>
      <trkpt lat="43.31806" lon="-0.50776">
        <ele>157.31</ele>
        <time>2017-02-28T08:54:21Z</time>
      </trkpt>
      <trkpt lat="43.31806" lon="-0.50781">
        <ele>157.79</ele>
        <time>2017-02-28T08:54:24Z</time>
      </trkpt>
      <trkpt lat="43.31804" lon="-0.50805">
        <ele>159.72</ele>
        <time>2017-02-28T08:54:37Z</time>
      </trkpt>
      <trkpt lat="43.31807" lon="-0.50835">
        <ele>165</ele>
        <time>2017-02-28T08:54:49Z</time>
      </trkpt>
      <trkpt lat="43.31818" lon="-0.50875">
        <ele>170.29</ele>
        <time>2017-02-28T08:55:02Z</time>
      </trkpt>
      <trkpt lat="43.31821" lon="-0.50881">
        <ele>169.81</ele>
        <time>2017-02-28T08:55:04Z</time>
      </trkpt>
      <trkpt lat="43.31823" lon="-0.50883">
        <ele>169.81</ele>
        <time>2017-02-28T08:55:05Z</time>
      </trkpt>
      <trkpt lat="43.31825" lon="-0.50886">
        <ele>169.33</ele>
        <time>2017-02-28T08:55:06Z</time>
      </trkpt>
      <trkpt lat="43.31827" lon="-0.5089">
        <ele>169.33</ele>
        <time>2017-02-28T08:55:07Z</time>
      </trkpt>
      <trkpt lat="43.31829" lon="-0.50893">
        <ele>169.33</ele>
        <time>2017-02-28T08:55:08Z</time>
      </trkpt>
      <trkpt lat="43.31831" lon="-0.50897">
        <ele>168.85</ele>
        <time>2017-02-28T08:55:09Z</time>
      </trkpt>
      <trkpt lat="43.31838" lon="-0.50919">
        <ele>168.37</ele>
        <time>2017-02-28T08:55:19Z</time>
      </trkpt>
      <trkpt lat="43.31839" lon="-0.50929">
        <ele>168.85</ele>
        <time>2017-02-28T08:55:34Z</time>
      </trkpt>
      <trkpt lat="43.31849" lon="-0.50941">
        <ele>173.17</ele>
        <time>2017-02-28T08:55:46Z</time>
      </trkpt>
      <trkpt lat="43.31865" lon="-0.50967">
        <ele>174.14</ele>
        <time>2017-02-28T08:55:55Z</time>
      </trkpt>
      <trkpt lat="43.31885" lon="-0.50991">
        <ele>175.1</ele>
        <time>2017-02-28T08:56:02Z</time>
      </trkpt>
      <trkpt lat="43.31891" lon="-0.51001">
        <ele>175.1</ele>
        <time>2017-02-28T08:56:04Z</time>
      </trkpt>
      <trkpt lat="43.31894" lon="-0.51007">
        <ele>175.1</ele>
        <time>2017-02-28T08:56:05Z</time>
      </trkpt>
      <trkpt lat="43.31897" lon="-0.51014">
        <ele>175.1</ele>
        <time>2017-02-28T08:56:06Z</time>
      </trkpt>
      <trkpt lat="43.31899" lon="-0.51022">
        <ele>174.62</ele>
        <time>2017-02-28T08:56:07Z</time>
      </trkpt>
      <trkpt lat="43.31901" lon="-0.5103">
        <ele>174.62</ele>
        <time>2017-02-28T08:56:08Z</time>
      </trkpt>
      <trkpt lat="43.31908" lon="-0.51069">
        <ele>173.17</ele>
        <time>2017-02-28T08:56:13Z</time>
      </trkpt>
      <trkpt lat="43.31907" lon="-0.51077">
        <ele>172.69</ele>
        <time>2017-02-28T08:56:14Z</time>
      </trkpt>
      <trkpt lat="43.31906" lon="-0.51095">
        <ele>171.73</ele>
        <time>2017-02-28T08:56:16Z</time>
      </trkpt>
      <trkpt lat="43.31906" lon="-0.51105">
        <ele>171.25</ele>
        <time>2017-02-28T08:56:17Z</time>
      </trkpt>
      <trkpt lat="43.31907" lon="-0.51114">
        <ele>170.77</ele>
        <time>2017-02-28T08:56:18Z</time>
      </trkpt>
      <trkpt lat="43.31907" lon="-0.51125">
        <ele>170.29</ele>
        <time>2017-02-28T08:56:19Z</time>
      </trkpt>
      <trkpt lat="43.31907" lon="-0.51134">
        <ele>170.29</ele>
        <time>2017-02-28T08:56:20Z</time>
      </trkpt>
      <trkpt lat="43.31907" lon="-0.51144">
        <ele>169.81</ele>
        <time>2017-02-28T08:56:21Z</time>
      </trkpt>
      <trkpt lat="43.3191" lon="-0.51194">
        <ele>168.85</ele>
        <time>2017-02-28T08:56:27Z</time>
      </trkpt>
      <trkpt lat="43.3191" lon="-0.51201">
        <ele>168.37</ele>
        <time>2017-02-28T08:56:28Z</time>
      </trkpt>
      <trkpt lat="43.31911" lon="-0.51209">
        <ele>167.89</ele>
        <time>2017-02-28T08:56:29Z</time>
      </trkpt>
      <trkpt lat="43.31914" lon="-0.51259">
        <ele>169.81</ele>
        <time>2017-02-28T08:56:39Z</time>
      </trkpt>
      <trkpt lat="43.31915" lon="-0.51266">
        <ele>170.29</ele>
        <time>2017-02-28T08:56:40Z</time>
      </trkpt>
      <trkpt lat="43.31914" lon="-0.51273">
        <ele>171.25</ele>
        <time>2017-02-28T08:56:41Z</time>
      </trkpt>
      <trkpt lat="43.31914" lon="-0.51282">
        <ele>171.25</ele>
        <time>2017-02-28T08:56:42Z</time>
      </trkpt>
      <trkpt lat="43.31909" lon="-0.51321">
        <ele>170.77</ele>
        <time>2017-02-28T08:56:47Z</time>
      </trkpt>
      <trkpt lat="43.31909" lon="-0.51334">
        <ele>170.29</ele>
        <time>2017-02-28T08:56:49Z</time>
      </trkpt>
      <trkpt lat="43.3191" lon="-0.51341">
        <ele>170.29</ele>
        <time>2017-02-28T08:56:50Z</time>
      </trkpt>
      <trkpt lat="43.31911" lon="-0.51346">
        <ele>169.81</ele>
        <time>2017-02-28T08:56:51Z</time>
      </trkpt>
      <trkpt lat="43.31917" lon="-0.5137">
        <ele>166.93</ele>
        <time>2017-02-28T08:56:55Z</time>
      </trkpt>
      <trkpt lat="43.31923" lon="-0.51384">
        <ele>165.48</ele>
        <time>2017-02-28T08:56:57Z</time>
      </trkpt>
      <trkpt lat="43.31929" lon="-0.51399">
        <ele>163.56</ele>
        <time>2017-02-28T08:56:59Z</time>
      </trkpt>
      <trkpt lat="43.31934" lon="-0.51405">
        <ele>163.08</ele>
        <time>2017-02-28T08:57:00Z</time>
      </trkpt>
      <trkpt lat="43.31939" lon="-0.51409">
        <ele>162.12</ele>
        <time>2017-02-28T08:57:01Z</time>
      </trkpt>
      <trkpt lat="43.31945" lon="-0.51413">
        <ele>161.16</ele>
        <time>2017-02-28T08:57:02Z</time>
      </trkpt>
      <trkpt lat="43.31951" lon="-0.51416">
        <ele>160.68</ele>
        <time>2017-02-28T08:57:03Z</time>
      </trkpt>
      <trkpt lat="43.31956" lon="-0.51418">
        <ele>159.72</ele>
        <time>2017-02-28T08:57:04Z</time>
      </trkpt>
      <trkpt lat="43.31961" lon="-0.51419">
        <ele>159.24</ele>
        <time>2017-02-28T08:57:05Z</time>
      </trkpt>
      <trkpt lat="43.31966" lon="-0.51422">
        <ele>158.27</ele>
        <time>2017-02-28T08:57:06Z</time>
      </trkpt>
      <trkpt lat="43.31971" lon="-0.51424">
        <ele>157.79</ele>
        <time>2017-02-28T08:57:07Z</time>
      </trkpt>
      <trkpt lat="43.31975" lon="-0.51427">
        <ele>157.31</ele>
        <time>2017-02-28T08:57:08Z</time>
      </trkpt>
      <trkpt lat="43.31978" lon="-0.51431">
        <ele>156.83</ele>
        <time>2017-02-28T08:57:09Z</time>
      </trkpt>
      <trkpt lat="43.31982" lon="-0.51434">
        <ele>156.83</ele>
        <time>2017-02-28T08:57:10Z</time>
      </trkpt>
      <trkpt lat="43.32013" lon="-0.51448">
        <ele>154.43</ele>
        <time>2017-02-28T08:57:21Z</time>
      </trkpt>
      <trkpt lat="43.32043" lon="-0.51464">
        <ele>152.51</ele>
        <time>2017-02-28T08:57:38Z</time>
      </trkpt>
      <trkpt lat="43.32073" lon="-0.51476">
        <ele>151.54</ele>
        <time>2017-02-28T08:57:59Z</time>
      </trkpt>
      <trkpt lat="43.32101" lon="-0.51481">
        <ele>152.03</ele>
        <time>2017-02-28T08:58:17Z</time>
      </trkpt>
      <trkpt lat="43.32125" lon="-0.51487">
        <ele>152.51</ele>
        <time>2017-02-28T08:58:33Z</time>
      </trkpt>
      <trkpt lat="43.32144" lon="-0.51489">
        <ele>155.39</ele>
        <time>2017-02-28T08:58:48Z</time>
      </trkpt>
      <trkpt lat="43.32145" lon="-0.5149">
        <ele>155.39</ele>
        <time>2017-02-28T08:58:49Z</time>
      </trkpt>
      <trkpt lat="43.32146" lon="-0.5149">
        <ele>155.39</ele>
        <time>2017-02-28T08:58:50Z</time>
      </trkpt>
      <trkpt lat="43.32148" lon="-0.5149">
        <ele>155.39</ele>
        <time>2017-02-28T08:58:51Z</time>
      </trkpt>
      <trkpt lat="43.32164" lon="-0.51487">
        <ele>154.91</ele>
        <time>2017-02-28T08:59:07Z</time>
      </trkpt>
      <trkpt lat="43.32177" lon="-0.51481">
        <ele>155.87</ele>
        <time>2017-02-28T08:59:20Z</time>
      </trkpt>
      <trkpt lat="43.32193" lon="-0.51473">
        <ele>154.91</ele>
        <time>2017-02-28T08:59:36Z</time>
      </trkpt>
      <trkpt lat="43.32203" lon="-0.51462">
        <ele>156.35</ele>
        <time>2017-02-28T08:59:47Z</time>
      </trkpt>
      <trkpt lat="43.32205" lon="-0.5146">
        <ele>156.35</ele>
        <time>2017-02-28T08:59:49Z</time>
      </trkpt>
      <trkpt lat="43.32214" lon="-0.51444">
        <ele>160.68</ele>
        <time>2017-02-28T09:00:03Z</time>
      </trkpt>
      <trkpt lat="43.32223" lon="-0.51426">
        <ele>167.41</ele>
        <time>2017-02-28T09:00:20Z</time>
      </trkpt>
      <trkpt lat="43.3223" lon="-0.51406">
        <ele>171.73</ele>
        <time>2017-02-28T09:00:35Z</time>
      </trkpt>
      <trkpt lat="43.32244" lon="-0.51396">
        <ele>175.1</ele>
        <time>2017-02-28T09:00:50Z</time>
      </trkpt>
      <trkpt lat="43.32248" lon="-0.51394">
        <ele>175.58</ele>
        <time>2017-02-28T09:00:55Z</time>
      </trkpt>
      <trkpt lat="43.32257" lon="-0.51392">
        <ele>177.5</ele>
        <time>2017-02-28T09:01:04Z</time>
      </trkpt>
      <trkpt lat="43.32258" lon="-0.51391">
        <ele>177.5</ele>
        <time>2017-02-28T09:01:05Z</time>
      </trkpt>
      <trkpt lat="43.32267" lon="-0.51386">
        <ele>178.94</ele>
        <time>2017-02-28T09:01:14Z</time>
      </trkpt>
      <trkpt lat="43.32279" lon="-0.5138">
        <ele>179.9</ele>
        <time>2017-02-28T09:01:28Z</time>
      </trkpt>
      <trkpt lat="43.32293" lon="-0.51371">
        <ele>187.11</ele>
        <time>2017-02-28T09:01:43Z</time>
      </trkpt>
      <trkpt lat="43.32299" lon="-0.51366">
        <ele>190.48</ele>
        <time>2017-02-28T09:01:50Z</time>
      </trkpt>
      <trkpt lat="43.323" lon="-0.51365">
        <ele>190.96</ele>
        <time>2017-02-28T09:01:51Z</time>
      </trkpt>
      <trkpt lat="43.32303" lon="-0.51362">
        <ele>191.44</ele>
        <time>2017-02-28T09:01:55Z</time>
      </trkpt>
      <trkpt lat="43.32316" lon="-0.5135">
        <ele>194.8</ele>
        <time>2017-02-28T09:02:10Z</time>
      </trkpt>
      <trkpt lat="43.32322" lon="-0.51345">
        <ele>196.25</ele>
        <time>2017-02-28T09:02:17Z</time>
      </trkpt>
      <trkpt lat="43.32334" lon="-0.51334">
        <ele>197.21</ele>
        <time>2017-02-28T09:02:31Z</time>
      </trkpt>
      <trkpt lat="43.32335" lon="-0.51333">
        <ele>197.69</ele>
        <time>2017-02-28T09:02:32Z</time>
      </trkpt>
      <trkpt lat="43.32349" lon="-0.51329">
        <ele>200.57</ele>
        <time>2017-02-28T09:02:46Z</time>
      </trkpt>
      <trkpt lat="43.32363" lon="-0.51325">
        <ele>202.98</ele>
        <time>2017-02-28T09:03:02Z</time>
      </trkpt>
      <trkpt lat="43.32373" lon="-0.51321">
        <ele>204.42</ele>
        <time>2017-02-28T09:03:15Z</time>
      </trkpt>
      <trkpt lat="43.32387" lon="-0.5132">
        <ele>204.9</ele>
        <time>2017-02-28T09:03:28Z</time>
      </trkpt>
      <trkpt lat="43.32401" lon="-0.51326">
        <ele>207.78</ele>
        <time>2017-02-28T09:03:44Z</time>
      </trkpt>
      <trkpt lat="43.32413" lon="-0.51323">
        <ele>208.26</ele>
        <time>2017-02-28T09:03:58Z</time>
      </trkpt>
      <trkpt lat="43.32417" lon="-0.51319">
        <ele>208.26</ele>
        <time>2017-02-28T09:04:03Z</time>
      </trkpt>
      <trkpt lat="43.32423" lon="-0.51301">
        <ele>209.7</ele>
        <time>2017-02-28T09:04:17Z</time>
      </trkpt>
      <trkpt lat="43.32423" lon="-0.51282">
        <ele>214.99</ele>
        <time>2017-02-28T09:04:32Z</time>
      </trkpt>
      <trkpt lat="43.32422" lon="-0.51264">
        <ele>218.36</ele>
        <time>2017-02-28T09:04:45Z</time>
      </trkpt>
      <trkpt lat="43.32421" lon="-0.51263">
        <ele>218.84</ele>
        <time>2017-02-28T09:04:46Z</time>
      </trkpt>
      <trkpt lat="43.3242" lon="-0.51245">
        <ele>222.68</ele>
        <time>2017-02-28T09:04:59Z</time>
      </trkpt>
      <trkpt lat="43.32416" lon="-0.51226">
        <ele>227.97</ele>
        <time>2017-02-28T09:05:12Z</time>
      </trkpt>
      <trkpt lat="43.32414" lon="-0.51203">
        <ele>229.89</ele>
        <time>2017-02-28T09:05:27Z</time>
      </trkpt>
      <trkpt lat="43.32411" lon="-0.51172">
        <ele>229.41</ele>
        <time>2017-02-28T09:05:43Z</time>
      </trkpt>
      <trkpt lat="43.32408" lon="-0.51145">
        <ele>234.22</ele>
        <time>2017-02-28T09:06:00Z</time>
      </trkpt>
      <trkpt lat="43.32409" lon="-0.51122">
        <ele>239.99</ele>
        <time>2017-02-28T09:06:16Z</time>
      </trkpt>
      <trkpt lat="43.3241" lon="-0.51099">
        <ele>242.87</ele>
        <time>2017-02-28T09:06:32Z</time>
      </trkpt>
      <trkpt lat="43.32417" lon="-0.51077">
        <ele>247.2</ele>
        <time>2017-02-28T09:06:49Z</time>
      </trkpt>
      <trkpt lat="43.32425" lon="-0.51055">
        <ele>249.12</ele>
        <time>2017-02-28T09:07:05Z</time>
      </trkpt>
      <trkpt lat="43.32434" lon="-0.51034">
        <ele>253.44</ele>
        <time>2017-02-28T09:07:23Z</time>
      </trkpt>
      <trkpt lat="43.32442" lon="-0.51015">
        <ele>259.21</ele>
        <time>2017-02-28T09:07:38Z</time>
      </trkpt>
      <trkpt lat="43.32452" lon="-0.50992">
        <ele>259.69</ele>
        <time>2017-02-28T09:07:53Z</time>
      </trkpt>
      <trkpt lat="43.32455" lon="-0.50986">
        <ele>261.14</ele>
        <time>2017-02-28T09:07:58Z</time>
      </trkpt>
      <trkpt lat="43.32456" lon="-0.50985">
        <ele>261.62</ele>
        <time>2017-02-28T09:07:59Z</time>
      </trkpt>
      <trkpt lat="43.32459" lon="-0.50978">
        <ele>263.06</ele>
        <time>2017-02-28T09:08:04Z</time>
      </trkpt>
      <trkpt lat="43.32461" lon="-0.50978">
        <ele>263.54</ele>
        <time>2017-02-28T09:08:05Z</time>
      </trkpt>
      <trkpt lat="43.32462" lon="-0.50977">
        <ele>264.02</ele>
        <time>2017-02-28T09:08:06Z</time>
      </trkpt>
      <trkpt lat="43.32475" lon="-0.50989">
        <ele>266.9</ele>
        <time>2017-02-28T09:08:21Z</time>
      </trkpt>
      <trkpt lat="43.3248" lon="-0.50998">
        <ele>267.38</ele>
        <time>2017-02-28T09:08:28Z</time>
      </trkpt>
      <trkpt lat="43.3248" lon="-0.51">
        <ele>267.38</ele>
        <time>2017-02-28T09:08:29Z</time>
      </trkpt>
      <trkpt lat="43.32488" lon="-0.51035">
        <ele>267.86</ele>
        <time>2017-02-28T09:08:46Z</time>
      </trkpt>
      <trkpt lat="43.32498" lon="-0.51082">
        <ele>265.94</ele>
        <time>2017-02-28T09:09:00Z</time>
      </trkpt>
      <trkpt lat="43.32529" lon="-0.51132">
        <ele>264.98</ele>
        <time>2017-02-28T09:09:15Z</time>
      </trkpt>
      <trkpt lat="43.32567" lon="-0.51178">
        <ele>263.54</ele>
        <time>2017-02-28T09:09:31Z</time>
      </trkpt>
      <trkpt lat="43.32616" lon="-0.51227">
        <ele>262.1</ele>
        <time>2017-02-28T09:09:46Z</time>
      </trkpt>
      <trkpt lat="43.3268" lon="-0.51282">
        <ele>256.33</ele>
        <time>2017-02-28T09:10:00Z</time>
      </trkpt>
      <trkpt lat="43.32751" lon="-0.51336">
        <ele>252.48</ele>
        <time>2017-02-28T09:10:11Z</time>
      </trkpt>
      <trkpt lat="43.3278" lon="-0.51367">
        <ele>252</ele>
        <time>2017-02-28T09:10:17Z</time>
      </trkpt>
      <trkpt lat="43.32783" lon="-0.51371">
        <ele>252</ele>
        <time>2017-02-28T09:10:18Z</time>
      </trkpt>
      <trkpt lat="43.32787" lon="-0.51376">
        <ele>252</ele>
        <time>2017-02-28T09:10:19Z</time>
      </trkpt>
      <trkpt lat="43.32791" lon="-0.5138">
        <ele>252</ele>
        <time>2017-02-28T09:10:20Z</time>
      </trkpt>
      <trkpt lat="43.32794" lon="-0.51384">
        <ele>252</ele>
        <time>2017-02-28T09:10:21Z</time>
      </trkpt>
      <trkpt lat="43.3282" lon="-0.51412">
        <ele>253.93</ele>
        <time>2017-02-28T09:10:33Z</time>
      </trkpt>
      <trkpt lat="43.32857" lon="-0.51424">
        <ele>255.37</ele>
        <time>2017-02-28T09:10:45Z</time>
      </trkpt>
      <trkpt lat="43.32906" lon="-0.5145">
        <ele>255.37</ele>
        <time>2017-02-28T09:11:00Z</time>
      </trkpt>
      <trkpt lat="43.32951" lon="-0.515">
        <ele>250.08</ele>
        <time>2017-02-28T09:11:11Z</time>
      </trkpt>
      <trkpt lat="43.33019" lon="-0.51586">
        <ele>243.83</ele>
        <time>2017-02-28T09:11:23Z</time>
      </trkpt>
      <trkpt lat="43.33037" lon="-0.51606">
        <ele>242.87</ele>
        <time>2017-02-28T09:11:26Z</time>
      </trkpt>
      <trkpt lat="43.33055" lon="-0.51621">
        <ele>242.39</ele>
        <time>2017-02-28T09:11:29Z</time>
      </trkpt>
      <trkpt lat="43.33101" lon="-0.51679">
        <ele>236.14</ele>
        <time>2017-02-28T09:11:40Z</time>
      </trkpt>
      <trkpt lat="43.33106" lon="-0.51684">
        <ele>235.18</ele>
        <time>2017-02-28T09:11:41Z</time>
      </trkpt>
      <trkpt lat="43.3311" lon="-0.51688">
        <ele>234.7</ele>
        <time>2017-02-28T09:11:42Z</time>
      </trkpt>
      <trkpt lat="43.33134" lon="-0.5171">
        <ele>228.45</ele>
        <time>2017-02-28T09:11:49Z</time>
      </trkpt>
      <trkpt lat="43.33134" lon="-0.51714">
        <ele>227.97</ele>
        <time>2017-02-28T09:11:50Z</time>
      </trkpt>
      <trkpt lat="43.33136" lon="-0.51719">
        <ele>227.01</ele>
        <time>2017-02-28T09:11:51Z</time>
      </trkpt>
      <trkpt lat="43.3314" lon="-0.51724">
        <ele>226.53</ele>
        <time>2017-02-28T09:11:52Z</time>
      </trkpt>
      <trkpt lat="43.33142" lon="-0.51726">
        <ele>226.53</ele>
        <time>2017-02-28T09:11:53Z</time>
      </trkpt>
      <trkpt lat="43.33144" lon="-0.51727">
        <ele>226.53</ele>
        <time>2017-02-28T09:11:54Z</time>
      </trkpt>
      <trkpt lat="43.33145" lon="-0.51728">
        <ele>226.53</ele>
        <time>2017-02-28T09:11:55Z</time>
      </trkpt>
      <trkpt lat="43.33152" lon="-0.51732">
        <ele>228.93</ele>
        <time>2017-02-28T09:12:07Z</time>
      </trkpt>
      <trkpt lat="43.33166" lon="-0.51742">
        <ele>235.18</ele>
        <time>2017-02-28T09:12:22Z</time>
      </trkpt>
      <trkpt lat="43.33175" lon="-0.51748">
        <ele>237.58</ele>
        <time>2017-02-28T09:12:35Z</time>
      </trkpt>
      <trkpt lat="43.33193" lon="-0.51761">
        <ele>239.51</ele>
        <time>2017-02-28T09:12:51Z</time>
      </trkpt>
      <trkpt lat="43.33211" lon="-0.51775">
        <ele>237.58</ele>
        <time>2017-02-28T09:13:06Z</time>
      </trkpt>
      <trkpt lat="43.3323" lon="-0.51803">
        <ele>237.1</ele>
        <time>2017-02-28T09:13:19Z</time>
      </trkpt>
      <trkpt lat="43.33237" lon="-0.51824">
        <ele>240.95</ele>
        <time>2017-02-28T09:13:30Z</time>
      </trkpt>
      <trkpt lat="43.33239" lon="-0.51827">
        <ele>242.87</ele>
        <time>2017-02-28T09:13:59Z</time>
      </trkpt>
      <trkpt lat="43.33239" lon="-0.51831">
        <ele>242.39</ele>
        <time>2017-02-28T09:14:19Z</time>
      </trkpt>
      <trkpt lat="43.33239" lon="-0.51828">
        <ele>243.35</ele>
        <time>2017-02-28T09:15:01Z</time>
      </trkpt>
      <trkpt lat="43.33237" lon="-0.51834">
        <ele>248.64</ele>
        <time>2017-02-28T09:15:42Z</time>
      </trkpt>
      <trkpt lat="43.33236" lon="-0.51829">
        <ele>250.56</ele>
        <time>2017-02-28T09:16:21Z</time>
      </trkpt>
      <trkpt lat="43.33238" lon="-0.5183">
        <ele>250.56</ele>
        <time>2017-02-28T09:17:00Z</time>
      </trkpt>
      <trkpt lat="43.33236" lon="-0.51836">
        <ele>251.52</ele>
        <time>2017-02-28T09:17:29Z</time>
      </trkpt>
      <trkpt lat="43.3324" lon="-0.51838">
        <ele>251.04</ele>
        <time>2017-02-28T09:17:35Z</time>
      </trkpt>
      <trkpt lat="43.33241" lon="-0.5184">
        <ele>251.04</ele>
        <time>2017-02-28T09:17:36Z</time>
      </trkpt>
      <trkpt lat="43.3325" lon="-0.51876">
        <ele>248.64</ele>
        <time>2017-02-28T09:17:48Z</time>
      </trkpt>
      <trkpt lat="43.33263" lon="-0.51919">
        <ele>244.79</ele>
        <time>2017-02-28T09:18:00Z</time>
      </trkpt>
      <trkpt lat="43.33273" lon="-0.51965">
        <ele>243.35</ele>
        <time>2017-02-28T09:18:11Z</time>
      </trkpt>
      <trkpt lat="43.33273" lon="-0.51975">
        <ele>244.31</ele>
        <time>2017-02-28T09:18:14Z</time>
      </trkpt>
      <trkpt lat="43.33274" lon="-0.51979">
        <ele>244.31</ele>
        <time>2017-02-28T09:18:15Z</time>
      </trkpt>
      <trkpt lat="43.33275" lon="-0.51984">
        <ele>244.31</ele>
        <time>2017-02-28T09:18:16Z</time>
      </trkpt>
      <trkpt lat="43.33276" lon="-0.51989">
        <ele>244.79</ele>
        <time>2017-02-28T09:18:17Z</time>
      </trkpt>
      <trkpt lat="43.33276" lon="-0.51994">
        <ele>244.79</ele>
        <time>2017-02-28T09:18:18Z</time>
      </trkpt>
      <trkpt lat="43.3328" lon="-0.52051">
        <ele>245.27</ele>
        <time>2017-02-28T09:18:32Z</time>
      </trkpt>
      <trkpt lat="43.33278" lon="-0.52059">
        <ele>244.79</ele>
        <time>2017-02-28T09:18:35Z</time>
      </trkpt>
      <trkpt lat="43.33278" lon="-0.52063">
        <ele>244.79</ele>
        <time>2017-02-28T09:18:36Z</time>
      </trkpt>
      <trkpt lat="43.33278" lon="-0.52066">
        <ele>244.79</ele>
        <time>2017-02-28T09:18:37Z</time>
      </trkpt>
      <trkpt lat="43.33273" lon="-0.52123">
        <ele>246.23</ele>
        <time>2017-02-28T09:18:53Z</time>
      </trkpt>
      <trkpt lat="43.3328" lon="-0.52174">
        <ele>245.27</ele>
        <time>2017-02-28T09:19:07Z</time>
      </trkpt>
      <trkpt lat="43.33286" lon="-0.52204">
        <ele>241.43</ele>
        <time>2017-02-28T09:19:13Z</time>
      </trkpt>
      <trkpt lat="43.33287" lon="-0.5221">
        <ele>240.95</ele>
        <time>2017-02-28T09:19:14Z</time>
      </trkpt>
      <trkpt lat="43.33289" lon="-0.52216">
        <ele>239.99</ele>
        <time>2017-02-28T09:19:15Z</time>
      </trkpt>
      <trkpt lat="43.33308" lon="-0.5227">
        <ele>235.66</ele>
        <time>2017-02-28T09:19:22Z</time>
      </trkpt>
      <trkpt lat="43.33354" lon="-0.52408">
        <ele>224.61</ele>
        <time>2017-02-28T09:19:34Z</time>
      </trkpt>
      <trkpt lat="43.33368" lon="-0.52444">
        <ele>223.16</ele>
        <time>2017-02-28T09:19:38Z</time>
      </trkpt>
      <trkpt lat="43.33379" lon="-0.52484">
        <ele>222.68</ele>
        <time>2017-02-28T09:19:47Z</time>
      </trkpt>
      <trkpt lat="43.33381" lon="-0.52497">
        <ele>222.2</ele>
        <time>2017-02-28T09:19:50Z</time>
      </trkpt>
      <trkpt lat="43.33383" lon="-0.52499">
        <ele>221.72</ele>
        <time>2017-02-28T09:19:51Z</time>
      </trkpt>
      <trkpt lat="43.33386" lon="-0.525">
        <ele>221.72</ele>
        <time>2017-02-28T09:19:52Z</time>
      </trkpt>
      <trkpt lat="43.33389" lon="-0.525">
        <ele>221.24</ele>
        <time>2017-02-28T09:19:53Z</time>
      </trkpt>
      <trkpt lat="43.33392" lon="-0.52499">
        <ele>220.28</ele>
        <time>2017-02-28T09:19:54Z</time>
      </trkpt>
      <trkpt lat="43.33395" lon="-0.52498">
        <ele>219.8</ele>
        <time>2017-02-28T09:19:55Z</time>
      </trkpt>
      <trkpt lat="43.33397" lon="-0.52496">
        <ele>218.84</ele>
        <time>2017-02-28T09:19:56Z</time>
      </trkpt>
      <trkpt lat="43.33398" lon="-0.52494">
        <ele>218.36</ele>
        <time>2017-02-28T09:19:57Z</time>
      </trkpt>
      <trkpt lat="43.334" lon="-0.52494">
        <ele>217.4</ele>
        <time>2017-02-28T09:19:58Z</time>
      </trkpt>
      <trkpt lat="43.33402" lon="-0.52496">
        <ele>216.91</ele>
        <time>2017-02-28T09:19:59Z</time>
      </trkpt>
      <trkpt lat="43.33404" lon="-0.52499">
        <ele>216.43</ele>
        <time>2017-02-28T09:20:00Z</time>
      </trkpt>
      <trkpt lat="43.33406" lon="-0.52502">
        <ele>215.95</ele>
        <time>2017-02-28T09:20:01Z</time>
      </trkpt>
      <trkpt lat="43.33411" lon="-0.52504">
        <ele>215.47</ele>
        <time>2017-02-28T09:20:02Z</time>
      </trkpt>
      <trkpt lat="43.33416" lon="-0.52506">
        <ele>214.99</ele>
        <time>2017-02-28T09:20:03Z</time>
      </trkpt>
      <trkpt lat="43.3343" lon="-0.5251">
        <ele>213.55</ele>
        <time>2017-02-28T09:20:05Z</time>
      </trkpt>
      <trkpt lat="43.33436" lon="-0.5251">
        <ele>212.59</ele>
        <time>2017-02-28T09:20:06Z</time>
      </trkpt>
      <trkpt lat="43.33442" lon="-0.52508">
        <ele>211.63</ele>
        <time>2017-02-28T09:20:07Z</time>
      </trkpt>
      <trkpt lat="43.33453" lon="-0.52504">
        <ele>210.19</ele>
        <time>2017-02-28T09:20:09Z</time>
      </trkpt>
      <trkpt lat="43.33458" lon="-0.52501">
        <ele>209.22</ele>
        <time>2017-02-28T09:20:10Z</time>
      </trkpt>
      <trkpt lat="43.33462" lon="-0.52497">
        <ele>208.74</ele>
        <time>2017-02-28T09:20:11Z</time>
      </trkpt>
      <trkpt lat="43.33469" lon="-0.52489">
        <ele>205.86</ele>
        <time>2017-02-28T09:20:14Z</time>
      </trkpt>
      <trkpt lat="43.33472" lon="-0.52488">
        <ele>204.9</ele>
        <time>2017-02-28T09:20:15Z</time>
      </trkpt>
      <trkpt lat="43.33476" lon="-0.52486">
        <ele>203.46</ele>
        <time>2017-02-28T09:20:17Z</time>
      </trkpt>
      <trkpt lat="43.33479" lon="-0.52486">
        <ele>202.49</ele>
        <time>2017-02-28T09:20:18Z</time>
      </trkpt>
      <trkpt lat="43.33483" lon="-0.52487">
        <ele>201.05</ele>
        <time>2017-02-28T09:20:19Z</time>
      </trkpt>
      <trkpt lat="43.33488" lon="-0.52487">
        <ele>200.09</ele>
        <time>2017-02-28T09:20:20Z</time>
      </trkpt>
      <trkpt lat="43.33493" lon="-0.52486">
        <ele>198.65</ele>
        <time>2017-02-28T09:20:21Z</time>
      </trkpt>
      <trkpt lat="43.33497" lon="-0.52484">
        <ele>197.21</ele>
        <time>2017-02-28T09:20:22Z</time>
      </trkpt>
      <trkpt lat="43.33501" lon="-0.52481">
        <ele>195.77</ele>
        <time>2017-02-28T09:20:23Z</time>
      </trkpt>
      <trkpt lat="43.33511" lon="-0.52476">
        <ele>192.4</ele>
        <time>2017-02-28T09:20:25Z</time>
      </trkpt>
      <trkpt lat="43.33516" lon="-0.52476">
        <ele>190.96</ele>
        <time>2017-02-28T09:20:26Z</time>
      </trkpt>
      <trkpt lat="43.33521" lon="-0.52476">
        <ele>189.52</ele>
        <time>2017-02-28T09:20:27Z</time>
      </trkpt>
      <trkpt lat="43.33524" lon="-0.52475">
        <ele>188.08</ele>
        <time>2017-02-28T09:20:28Z</time>
      </trkpt>
      <trkpt lat="43.33527" lon="-0.52475">
        <ele>187.11</ele>
        <time>2017-02-28T09:20:29Z</time>
      </trkpt>
      <trkpt lat="43.3353" lon="-0.52475">
        <ele>186.15</ele>
        <time>2017-02-28T09:20:30Z</time>
      </trkpt>
      <trkpt lat="43.33533" lon="-0.52478">
        <ele>185.19</ele>
        <time>2017-02-28T09:20:31Z</time>
      </trkpt>
      <trkpt lat="43.33535" lon="-0.52481">
        <ele>184.23</ele>
        <time>2017-02-28T09:20:32Z</time>
      </trkpt>
      <trkpt lat="43.33536" lon="-0.52485">
        <ele>183.75</ele>
        <time>2017-02-28T09:20:33Z</time>
      </trkpt>
      <trkpt lat="43.33538" lon="-0.52489">
        <ele>183.27</ele>
        <time>2017-02-28T09:20:34Z</time>
      </trkpt>
      <trkpt lat="43.33551" lon="-0.52553">
        <ele>186.15</ele>
        <time>2017-02-28T09:20:49Z</time>
      </trkpt>
      <trkpt lat="43.33551" lon="-0.52558">
        <ele>186.15</ele>
        <time>2017-02-28T09:20:50Z</time>
      </trkpt>
      <trkpt lat="43.33549" lon="-0.52564">
        <ele>186.15</ele>
        <time>2017-02-28T09:20:51Z</time>
      </trkpt>
      <trkpt lat="43.33526" lon="-0.5262">
        <ele>187.59</ele>
        <time>2017-02-28T09:21:03Z</time>
      </trkpt>
      <trkpt lat="43.33506" lon="-0.52658">
        <ele>188.08</ele>
        <time>2017-02-28T09:21:12Z</time>
      </trkpt>
      <trkpt lat="43.33505" lon="-0.5266">
        <ele>188.08</ele>
        <time>2017-02-28T09:21:13Z</time>
      </trkpt>
      <trkpt lat="43.33503" lon="-0.52662">
        <ele>187.59</ele>
        <time>2017-02-28T09:21:14Z</time>
      </trkpt>
      <trkpt lat="43.33501" lon="-0.52664">
        <ele>187.59</ele>
        <time>2017-02-28T09:21:15Z</time>
      </trkpt>
      <trkpt lat="43.33499" lon="-0.52665">
        <ele>187.59</ele>
        <time>2017-02-28T09:21:16Z</time>
      </trkpt>
      <trkpt lat="43.33496" lon="-0.52667">
        <ele>188.08</ele>
        <time>2017-02-28T09:21:17Z</time>
      </trkpt>
      <trkpt lat="43.33494" lon="-0.52667">
        <ele>188.08</ele>
        <time>2017-02-28T09:21:18Z</time>
      </trkpt>
      <trkpt lat="43.33493" lon="-0.52669">
        <ele>188.08</ele>
        <time>2017-02-28T09:21:19Z</time>
      </trkpt>
      <trkpt lat="43.33492" lon="-0.52671">
        <ele>188.56</ele>
        <time>2017-02-28T09:21:20Z</time>
      </trkpt>
      <trkpt lat="43.3349" lon="-0.52672">
        <ele>188.08</ele>
        <time>2017-02-28T09:21:21Z</time>
      </trkpt>
      <trkpt lat="43.33489" lon="-0.52673">
        <ele>188.08</ele>
        <time>2017-02-28T09:21:22Z</time>
      </trkpt>
      <trkpt lat="43.33487" lon="-0.52674">
        <ele>187.59</ele>
        <time>2017-02-28T09:21:23Z</time>
      </trkpt>
      <trkpt lat="43.33486" lon="-0.52676">
        <ele>187.59</ele>
        <time>2017-02-28T09:21:24Z</time>
      </trkpt>
      <trkpt lat="43.33483" lon="-0.52684">
        <ele>187.59</ele>
        <time>2017-02-28T09:21:27Z</time>
      </trkpt>
      <trkpt lat="43.33484" lon="-0.52694">
        <ele>187.59</ele>
        <time>2017-02-28T09:21:30Z</time>
      </trkpt>
      <trkpt lat="43.33483" lon="-0.52698">
        <ele>186.63</ele>
        <time>2017-02-28T09:21:31Z</time>
      </trkpt>
      <trkpt lat="43.33481" lon="-0.52702">
        <ele>185.67</ele>
        <time>2017-02-28T09:21:32Z</time>
      </trkpt>
      <trkpt lat="43.33479" lon="-0.52704">
        <ele>184.71</ele>
        <time>2017-02-28T09:21:33Z</time>
      </trkpt>
      <trkpt lat="43.33477" lon="-0.52706">
        <ele>183.75</ele>
        <time>2017-02-28T09:21:34Z</time>
      </trkpt>
      <trkpt lat="43.33476" lon="-0.52709">
        <ele>183.27</ele>
        <time>2017-02-28T09:21:35Z</time>
      </trkpt>
      <trkpt lat="43.33476" lon="-0.52712">
        <ele>182.31</ele>
        <time>2017-02-28T09:21:36Z</time>
      </trkpt>
      <trkpt lat="43.33477" lon="-0.52716">
        <ele>181.83</ele>
        <time>2017-02-28T09:21:37Z</time>
      </trkpt>
      <trkpt lat="43.33477" lon="-0.5272">
        <ele>180.87</ele>
        <time>2017-02-28T09:21:38Z</time>
      </trkpt>
      <trkpt lat="43.33477" lon="-0.52724">
        <ele>180.38</ele>
        <time>2017-02-28T09:21:39Z</time>
      </trkpt>
      <trkpt lat="43.33478" lon="-0.52749">
        <ele>174.62</ele>
        <time>2017-02-28T09:21:45Z</time>
      </trkpt>
      <trkpt lat="43.33462" lon="-0.52776">
        <ele>167.41</ele>
        <time>2017-02-28T09:21:52Z</time>
      </trkpt>
      <trkpt lat="43.33458" lon="-0.52784">
        <ele>162.12</ele>
        <time>2017-02-28T09:21:56Z</time>
      </trkpt>
      <trkpt lat="43.33462" lon="-0.52801">
        <ele>157.31</ele>
        <time>2017-02-28T09:22:01Z</time>
      </trkpt>
      <trkpt lat="43.33466" lon="-0.52809">
        <ele>154.91</ele>
        <time>2017-02-28T09:22:05Z</time>
      </trkpt>
      <trkpt lat="43.3348" lon="-0.52824">
        <ele>156.35</ele>
        <time>2017-02-28T09:22:14Z</time>
      </trkpt>
      <trkpt lat="43.33482" lon="-0.52828">
        <ele>156.35</ele>
        <time>2017-02-28T09:22:16Z</time>
      </trkpt>
      <trkpt lat="43.33483" lon="-0.52833">
        <ele>157.31</ele>
        <time>2017-02-28T09:22:18Z</time>
      </trkpt>
      <trkpt lat="43.33491" lon="-0.52856">
        <ele>157.79</ele>
        <time>2017-02-28T09:22:26Z</time>
      </trkpt>
      <trkpt lat="43.33499" lon="-0.52867">
        <ele>158.75</ele>
        <time>2017-02-28T09:22:37Z</time>
      </trkpt>
      <trkpt lat="43.33504" lon="-0.52875">
        <ele>158.75</ele>
        <time>2017-02-28T09:22:41Z</time>
      </trkpt>
      <trkpt lat="43.3351" lon="-0.52883">
        <ele>158.27</ele>
        <time>2017-02-28T09:22:46Z</time>
      </trkpt>
      <trkpt lat="43.33518" lon="-0.52903">
        <ele>157.31</ele>
        <time>2017-02-28T09:22:52Z</time>
      </trkpt>
      <trkpt lat="43.33536" lon="-0.52914">
        <ele>155.39</ele>
        <time>2017-02-28T09:23:04Z</time>
      </trkpt>
      <trkpt lat="43.33547" lon="-0.52911">
        <ele>152.03</ele>
        <time>2017-02-28T09:23:13Z</time>
      </trkpt>
      <trkpt lat="43.33552" lon="-0.52913">
        <ele>150.1</ele>
        <time>2017-02-28T09:23:17Z</time>
      </trkpt>
      <trkpt lat="43.33556" lon="-0.52917">
        <ele>150.58</ele>
        <time>2017-02-28T09:23:20Z</time>
      </trkpt>
      <trkpt lat="43.33561" lon="-0.52943">
        <ele>150.1</ele>
        <time>2017-02-28T09:23:31Z</time>
      </trkpt>
      <trkpt lat="43.33572" lon="-0.52962">
        <ele>150.58</ele>
        <time>2017-02-28T09:23:36Z</time>
      </trkpt>
      <trkpt lat="43.33578" lon="-0.53">
        <ele>148.18</ele>
        <time>2017-02-28T09:23:45Z</time>
      </trkpt>
      <trkpt lat="43.3358" lon="-0.53004">
        <ele>147.22</ele>
        <time>2017-02-28T09:23:46Z</time>
      </trkpt>
      <trkpt lat="43.33585" lon="-0.53012">
        <ele>146.26</ele>
        <time>2017-02-28T09:23:48Z</time>
      </trkpt>
      <trkpt lat="43.33576" lon="-0.53043">
        <ele>141.93</ele>
        <time>2017-02-28T09:23:59Z</time>
      </trkpt>
      <trkpt lat="43.33573" lon="-0.53047">
        <ele>141.45</ele>
        <time>2017-02-28T09:24:01Z</time>
      </trkpt>
      <trkpt lat="43.33552" lon="-0.53084">
        <ele>134.24</ele>
        <time>2017-02-28T09:24:13Z</time>
      </trkpt>
      <trkpt lat="43.33537" lon="-0.531">
        <ele>133.76</ele>
        <time>2017-02-28T09:24:21Z</time>
      </trkpt>
      <trkpt lat="43.3353" lon="-0.53109">
        <ele>134.24</ele>
        <time>2017-02-28T09:24:25Z</time>
      </trkpt>
      <trkpt lat="43.33518" lon="-0.53123">
        <ele>134.72</ele>
        <time>2017-02-28T09:24:31Z</time>
      </trkpt>
      <trkpt lat="43.33507" lon="-0.5314">
        <ele>136.16</ele>
        <time>2017-02-28T09:24:38Z</time>
      </trkpt>
      <trkpt lat="43.33491" lon="-0.5316">
        <ele>136.64</ele>
        <time>2017-02-28T09:24:47Z</time>
      </trkpt>
      <trkpt lat="43.33481" lon="-0.53179">
        <ele>136.16</ele>
        <time>2017-02-28T09:24:56Z</time>
      </trkpt>
      <trkpt lat="43.33481" lon="-0.53186">
        <ele>135.68</ele>
        <time>2017-02-28T09:24:58Z</time>
      </trkpt>
      <trkpt lat="43.3348" lon="-0.53209">
        <ele>135.2</ele>
        <time>2017-02-28T09:25:04Z</time>
      </trkpt>
      <trkpt lat="43.33478" lon="-0.53212">
        <ele>134.72</ele>
        <time>2017-02-28T09:25:05Z</time>
      </trkpt>
      <trkpt lat="43.33476" lon="-0.53215">
        <ele>134.72</ele>
        <time>2017-02-28T09:25:06Z</time>
      </trkpt>
      <trkpt lat="43.33462" lon="-0.53236">
        <ele>133.28</ele>
        <time>2017-02-28T09:25:12Z</time>
      </trkpt>
      <trkpt lat="43.33463" lon="-0.5324">
        <ele>133.28</ele>
        <time>2017-02-28T09:25:13Z</time>
      </trkpt>
      <trkpt lat="43.33465" lon="-0.53242">
        <ele>133.76</ele>
        <time>2017-02-28T09:25:14Z</time>
      </trkpt>
      <trkpt lat="43.33472" lon="-0.53245">
        <ele>136.16</ele>
        <time>2017-02-28T09:25:18Z</time>
      </trkpt>
      <trkpt lat="43.33473" lon="-0.53244">
        <ele>137.13</ele>
        <time>2017-02-28T09:25:19Z</time>
      </trkpt>
      <trkpt lat="43.33492" lon="-0.5323">
        <ele>138.09</ele>
        <time>2017-02-28T09:25:32Z</time>
      </trkpt>
      <trkpt lat="43.3351" lon="-0.53231">
        <ele>143.85</ele>
        <time>2017-02-28T09:25:45Z</time>
      </trkpt>
      <trkpt lat="43.3353" lon="-0.53234">
        <ele>146.26</ele>
        <time>2017-02-28T09:25:59Z</time>
      </trkpt>
      <trkpt lat="43.33539" lon="-0.53233">
        <ele>147.7</ele>
        <time>2017-02-28T09:26:06Z</time>
      </trkpt>
      <trkpt lat="43.33558" lon="-0.53235">
        <ele>150.58</ele>
        <time>2017-02-28T09:26:20Z</time>
      </trkpt>
      <trkpt lat="43.33565" lon="-0.53237">
        <ele>152.03</ele>
        <time>2017-02-28T09:26:26Z</time>
      </trkpt>
      <trkpt lat="43.3357" lon="-0.53237">
        <ele>151.54</ele>
        <time>2017-02-28T09:26:30Z</time>
      </trkpt>
      <trkpt lat="43.33571" lon="-0.53238">
        <ele>151.54</ele>
        <time>2017-02-28T09:26:31Z</time>
      </trkpt>
      <trkpt lat="43.33572" lon="-0.53238">
        <ele>152.03</ele>
        <time>2017-02-28T09:26:32Z</time>
      </trkpt>
      <trkpt lat="43.33589" lon="-0.53242">
        <ele>155.87</ele>
        <time>2017-02-28T09:26:45Z</time>
      </trkpt>
      <trkpt lat="43.33595" lon="-0.5324">
        <ele>156.35</ele>
        <time>2017-02-28T09:26:51Z</time>
      </trkpt>
      <trkpt lat="43.33611" lon="-0.53244">
        <ele>159.72</ele>
        <time>2017-02-28T09:27:06Z</time>
      </trkpt>
      <trkpt lat="43.33628" lon="-0.53249">
        <ele>160.68</ele>
        <time>2017-02-28T09:27:20Z</time>
      </trkpt>
      <trkpt lat="43.33629" lon="-0.53249">
        <ele>161.16</ele>
        <time>2017-02-28T09:27:21Z</time>
      </trkpt>
      <trkpt lat="43.33639" lon="-0.53253">
        <ele>162.6</ele>
        <time>2017-02-28T09:27:29Z</time>
      </trkpt>
      <trkpt lat="43.3364" lon="-0.53254">
        <ele>162.12</ele>
        <time>2017-02-28T09:27:30Z</time>
      </trkpt>
      <trkpt lat="43.33641" lon="-0.53254">
        <ele>162.6</ele>
        <time>2017-02-28T09:27:31Z</time>
      </trkpt>
      <trkpt lat="43.33643" lon="-0.53255">
        <ele>162.6</ele>
        <time>2017-02-28T09:27:32Z</time>
      </trkpt>
      <trkpt lat="43.33662" lon="-0.53272">
        <ele>164.04</ele>
        <time>2017-02-28T09:27:48Z</time>
      </trkpt>
      <trkpt lat="43.33684" lon="-0.53293">
        <ele>162.6</ele>
        <time>2017-02-28T09:28:05Z</time>
      </trkpt>
      <trkpt lat="43.33704" lon="-0.53312">
        <ele>160.68</ele>
        <time>2017-02-28T09:28:22Z</time>
      </trkpt>
      <trkpt lat="43.33724" lon="-0.53311">
        <ele>161.64</ele>
        <time>2017-02-28T09:28:37Z</time>
      </trkpt>
      <trkpt lat="43.3374" lon="-0.53307">
        <ele>166.45</ele>
        <time>2017-02-28T09:28:49Z</time>
      </trkpt>
      <trkpt lat="43.33741" lon="-0.53307">
        <ele>166.45</ele>
        <time>2017-02-28T09:28:50Z</time>
      </trkpt>
      <trkpt lat="43.33764" lon="-0.53306">
        <ele>168.85</ele>
        <time>2017-02-28T09:29:07Z</time>
      </trkpt>
      <trkpt lat="43.3378" lon="-0.53309">
        <ele>170.77</ele>
        <time>2017-02-28T09:29:21Z</time>
      </trkpt>
      <trkpt lat="43.33783" lon="-0.53308">
        <ele>171.25</ele>
        <time>2017-02-28T09:29:24Z</time>
      </trkpt>
      <trkpt lat="43.33807" lon="-0.5331">
        <ele>180.38</ele>
        <time>2017-02-28T09:29:40Z</time>
      </trkpt>
      <trkpt lat="43.33821" lon="-0.53308">
        <ele>183.27</ele>
        <time>2017-02-28T09:29:53Z</time>
      </trkpt>
      <trkpt lat="43.3384" lon="-0.53307">
        <ele>186.15</ele>
        <time>2017-02-28T09:30:08Z</time>
      </trkpt>
      <trkpt lat="43.33857" lon="-0.53307">
        <ele>188.56</ele>
        <time>2017-02-28T09:30:24Z</time>
      </trkpt>
      <trkpt lat="43.33878" lon="-0.53308">
        <ele>184.71</ele>
        <time>2017-02-28T09:30:39Z</time>
      </trkpt>
      <trkpt lat="43.33901" lon="-0.5331">
        <ele>184.71</ele>
        <time>2017-02-28T09:30:58Z</time>
      </trkpt>
      <trkpt lat="43.33915" lon="-0.53316">
        <ele>186.63</ele>
        <time>2017-02-28T09:31:10Z</time>
      </trkpt>
      <trkpt lat="43.33936" lon="-0.53319">
        <ele>184.71</ele>
        <time>2017-02-28T09:31:24Z</time>
      </trkpt>
      <trkpt lat="43.33952" lon="-0.53313">
        <ele>188.08</ele>
        <time>2017-02-28T09:31:38Z</time>
      </trkpt>
      <trkpt lat="43.33966" lon="-0.53306">
        <ele>191.44</ele>
        <time>2017-02-28T09:31:51Z</time>
      </trkpt>
      <trkpt lat="43.33985" lon="-0.53311">
        <ele>193.84</ele>
        <time>2017-02-28T09:32:05Z</time>
      </trkpt>
      <trkpt lat="43.34004" lon="-0.53313">
        <ele>195.28</ele>
        <time>2017-02-28T09:32:18Z</time>
      </trkpt>
      <trkpt lat="43.34005" lon="-0.53313">
        <ele>195.77</ele>
        <time>2017-02-28T09:32:19Z</time>
      </trkpt>
      <trkpt lat="43.34009" lon="-0.53313">
        <ele>197.69</ele>
        <time>2017-02-28T09:32:22Z</time>
      </trkpt>
      <trkpt lat="43.3401" lon="-0.53314">
        <ele>198.17</ele>
        <time>2017-02-28T09:32:23Z</time>
      </trkpt>
      <trkpt lat="43.34025" lon="-0.53313">
        <ele>200.09</ele>
        <time>2017-02-28T09:32:33Z</time>
      </trkpt>
      <trkpt lat="43.34026" lon="-0.53313">
        <ele>199.61</ele>
        <time>2017-02-28T09:32:34Z</time>
      </trkpt>
      <trkpt lat="43.34035" lon="-0.5331">
        <ele>198.65</ele>
        <time>2017-02-28T09:32:41Z</time>
      </trkpt>
      <trkpt lat="43.34045" lon="-0.53307">
        <ele>199.13</ele>
        <time>2017-02-28T09:32:49Z</time>
      </trkpt>
      <trkpt lat="43.34047" lon="-0.53306">
        <ele>199.61</ele>
        <time>2017-02-28T09:32:50Z</time>
      </trkpt>
      <trkpt lat="43.34048" lon="-0.53306">
        <ele>200.09</ele>
        <time>2017-02-28T09:32:51Z</time>
      </trkpt>
      <trkpt lat="43.34049" lon="-0.53305">
        <ele>200.57</ele>
        <time>2017-02-28T09:32:52Z</time>
      </trkpt>
      <trkpt lat="43.34051" lon="-0.53304">
        <ele>201.05</ele>
        <time>2017-02-28T09:32:53Z</time>
      </trkpt>
      <trkpt lat="43.34052" lon="-0.53302">
        <ele>201.53</ele>
        <time>2017-02-28T09:32:54Z</time>
      </trkpt>
      <trkpt lat="43.34053" lon="-0.53302">
        <ele>201.53</ele>
        <time>2017-02-28T09:32:55Z</time>
      </trkpt>
      <trkpt lat="43.34055" lon="-0.533">
        <ele>202.01</ele>
        <time>2017-02-28T09:32:56Z</time>
      </trkpt>
      <trkpt lat="43.34056" lon="-0.53299">
        <ele>202.49</ele>
        <time>2017-02-28T09:32:57Z</time>
      </trkpt>
      <trkpt lat="43.34057" lon="-0.53298">
        <ele>202.98</ele>
        <time>2017-02-28T09:32:58Z</time>
      </trkpt>
      <trkpt lat="43.34058" lon="-0.53297">
        <ele>203.46</ele>
        <time>2017-02-28T09:32:59Z</time>
      </trkpt>
      <trkpt lat="43.34068" lon="-0.53286">
        <ele>209.7</ele>
        <time>2017-02-28T09:33:10Z</time>
      </trkpt>
      <trkpt lat="43.34074" lon="-0.53281">
        <ele>211.63</ele>
        <time>2017-02-28T09:33:16Z</time>
      </trkpt>
      <trkpt lat="43.34075" lon="-0.53281">
        <ele>212.11</ele>
        <time>2017-02-28T09:33:17Z</time>
      </trkpt>
      <trkpt lat="43.34093" lon="-0.53266">
        <ele>218.84</ele>
        <time>2017-02-28T09:33:31Z</time>
      </trkpt>
      <trkpt lat="43.34108" lon="-0.53254">
        <ele>217.4</ele>
        <time>2017-02-28T09:33:46Z</time>
      </trkpt>
      <trkpt lat="43.34123" lon="-0.53242">
        <ele>218.84</ele>
        <time>2017-02-28T09:34:01Z</time>
      </trkpt>
      <trkpt lat="43.34124" lon="-0.5324">
        <ele>219.32</ele>
        <time>2017-02-28T09:34:02Z</time>
      </trkpt>
      <trkpt lat="43.34133" lon="-0.53217">
        <ele>219.32</ele>
        <time>2017-02-28T09:34:17Z</time>
      </trkpt>
      <trkpt lat="43.34143" lon="-0.53193">
        <ele>218.84</ele>
        <time>2017-02-28T09:34:33Z</time>
      </trkpt>
      <trkpt lat="43.34145" lon="-0.53189">
        <ele>220.28</ele>
        <time>2017-02-28T09:34:36Z</time>
      </trkpt>
      <trkpt lat="43.34145" lon="-0.53188">
        <ele>220.76</ele>
        <time>2017-02-28T09:34:37Z</time>
      </trkpt>
      <trkpt lat="43.34146" lon="-0.53186">
        <ele>221.24</ele>
        <time>2017-02-28T09:34:38Z</time>
      </trkpt>
      <trkpt lat="43.34155" lon="-0.5318">
        <ele>221.72</ele>
        <time>2017-02-28T09:34:47Z</time>
      </trkpt>
      <trkpt lat="43.34156" lon="-0.53178">
        <ele>222.2</ele>
        <time>2017-02-28T09:34:49Z</time>
      </trkpt>
      <trkpt lat="43.34159" lon="-0.5316">
        <ele>222.68</ele>
        <time>2017-02-28T09:35:02Z</time>
      </trkpt>
      <trkpt lat="43.34165" lon="-0.53136">
        <ele>220.28</ele>
        <time>2017-02-28T09:35:16Z</time>
      </trkpt>
      <trkpt lat="43.34167" lon="-0.5313">
        <ele>220.76</ele>
        <time>2017-02-28T09:35:21Z</time>
      </trkpt>
      <trkpt lat="43.34169" lon="-0.53124">
        <ele>221.72</ele>
        <time>2017-02-28T09:35:25Z</time>
      </trkpt>
      <trkpt lat="43.34169" lon="-0.53123">
        <ele>222.2</ele>
        <time>2017-02-28T09:35:26Z</time>
      </trkpt>
      <trkpt lat="43.34178" lon="-0.531">
        <ele>222.68</ele>
        <time>2017-02-28T09:35:42Z</time>
      </trkpt>
      <trkpt lat="43.3419" lon="-0.53082">
        <ele>228.45</ele>
        <time>2017-02-28T09:35:57Z</time>
      </trkpt>
      <trkpt lat="43.342" lon="-0.53068">
        <ele>232.3</ele>
        <time>2017-02-28T09:36:12Z</time>
      </trkpt>
      <trkpt lat="43.342" lon="-0.53066">
        <ele>232.3</ele>
        <time>2017-02-28T09:36:13Z</time>
      </trkpt>
      <trkpt lat="43.34209" lon="-0.53048">
        <ele>232.78</ele>
        <time>2017-02-28T09:36:27Z</time>
      </trkpt>
      <trkpt lat="43.34225" lon="-0.53032">
        <ele>231.81</ele>
        <time>2017-02-28T09:36:37Z</time>
      </trkpt>
      <trkpt lat="43.34229" lon="-0.53028">
        <ele>231.33</ele>
        <time>2017-02-28T09:36:38Z</time>
      </trkpt>
      <trkpt lat="43.34232" lon="-0.53024">
        <ele>230.85</ele>
        <time>2017-02-28T09:36:39Z</time>
      </trkpt>
      <trkpt lat="43.34252" lon="-0.53002">
        <ele>226.53</ele>
        <time>2017-02-28T09:36:48Z</time>
      </trkpt>
      <trkpt lat="43.34266" lon="-0.52982">
        <ele>226.53</ele>
        <time>2017-02-28T09:37:01Z</time>
      </trkpt>
      <trkpt lat="43.34275" lon="-0.52958">
        <ele>225.57</ele>
        <time>2017-02-28T09:37:15Z</time>
      </trkpt>
      <trkpt lat="43.34277" lon="-0.52953">
        <ele>226.05</ele>
        <time>2017-02-28T09:37:18Z</time>
      </trkpt>
      <trkpt lat="43.34285" lon="-0.52933">
        <ele>231.33</ele>
        <time>2017-02-28T09:37:31Z</time>
      </trkpt>
      <trkpt lat="43.34289" lon="-0.52928">
        <ele>233.26</ele>
        <time>2017-02-28T09:37:35Z</time>
      </trkpt>
      <trkpt lat="43.34308" lon="-0.52917">
        <ele>234.7</ele>
        <time>2017-02-28T09:37:49Z</time>
      </trkpt>
      <trkpt lat="43.34324" lon="-0.52898">
        <ele>238.06</ele>
        <time>2017-02-28T09:38:01Z</time>
      </trkpt>
      <trkpt lat="43.34329" lon="-0.52892">
        <ele>237.1</ele>
        <time>2017-02-28T09:38:05Z</time>
      </trkpt>
      <trkpt lat="43.34336" lon="-0.52887">
        <ele>237.58</ele>
        <time>2017-02-28T09:38:09Z</time>
      </trkpt>
      <trkpt lat="43.34344" lon="-0.52874">
        <ele>238.06</ele>
        <time>2017-02-28T09:38:16Z</time>
      </trkpt>
      <trkpt lat="43.34355" lon="-0.52863">
        <ele>237.1</ele>
        <time>2017-02-28T09:38:21Z</time>
      </trkpt>
      <trkpt lat="43.34363" lon="-0.52835">
        <ele>233.26</ele>
        <time>2017-02-28T09:38:28Z</time>
      </trkpt>
      <trkpt lat="43.34374" lon="-0.52816">
        <ele>230.37</ele>
        <time>2017-02-28T09:38:36Z</time>
      </trkpt>
      <trkpt lat="43.34381" lon="-0.52807">
        <ele>232.3</ele>
        <time>2017-02-28T09:38:50Z</time>
      </trkpt>
      <trkpt lat="43.34387" lon="-0.52802">
        <ele>237.58</ele>
        <time>2017-02-28T09:39:10Z</time>
      </trkpt>
      <trkpt lat="43.34411" lon="-0.52804">
        <ele>237.58</ele>
        <time>2017-02-28T09:39:21Z</time>
      </trkpt>
      <trkpt lat="43.34412" lon="-0.52806">
        <ele>237.58</ele>
        <time>2017-02-28T09:39:22Z</time>
      </trkpt>
      <trkpt lat="43.34413" lon="-0.52808">
        <ele>237.58</ele>
        <time>2017-02-28T09:39:23Z</time>
      </trkpt>
      <trkpt lat="43.34414" lon="-0.5281">
        <ele>237.58</ele>
        <time>2017-02-28T09:39:24Z</time>
      </trkpt>
      <trkpt lat="43.34415" lon="-0.52813">
        <ele>237.58</ele>
        <time>2017-02-28T09:39:25Z</time>
      </trkpt>
      <trkpt lat="43.34417" lon="-0.52815">
        <ele>237.58</ele>
        <time>2017-02-28T09:39:26Z</time>
      </trkpt>
      <trkpt lat="43.34418" lon="-0.52818">
        <ele>237.58</ele>
        <time>2017-02-28T09:39:27Z</time>
      </trkpt>
      <trkpt lat="43.34419" lon="-0.52821">
        <ele>238.06</ele>
        <time>2017-02-28T09:39:28Z</time>
      </trkpt>
      <trkpt lat="43.34419" lon="-0.52824">
        <ele>238.06</ele>
        <time>2017-02-28T09:39:29Z</time>
      </trkpt>
      <trkpt lat="43.3442" lon="-0.52826">
        <ele>238.54</ele>
        <time>2017-02-28T09:39:30Z</time>
      </trkpt>
      <trkpt lat="43.34421" lon="-0.5283">
        <ele>238.54</ele>
        <time>2017-02-28T09:39:31Z</time>
      </trkpt>
      <trkpt lat="43.34422" lon="-0.52834">
        <ele>238.54</ele>
        <time>2017-02-28T09:39:32Z</time>
      </trkpt>
      <trkpt lat="43.34423" lon="-0.52837">
        <ele>239.02</ele>
        <time>2017-02-28T09:39:33Z</time>
      </trkpt>
      <trkpt lat="43.34424" lon="-0.5284">
        <ele>239.02</ele>
        <time>2017-02-28T09:39:34Z</time>
      </trkpt>
      <trkpt lat="43.34425" lon="-0.52843">
        <ele>239.02</ele>
        <time>2017-02-28T09:39:35Z</time>
      </trkpt>
      <trkpt lat="43.34438" lon="-0.52881">
        <ele>240.47</ele>
        <time>2017-02-28T09:39:47Z</time>
      </trkpt>
      <trkpt lat="43.34451" lon="-0.52911">
        <ele>241.43</ele>
        <time>2017-02-28T09:40:01Z</time>
      </trkpt>
      <trkpt lat="43.34454" lon="-0.52918">
        <ele>240.95</ele>
        <time>2017-02-28T09:40:05Z</time>
      </trkpt>
      <trkpt lat="43.34455" lon="-0.52919">
        <ele>240.95</ele>
        <time>2017-02-28T09:40:06Z</time>
      </trkpt>
      <trkpt lat="43.34456" lon="-0.5292">
        <ele>240.95</ele>
        <time>2017-02-28T09:40:07Z</time>
      </trkpt>
      <trkpt lat="43.34457" lon="-0.52922">
        <ele>240.95</ele>
        <time>2017-02-28T09:40:08Z</time>
      </trkpt>
      <trkpt lat="43.34458" lon="-0.52924">
        <ele>240.95</ele>
        <time>2017-02-28T09:40:09Z</time>
      </trkpt>
      <trkpt lat="43.34459" lon="-0.52925">
        <ele>240.95</ele>
        <time>2017-02-28T09:40:10Z</time>
      </trkpt>
      <trkpt lat="43.34465" lon="-0.52934">
        <ele>242.39</ele>
        <time>2017-02-28T09:40:17Z</time>
      </trkpt>
      <trkpt lat="43.34466" lon="-0.52936">
        <ele>242.87</ele>
        <time>2017-02-28T09:40:18Z</time>
      </trkpt>
      <trkpt lat="43.34467" lon="-0.52937">
        <ele>242.87</ele>
        <time>2017-02-28T09:40:19Z</time>
      </trkpt>
      <trkpt lat="43.34469" lon="-0.52938">
        <ele>243.35</ele>
        <time>2017-02-28T09:40:20Z</time>
      </trkpt>
      <trkpt lat="43.3447" lon="-0.52939">
        <ele>243.35</ele>
        <time>2017-02-28T09:40:21Z</time>
      </trkpt>
      <trkpt lat="43.34485" lon="-0.52959">
        <ele>246.72</ele>
        <time>2017-02-28T09:40:37Z</time>
      </trkpt>
      <trkpt lat="43.34497" lon="-0.5298">
        <ele>248.64</ele>
        <time>2017-02-28T09:40:50Z</time>
      </trkpt>
      <trkpt lat="43.34498" lon="-0.52982">
        <ele>248.64</ele>
        <time>2017-02-28T09:40:51Z</time>
      </trkpt>
      <trkpt lat="43.34498" lon="-0.52984">
        <ele>249.12</ele>
        <time>2017-02-28T09:40:52Z</time>
      </trkpt>
      <trkpt lat="43.345" lon="-0.52986">
        <ele>249.12</ele>
        <time>2017-02-28T09:40:53Z</time>
      </trkpt>
      <trkpt lat="43.345" lon="-0.52987">
        <ele>249.6</ele>
        <time>2017-02-28T09:40:54Z</time>
      </trkpt>
      <trkpt lat="43.34501" lon="-0.52989">
        <ele>250.08</ele>
        <time>2017-02-28T09:40:55Z</time>
      </trkpt>
      <trkpt lat="43.34503" lon="-0.52991">
        <ele>250.08</ele>
        <time>2017-02-28T09:40:56Z</time>
      </trkpt>
      <trkpt lat="43.34514" lon="-0.53007">
        <ele>252.48</ele>
        <time>2017-02-28T09:41:08Z</time>
      </trkpt>
      <trkpt lat="43.34515" lon="-0.53009">
        <ele>252.48</ele>
        <time>2017-02-28T09:41:09Z</time>
      </trkpt>
      <trkpt lat="43.34517" lon="-0.5301">
        <ele>252.96</ele>
        <time>2017-02-28T09:41:10Z</time>
      </trkpt>
      <trkpt lat="43.34532" lon="-0.5304">
        <ele>253.44</ele>
        <time>2017-02-28T09:41:25Z</time>
      </trkpt>
      <trkpt lat="43.34544" lon="-0.53072">
        <ele>254.89</ele>
        <time>2017-02-28T09:41:32Z</time>
      </trkpt>
      <trkpt lat="43.34546" lon="-0.53078">
        <ele>254.89</ele>
        <time>2017-02-28T09:41:33Z</time>
      </trkpt>
      <trkpt lat="43.34547" lon="-0.53085">
        <ele>254.89</ele>
        <time>2017-02-28T09:41:34Z</time>
      </trkpt>
      <trkpt lat="43.34549" lon="-0.5311">
        <ele>254.41</ele>
        <time>2017-02-28T09:41:37Z</time>
      </trkpt>
      <trkpt lat="43.34557" lon="-0.53167">
        <ele>252</ele>
        <time>2017-02-28T09:41:43Z</time>
      </trkpt>
      <trkpt lat="43.34556" lon="-0.53177">
        <ele>251.04</ele>
        <time>2017-02-28T09:41:44Z</time>
      </trkpt>
      <trkpt lat="43.34556" lon="-0.53188">
        <ele>250.08</ele>
        <time>2017-02-28T09:41:45Z</time>
      </trkpt>
      <trkpt lat="43.34556" lon="-0.53201">
        <ele>249.12</ele>
        <time>2017-02-28T09:41:46Z</time>
      </trkpt>
      <trkpt lat="43.34557" lon="-0.53213">
        <ele>248.16</ele>
        <time>2017-02-28T09:41:47Z</time>
      </trkpt>
      <trkpt lat="43.3456" lon="-0.53237">
        <ele>246.72</ele>
        <time>2017-02-28T09:41:49Z</time>
      </trkpt>
      <trkpt lat="43.3457" lon="-0.53297">
        <ele>242.87</ele>
        <time>2017-02-28T09:41:55Z</time>
      </trkpt>
      <trkpt lat="43.34571" lon="-0.53306">
        <ele>242.87</ele>
        <time>2017-02-28T09:41:56Z</time>
      </trkpt>
      <trkpt lat="43.34573" lon="-0.53328">
        <ele>241.43</ele>
        <time>2017-02-28T09:41:59Z</time>
      </trkpt>
      <trkpt lat="43.34575" lon="-0.5334">
        <ele>240.47</ele>
        <time>2017-02-28T09:42:01Z</time>
      </trkpt>
      <trkpt lat="43.34575" lon="-0.53347">
        <ele>240.47</ele>
        <time>2017-02-28T09:42:02Z</time>
      </trkpt>
      <trkpt lat="43.3458" lon="-0.53381">
        <ele>238.06</ele>
        <time>2017-02-28T09:42:06Z</time>
      </trkpt>
      <trkpt lat="43.34581" lon="-0.5339">
        <ele>237.58</ele>
        <time>2017-02-28T09:42:07Z</time>
      </trkpt>
      <trkpt lat="43.34589" lon="-0.53488">
        <ele>231.81</ele>
        <time>2017-02-28T09:42:14Z</time>
      </trkpt>
      <trkpt lat="43.34589" lon="-0.53548">
        <ele>227.49</ele>
        <time>2017-02-28T09:42:18Z</time>
      </trkpt>
      <trkpt lat="43.34587" lon="-0.53562">
        <ele>226.53</ele>
        <time>2017-02-28T09:42:19Z</time>
      </trkpt>
      <trkpt lat="43.34571" lon="-0.5364">
        <ele>219.8</ele>
        <time>2017-02-28T09:42:27Z</time>
      </trkpt>
      <trkpt lat="43.3457" lon="-0.53647">
        <ele>218.84</ele>
        <time>2017-02-28T09:42:28Z</time>
      </trkpt>
      <trkpt lat="43.34568" lon="-0.53656">
        <ele>217.88</ele>
        <time>2017-02-28T09:42:29Z</time>
      </trkpt>
      <trkpt lat="43.34538" lon="-0.53752">
        <ele>211.63</ele>
        <time>2017-02-28T09:42:37Z</time>
      </trkpt>
      <trkpt lat="43.34512" lon="-0.53842">
        <ele>204.9</ele>
        <time>2017-02-28T09:42:44Z</time>
      </trkpt>
      <trkpt lat="43.34512" lon="-0.53852">
        <ele>204.42</ele>
        <time>2017-02-28T09:42:45Z</time>
      </trkpt>
      <trkpt lat="43.34512" lon="-0.53862">
        <ele>203.46</ele>
        <time>2017-02-28T09:42:46Z</time>
      </trkpt>
      <trkpt lat="43.34514" lon="-0.53871">
        <ele>202.98</ele>
        <time>2017-02-28T09:42:47Z</time>
      </trkpt>
      <trkpt lat="43.34516" lon="-0.5388">
        <ele>202.49</ele>
        <time>2017-02-28T09:42:48Z</time>
      </trkpt>
      <trkpt lat="43.34517" lon="-0.5389">
        <ele>201.53</ele>
        <time>2017-02-28T09:42:49Z</time>
      </trkpt>
      <trkpt lat="43.34519" lon="-0.53899">
        <ele>201.05</ele>
        <time>2017-02-28T09:42:50Z</time>
      </trkpt>
      <trkpt lat="43.34521" lon="-0.53908">
        <ele>200.09</ele>
        <time>2017-02-28T09:42:51Z</time>
      </trkpt>
      <trkpt lat="43.34528" lon="-0.53955">
        <ele>196.25</ele>
        <time>2017-02-28T09:42:55Z</time>
      </trkpt>
      <trkpt lat="43.34528" lon="-0.53978">
        <ele>193.84</ele>
        <time>2017-02-28T09:42:57Z</time>
      </trkpt>
      <trkpt lat="43.34521" lon="-0.54078">
        <ele>184.23</ele>
        <time>2017-02-28T09:43:07Z</time>
      </trkpt>
      <trkpt lat="43.34521" lon="-0.54085">
        <ele>182.79</ele>
        <time>2017-02-28T09:43:08Z</time>
      </trkpt>
      <trkpt lat="43.34522" lon="-0.54118">
        <ele>177.02</ele>
        <time>2017-02-28T09:43:13Z</time>
      </trkpt>
      <trkpt lat="43.34525" lon="-0.54121">
        <ele>176.54</ele>
        <time>2017-02-28T09:43:14Z</time>
      </trkpt>
      <trkpt lat="43.34529" lon="-0.54123">
        <ele>176.06</ele>
        <time>2017-02-28T09:43:15Z</time>
      </trkpt>
      <trkpt lat="43.34534" lon="-0.54125">
        <ele>175.1</ele>
        <time>2017-02-28T09:43:16Z</time>
      </trkpt>
      <trkpt lat="43.34539" lon="-0.54128">
        <ele>174.62</ele>
        <time>2017-02-28T09:43:17Z</time>
      </trkpt>
      <trkpt lat="43.34545" lon="-0.54133">
        <ele>173.66</ele>
        <time>2017-02-28T09:43:18Z</time>
      </trkpt>
      <trkpt lat="43.34552" lon="-0.54139">
        <ele>172.69</ele>
        <time>2017-02-28T09:43:19Z</time>
      </trkpt>
      <trkpt lat="43.34571" lon="-0.54157">
        <ele>170.77</ele>
        <time>2017-02-28T09:43:22Z</time>
      </trkpt>
      <trkpt lat="43.34575" lon="-0.54164">
        <ele>170.29</ele>
        <time>2017-02-28T09:43:23Z</time>
      </trkpt>
      <trkpt lat="43.34577" lon="-0.54169">
        <ele>169.81</ele>
        <time>2017-02-28T09:43:24Z</time>
      </trkpt>
      <trkpt lat="43.34577" lon="-0.54175">
        <ele>168.85</ele>
        <time>2017-02-28T09:43:25Z</time>
      </trkpt>
      <trkpt lat="43.34575" lon="-0.54179">
        <ele>168.37</ele>
        <time>2017-02-28T09:43:26Z</time>
      </trkpt>
      <trkpt lat="43.34572" lon="-0.54184">
        <ele>167.89</ele>
        <time>2017-02-28T09:43:27Z</time>
      </trkpt>
      <trkpt lat="43.34569" lon="-0.54188">
        <ele>167.41</ele>
        <time>2017-02-28T09:43:28Z</time>
      </trkpt>
      <trkpt lat="43.34565" lon="-0.54192">
        <ele>166.93</ele>
        <time>2017-02-28T09:43:29Z</time>
      </trkpt>
      <trkpt lat="43.34561" lon="-0.54199">
        <ele>166.45</ele>
        <time>2017-02-28T09:43:30Z</time>
      </trkpt>
      <trkpt lat="43.34558" lon="-0.54205">
        <ele>165.48</ele>
        <time>2017-02-28T09:43:31Z</time>
      </trkpt>
      <trkpt lat="43.34556" lon="-0.54213">
        <ele>165</ele>
        <time>2017-02-28T09:43:32Z</time>
      </trkpt>
      <trkpt lat="43.34556" lon="-0.54221">
        <ele>164.52</ele>
        <time>2017-02-28T09:43:33Z</time>
      </trkpt>
      <trkpt lat="43.34556" lon="-0.54229">
        <ele>164.04</ele>
        <time>2017-02-28T09:43:34Z</time>
      </trkpt>
      <trkpt lat="43.34558" lon="-0.54237">
        <ele>163.56</ele>
        <time>2017-02-28T09:43:35Z</time>
      </trkpt>
      <trkpt lat="43.34561" lon="-0.54244">
        <ele>163.08</ele>
        <time>2017-02-28T09:43:36Z</time>
      </trkpt>
      <trkpt lat="43.34567" lon="-0.54249">
        <ele>162.6</ele>
        <time>2017-02-28T09:43:37Z</time>
      </trkpt>
      <trkpt lat="43.34571" lon="-0.54252">
        <ele>162.12</ele>
        <time>2017-02-28T09:43:38Z</time>
      </trkpt>
      <trkpt lat="43.34578" lon="-0.54254">
        <ele>161.64</ele>
        <time>2017-02-28T09:43:39Z</time>
      </trkpt>
      <trkpt lat="43.34584" lon="-0.54255">
        <ele>161.16</ele>
        <time>2017-02-28T09:43:40Z</time>
      </trkpt>
      <trkpt lat="43.34591" lon="-0.54255">
        <ele>160.68</ele>
        <time>2017-02-28T09:43:41Z</time>
      </trkpt>
      <trkpt lat="43.34599" lon="-0.54253">
        <ele>160.2</ele>
        <time>2017-02-28T09:43:42Z</time>
      </trkpt>
      <trkpt lat="43.34607" lon="-0.5425">
        <ele>159.72</ele>
        <time>2017-02-28T09:43:43Z</time>
      </trkpt>
      <trkpt lat="43.34687" lon="-0.54215">
        <ele>153.95</ele>
        <time>2017-02-28T09:43:52Z</time>
      </trkpt>
      <trkpt lat="43.34699" lon="-0.54208">
        <ele>151.54</ele>
        <time>2017-02-28T09:43:54Z</time>
      </trkpt>
      <trkpt lat="43.34704" lon="-0.54209">
        <ele>150.58</ele>
        <time>2017-02-28T09:43:55Z</time>
      </trkpt>
      <trkpt lat="43.34707" lon="-0.54214">
        <ele>149.62</ele>
        <time>2017-02-28T09:43:56Z</time>
      </trkpt>
      <trkpt lat="43.34708" lon="-0.5422">
        <ele>148.66</ele>
        <time>2017-02-28T09:43:57Z</time>
      </trkpt>
      <trkpt lat="43.34708" lon="-0.54228">
        <ele>147.22</ele>
        <time>2017-02-28T09:43:58Z</time>
      </trkpt>
      <trkpt lat="43.34707" lon="-0.54236">
        <ele>146.26</ele>
        <time>2017-02-28T09:43:59Z</time>
      </trkpt>
      <trkpt lat="43.34705" lon="-0.54244">
        <ele>145.3</ele>
        <time>2017-02-28T09:44:00Z</time>
      </trkpt>
      <trkpt lat="43.34703" lon="-0.54252">
        <ele>144.34</ele>
        <time>2017-02-28T09:44:01Z</time>
      </trkpt>
      <trkpt lat="43.34699" lon="-0.54272">
        <ele>142.89</ele>
        <time>2017-02-28T09:44:03Z</time>
      </trkpt>
      <trkpt lat="43.34697" lon="-0.54283">
        <ele>141.93</ele>
        <time>2017-02-28T09:44:04Z</time>
      </trkpt>
      <trkpt lat="43.34683" lon="-0.54345">
        <ele>136.64</ele>
        <time>2017-02-28T09:44:09Z</time>
      </trkpt>
      <trkpt lat="43.34673" lon="-0.54371">
        <ele>133.76</ele>
        <time>2017-02-28T09:44:12Z</time>
      </trkpt>
      <trkpt lat="43.34672" lon="-0.5438">
        <ele>132.8</ele>
        <time>2017-02-28T09:44:13Z</time>
      </trkpt>
      <trkpt lat="43.34673" lon="-0.54387">
        <ele>131.84</ele>
        <time>2017-02-28T09:44:14Z</time>
      </trkpt>
      <trkpt lat="43.34675" lon="-0.54393">
        <ele>130.88</ele>
        <time>2017-02-28T09:44:15Z</time>
      </trkpt>
      <trkpt lat="43.34677" lon="-0.544">
        <ele>130.4</ele>
        <time>2017-02-28T09:44:16Z</time>
      </trkpt>
      <trkpt lat="43.34677" lon="-0.54408">
        <ele>130.4</ele>
        <time>2017-02-28T09:44:17Z</time>
      </trkpt>
      <trkpt lat="43.34677" lon="-0.54414">
        <ele>129.92</ele>
        <time>2017-02-28T09:44:18Z</time>
      </trkpt>
      <trkpt lat="43.34675" lon="-0.5442">
        <ele>129.43</ele>
        <time>2017-02-28T09:44:19Z</time>
      </trkpt>
      <trkpt lat="43.34674" lon="-0.54427">
        <ele>128.95</ele>
        <time>2017-02-28T09:44:20Z</time>
      </trkpt>
      <trkpt lat="43.34672" lon="-0.54433">
        <ele>127.99</ele>
        <time>2017-02-28T09:44:21Z</time>
      </trkpt>
      <trkpt lat="43.34671" lon="-0.54439">
        <ele>127.99</ele>
        <time>2017-02-28T09:44:22Z</time>
      </trkpt>
      <trkpt lat="43.3467" lon="-0.54446">
        <ele>127.51</ele>
        <time>2017-02-28T09:44:23Z</time>
      </trkpt>
      <trkpt lat="43.34669" lon="-0.54453">
        <ele>127.51</ele>
        <time>2017-02-28T09:44:24Z</time>
      </trkpt>
      <trkpt lat="43.34663" lon="-0.54516">
        <ele>126.55</ele>
        <time>2017-02-28T09:44:35Z</time>
      </trkpt>
      <trkpt lat="43.34663" lon="-0.54522">
        <ele>126.55</ele>
        <time>2017-02-28T09:44:36Z</time>
      </trkpt>
      <trkpt lat="43.34662" lon="-0.54528">
        <ele>126.55</ele>
        <time>2017-02-28T09:44:37Z</time>
      </trkpt>
      <trkpt lat="43.34662" lon="-0.54535">
        <ele>127.03</ele>
        <time>2017-02-28T09:44:38Z</time>
      </trkpt>
      <trkpt lat="43.34661" lon="-0.54541">
        <ele>127.03</ele>
        <time>2017-02-28T09:44:39Z</time>
      </trkpt>
      <trkpt lat="43.34661" lon="-0.54548">
        <ele>127.03</ele>
        <time>2017-02-28T09:44:40Z</time>
      </trkpt>
      <trkpt lat="43.3466" lon="-0.54554">
        <ele>127.03</ele>
        <time>2017-02-28T09:44:41Z</time>
      </trkpt>
      <trkpt lat="43.34652" lon="-0.5461">
        <ele>126.55</ele>
        <time>2017-02-28T09:44:53Z</time>
      </trkpt>
      <trkpt lat="43.34652" lon="-0.54613">
        <ele>127.51</ele>
        <time>2017-02-28T09:44:54Z</time>
      </trkpt>
      <trkpt lat="43.34653" lon="-0.54615">
        <ele>128.47</ele>
        <time>2017-02-28T09:44:55Z</time>
      </trkpt>
      <trkpt lat="43.34654" lon="-0.54618">
        <ele>129.43</ele>
        <time>2017-02-28T09:44:56Z</time>
      </trkpt>
      <trkpt lat="43.34655" lon="-0.54619">
        <ele>129.92</ele>
        <time>2017-02-28T09:44:57Z</time>
      </trkpt>
      <trkpt lat="43.34656" lon="-0.54619">
        <ele>130.4</ele>
        <time>2017-02-28T09:44:58Z</time>
      </trkpt>
      <trkpt lat="43.34657" lon="-0.54619">
        <ele>130.4</ele>
        <time>2017-02-28T09:44:59Z</time>
      </trkpt>
      <trkpt lat="43.34658" lon="-0.54618">
        <ele>131.36</ele>
        <time>2017-02-28T09:45:00Z</time>
      </trkpt>
      <trkpt lat="43.34659" lon="-0.54616">
        <ele>131.36</ele>
        <time>2017-02-28T09:45:01Z</time>
      </trkpt>
      <trkpt lat="43.3466" lon="-0.54615">
        <ele>131.84</ele>
        <time>2017-02-28T09:45:02Z</time>
      </trkpt>
      <trkpt lat="43.34661" lon="-0.54614">
        <ele>131.84</ele>
        <time>2017-02-28T09:45:03Z</time>
      </trkpt>
      <trkpt lat="43.34662" lon="-0.54612">
        <ele>131.84</ele>
        <time>2017-02-28T09:45:04Z</time>
      </trkpt>
      <trkpt lat="43.34663" lon="-0.54611">
        <ele>131.84</ele>
        <time>2017-02-28T09:45:05Z</time>
      </trkpt>
      <trkpt lat="43.34664" lon="-0.54609">
        <ele>131.84</ele>
        <time>2017-02-28T09:45:06Z</time>
      </trkpt>
      <trkpt lat="43.34665" lon="-0.54608">
        <ele>131.84</ele>
        <time>2017-02-28T09:45:07Z</time>
      </trkpt>
      <trkpt lat="43.34666" lon="-0.54606">
        <ele>131.84</ele>
        <time>2017-02-28T09:45:08Z</time>
      </trkpt>
      <trkpt lat="43.34667" lon="-0.54605">
        <ele>132.32</ele>
        <time>2017-02-28T09:45:09Z</time>
      </trkpt>
      <trkpt lat="43.34669" lon="-0.54603">
        <ele>132.32</ele>
        <time>2017-02-28T09:45:10Z</time>
      </trkpt>
      <trkpt lat="43.34669" lon="-0.54602">
        <ele>132.8</ele>
        <time>2017-02-28T09:45:11Z</time>
      </trkpt>
      <trkpt lat="43.3467" lon="-0.546">
        <ele>132.8</ele>
        <time>2017-02-28T09:45:12Z</time>
      </trkpt>
      <trkpt lat="43.34672" lon="-0.54599">
        <ele>133.28</ele>
        <time>2017-02-28T09:45:13Z</time>
      </trkpt>
      <trkpt lat="43.34673" lon="-0.54597">
        <ele>133.76</ele>
        <time>2017-02-28T09:45:14Z</time>
      </trkpt>
      <trkpt lat="43.34674" lon="-0.54596">
        <ele>133.76</ele>
        <time>2017-02-28T09:45:15Z</time>
      </trkpt>
      <trkpt lat="43.34675" lon="-0.54595">
        <ele>134.24</ele>
        <time>2017-02-28T09:45:16Z</time>
      </trkpt>
      <trkpt lat="43.34676" lon="-0.54594">
        <ele>134.24</ele>
        <time>2017-02-28T09:45:17Z</time>
      </trkpt>
      <trkpt lat="43.34689" lon="-0.54578">
        <ele>133.28</ele>
        <time>2017-02-28T09:45:31Z</time>
      </trkpt>
      <trkpt lat="43.3471" lon="-0.54554">
        <ele>140.49</ele>
        <time>2017-02-28T09:45:47Z</time>
      </trkpt>
      <trkpt lat="43.34712" lon="-0.54552">
        <ele>140.97</ele>
        <time>2017-02-28T09:45:48Z</time>
      </trkpt>
      <trkpt lat="43.34713" lon="-0.54551">
        <ele>140.97</ele>
        <time>2017-02-28T09:45:49Z</time>
      </trkpt>
      <trkpt lat="43.34715" lon="-0.54548">
        <ele>140.97</ele>
        <time>2017-02-28T09:45:51Z</time>
      </trkpt>
      <trkpt lat="43.34716" lon="-0.54547">
        <ele>140.49</ele>
        <time>2017-02-28T09:45:52Z</time>
      </trkpt>
      <trkpt lat="43.34717" lon="-0.54545">
        <ele>140.49</ele>
        <time>2017-02-28T09:45:53Z</time>
      </trkpt>
      <trkpt lat="43.34732" lon="-0.54526">
        <ele>143.37</ele>
        <time>2017-02-28T09:46:05Z</time>
      </trkpt>
      <trkpt lat="43.34747" lon="-0.54503">
        <ele>146.26</ele>
        <time>2017-02-28T09:46:21Z</time>
      </trkpt>
      <trkpt lat="43.34767" lon="-0.54482">
        <ele>149.62</ele>
        <time>2017-02-28T09:46:38Z</time>
      </trkpt>
      <trkpt lat="43.3478" lon="-0.54469">
        <ele>151.06</ele>
        <time>2017-02-28T09:46:47Z</time>
      </trkpt>
      <trkpt lat="43.34782" lon="-0.54468">
        <ele>151.06</ele>
        <time>2017-02-28T09:46:48Z</time>
      </trkpt>
      <trkpt lat="43.34783" lon="-0.54467">
        <ele>151.06</ele>
        <time>2017-02-28T09:46:49Z</time>
      </trkpt>
      <trkpt lat="43.34785" lon="-0.54466">
        <ele>151.54</ele>
        <time>2017-02-28T09:46:50Z</time>
      </trkpt>
      <trkpt lat="43.34786" lon="-0.54464">
        <ele>151.54</ele>
        <time>2017-02-28T09:46:51Z</time>
      </trkpt>
      <trkpt lat="43.34787" lon="-0.54463">
        <ele>151.54</ele>
        <time>2017-02-28T09:46:52Z</time>
      </trkpt>
      <trkpt lat="43.34789" lon="-0.54462">
        <ele>152.03</ele>
        <time>2017-02-28T09:46:53Z</time>
      </trkpt>
      <trkpt lat="43.3479" lon="-0.5446">
        <ele>152.03</ele>
        <time>2017-02-28T09:46:54Z</time>
      </trkpt>
      <trkpt lat="43.34791" lon="-0.54459">
        <ele>152.51</ele>
        <time>2017-02-28T09:46:55Z</time>
      </trkpt>
      <trkpt lat="43.34813" lon="-0.54426">
        <ele>152.51</ele>
        <time>2017-02-28T09:47:13Z</time>
      </trkpt>
      <trkpt lat="43.34837" lon="-0.54401">
        <ele>154.91</ele>
        <time>2017-02-28T09:47:29Z</time>
      </trkpt>
      <trkpt lat="43.3487" lon="-0.54372">
        <ele>157.79</ele>
        <time>2017-02-28T09:47:47Z</time>
      </trkpt>
      <trkpt lat="43.34899" lon="-0.54367">
        <ele>160.2</ele>
        <time>2017-02-28T09:48:03Z</time>
      </trkpt>
      <trkpt lat="43.34925" lon="-0.54339">
        <ele>156.35</ele>
        <time>2017-02-28T09:48:19Z</time>
      </trkpt>
      <trkpt lat="43.34943" lon="-0.54312">
        <ele>156.83</ele>
        <time>2017-02-28T09:48:33Z</time>
      </trkpt>
      <trkpt lat="43.34959" lon="-0.54291">
        <ele>157.79</ele>
        <time>2017-02-28T09:48:49Z</time>
      </trkpt>
      <trkpt lat="43.34977" lon="-0.54271">
        <ele>159.72</ele>
        <time>2017-02-28T09:49:05Z</time>
      </trkpt>
      <trkpt lat="43.34995" lon="-0.5425">
        <ele>162.6</ele>
        <time>2017-02-28T09:49:22Z</time>
      </trkpt>
      <trkpt lat="43.35006" lon="-0.54228">
        <ele>164.04</ele>
        <time>2017-02-28T09:49:39Z</time>
      </trkpt>
      <trkpt lat="43.35007" lon="-0.54223">
        <ele>164.52</ele>
        <time>2017-02-28T09:49:42Z</time>
      </trkpt>
      <trkpt lat="43.35007" lon="-0.54222">
        <ele>165</ele>
        <time>2017-02-28T09:49:43Z</time>
      </trkpt>
      <trkpt lat="43.35007" lon="-0.5422">
        <ele>165</ele>
        <time>2017-02-28T09:49:44Z</time>
      </trkpt>
      <trkpt lat="43.35001" lon="-0.54194">
        <ele>168.37</ele>
        <time>2017-02-28T09:50:00Z</time>
      </trkpt>
      <trkpt lat="43.34993" lon="-0.54167">
        <ele>169.81</ele>
        <time>2017-02-28T09:50:14Z</time>
      </trkpt>
      <trkpt lat="43.34989" lon="-0.54119">
        <ele>169.81</ele>
        <time>2017-02-28T09:50:28Z</time>
      </trkpt>
      <trkpt lat="43.34992" lon="-0.54074">
        <ele>170.77</ele>
        <time>2017-02-28T09:50:41Z</time>
      </trkpt>
      <trkpt lat="43.35002" lon="-0.54032">
        <ele>170.29</ele>
        <time>2017-02-28T09:50:54Z</time>
      </trkpt>
      <trkpt lat="43.34993" lon="-0.53978">
        <ele>172.21</ele>
        <time>2017-02-28T09:51:09Z</time>
      </trkpt>
      <trkpt lat="43.34978" lon="-0.53923">
        <ele>176.54</ele>
        <time>2017-02-28T09:51:22Z</time>
      </trkpt>
      <trkpt lat="43.3497" lon="-0.53881">
        <ele>175.1</ele>
        <time>2017-02-28T09:51:29Z</time>
      </trkpt>
      <trkpt lat="43.34971" lon="-0.53834">
        <ele>174.14</ele>
        <time>2017-02-28T09:51:37Z</time>
      </trkpt>
      <trkpt lat="43.34971" lon="-0.53828">
        <ele>173.66</ele>
        <time>2017-02-28T09:51:38Z</time>
      </trkpt>
      <trkpt lat="43.3497" lon="-0.53823">
        <ele>173.66</ele>
        <time>2017-02-28T09:51:39Z</time>
      </trkpt>
      <trkpt lat="43.3497" lon="-0.53818">
        <ele>173.66</ele>
        <time>2017-02-28T09:51:40Z</time>
      </trkpt>
      <trkpt lat="43.34969" lon="-0.53814">
        <ele>173.66</ele>
        <time>2017-02-28T09:51:41Z</time>
      </trkpt>
      <trkpt lat="43.34975" lon="-0.53785">
        <ele>175.58</ele>
        <time>2017-02-28T09:51:54Z</time>
      </trkpt>
      <trkpt lat="43.34986" lon="-0.53769">
        <ele>178.46</ele>
        <time>2017-02-28T09:52:06Z</time>
      </trkpt>
      <trkpt lat="43.34987" lon="-0.53768">
        <ele>178.94</ele>
        <time>2017-02-28T09:52:07Z</time>
      </trkpt>
      <trkpt lat="43.35005" lon="-0.53751">
        <ele>180.87</ele>
        <time>2017-02-28T09:52:24Z</time>
      </trkpt>
      <trkpt lat="43.35021" lon="-0.53732">
        <ele>185.67</ele>
        <time>2017-02-28T09:52:41Z</time>
      </trkpt>
      <trkpt lat="43.3503" lon="-0.53721">
        <ele>188.08</ele>
        <time>2017-02-28T09:52:52Z</time>
      </trkpt>
      <trkpt lat="43.35031" lon="-0.5372">
        <ele>188.08</ele>
        <time>2017-02-28T09:52:53Z</time>
      </trkpt>
      <trkpt lat="43.35034" lon="-0.53719">
        <ele>188.56</ele>
        <time>2017-02-28T09:52:56Z</time>
      </trkpt>
      <trkpt lat="43.35038" lon="-0.5372">
        <ele>189.04</ele>
        <time>2017-02-28T09:53:00Z</time>
      </trkpt>
      <trkpt lat="43.35039" lon="-0.53721">
        <ele>189.04</ele>
        <time>2017-02-28T09:53:01Z</time>
      </trkpt>
      <trkpt lat="43.35039" lon="-0.53723">
        <ele>189.04</ele>
        <time>2017-02-28T09:53:02Z</time>
      </trkpt>
      <trkpt lat="43.3504" lon="-0.53724">
        <ele>189.04</ele>
        <time>2017-02-28T09:53:03Z</time>
      </trkpt>
      <trkpt lat="43.35041" lon="-0.53726">
        <ele>189.52</ele>
        <time>2017-02-28T09:53:04Z</time>
      </trkpt>
      <trkpt lat="43.35049" lon="-0.53764">
        <ele>189.04</ele>
        <time>2017-02-28T09:53:19Z</time>
      </trkpt>
      <trkpt lat="43.35053" lon="-0.53784">
        <ele>189.52</ele>
        <time>2017-02-28T09:53:27Z</time>
      </trkpt>
      <trkpt lat="43.35054" lon="-0.53787">
        <ele>189.52</ele>
        <time>2017-02-28T09:53:28Z</time>
      </trkpt>
      <trkpt lat="43.35056" lon="-0.53789">
        <ele>189.04</ele>
        <time>2017-02-28T09:53:29Z</time>
      </trkpt>
      <trkpt lat="43.35057" lon="-0.53792">
        <ele>189.04</ele>
        <time>2017-02-28T09:53:30Z</time>
      </trkpt>
      <trkpt lat="43.35057" lon="-0.53794">
        <ele>189.04</ele>
        <time>2017-02-28T09:53:31Z</time>
      </trkpt>
      <trkpt lat="43.35058" lon="-0.53797">
        <ele>189.04</ele>
        <time>2017-02-28T09:53:32Z</time>
      </trkpt>
      <trkpt lat="43.35059" lon="-0.538">
        <ele>189.04</ele>
        <time>2017-02-28T09:53:33Z</time>
      </trkpt>
      <trkpt lat="43.3506" lon="-0.53802">
        <ele>189.04</ele>
        <time>2017-02-28T09:53:34Z</time>
      </trkpt>
      <trkpt lat="43.35068" lon="-0.53835">
        <ele>187.59</ele>
        <time>2017-02-28T09:53:47Z</time>
      </trkpt>
      <trkpt lat="43.35073" lon="-0.53864">
        <ele>183.27</ele>
        <time>2017-02-28T09:53:57Z</time>
      </trkpt>
      <trkpt lat="43.35072" lon="-0.539">
        <ele>180.38</ele>
        <time>2017-02-28T09:54:08Z</time>
      </trkpt>
      <trkpt lat="43.35076" lon="-0.53938">
        <ele>178.46</ele>
        <time>2017-02-28T09:54:17Z</time>
      </trkpt>
      <trkpt lat="43.35091" lon="-0.5398">
        <ele>181.35</ele>
        <time>2017-02-28T09:54:30Z</time>
      </trkpt>
      <trkpt lat="43.35106" lon="-0.54012">
        <ele>181.35</ele>
        <time>2017-02-28T09:54:42Z</time>
      </trkpt>
      <trkpt lat="43.35136" lon="-0.54027">
        <ele>183.27</ele>
        <time>2017-02-28T09:54:54Z</time>
      </trkpt>
      <trkpt lat="43.35162" lon="-0.5404">
        <ele>183.27</ele>
        <time>2017-02-28T09:55:02Z</time>
      </trkpt>
      <trkpt lat="43.35188" lon="-0.54056">
        <ele>184.71</ele>
        <time>2017-02-28T09:55:07Z</time>
      </trkpt>
      <trkpt lat="43.35216" lon="-0.54063">
        <ele>189.52</ele>
        <time>2017-02-28T09:55:16Z</time>
      </trkpt>
      <trkpt lat="43.35231" lon="-0.54068">
        <ele>193.84</ele>
        <time>2017-02-28T09:55:28Z</time>
      </trkpt>
      <trkpt lat="43.35234" lon="-0.5407">
        <ele>193.84</ele>
        <time>2017-02-28T09:55:52Z</time>
      </trkpt>
      <trkpt lat="43.35243" lon="-0.54096">
        <ele>193.36</ele>
        <time>2017-02-28T09:55:58Z</time>
      </trkpt>
      <trkpt lat="43.35247" lon="-0.54111">
        <ele>192.88</ele>
        <time>2017-02-28T09:56:00Z</time>
      </trkpt>
      <trkpt lat="43.35287" lon="-0.54238">
        <ele>192.88</ele>
        <time>2017-02-28T09:56:15Z</time>
      </trkpt>
      <trkpt lat="43.35301" lon="-0.54337">
        <ele>194.32</ele>
        <time>2017-02-28T09:56:28Z</time>
      </trkpt>
      <trkpt lat="43.35296" lon="-0.54397">
        <ele>195.28</ele>
        <time>2017-02-28T09:56:37Z</time>
      </trkpt>
      <trkpt lat="43.35296" lon="-0.54404">
        <ele>195.28</ele>
        <time>2017-02-28T09:56:38Z</time>
      </trkpt>
      <trkpt lat="43.35299" lon="-0.54493">
        <ele>195.28</ele>
        <time>2017-02-28T09:56:52Z</time>
      </trkpt>
      <trkpt lat="43.35299" lon="-0.54525">
        <ele>195.77</ele>
        <time>2017-02-28T09:56:57Z</time>
      </trkpt>
      <trkpt lat="43.35298" lon="-0.54532">
        <ele>196.25</ele>
        <time>2017-02-28T09:56:58Z</time>
      </trkpt>
      <trkpt lat="43.35298" lon="-0.54539">
        <ele>196.25</ele>
        <time>2017-02-28T09:56:59Z</time>
      </trkpt>
      <trkpt lat="43.35297" lon="-0.54593">
        <ele>197.21</ele>
        <time>2017-02-28T09:57:09Z</time>
      </trkpt>
      <trkpt lat="43.35291" lon="-0.54644">
        <ele>197.21</ele>
        <time>2017-02-28T09:57:18Z</time>
      </trkpt>
      <trkpt lat="43.35292" lon="-0.54662">
        <ele>197.21</ele>
        <time>2017-02-28T09:57:21Z</time>
      </trkpt>
      <trkpt lat="43.35301" lon="-0.54709">
        <ele>199.13</ele>
        <time>2017-02-28T09:57:29Z</time>
      </trkpt>
      <trkpt lat="43.35303" lon="-0.54713">
        <ele>199.13</ele>
        <time>2017-02-28T09:57:30Z</time>
      </trkpt>
      <trkpt lat="43.35306" lon="-0.54718">
        <ele>199.61</ele>
        <time>2017-02-28T09:57:31Z</time>
      </trkpt>
      <trkpt lat="43.35308" lon="-0.54722">
        <ele>199.61</ele>
        <time>2017-02-28T09:57:32Z</time>
      </trkpt>
      <trkpt lat="43.35311" lon="-0.54726">
        <ele>200.57</ele>
        <time>2017-02-28T09:57:33Z</time>
      </trkpt>
      <trkpt lat="43.35342" lon="-0.54754">
        <ele>202.98</ele>
        <time>2017-02-28T09:57:45Z</time>
      </trkpt>
      <trkpt lat="43.35344" lon="-0.54756">
        <ele>202.98</ele>
        <time>2017-02-28T09:57:46Z</time>
      </trkpt>
      <trkpt lat="43.35344" lon="-0.54759">
        <ele>202.49</ele>
        <time>2017-02-28T09:57:47Z</time>
      </trkpt>
      <trkpt lat="43.35343" lon="-0.54769">
        <ele>201.53</ele>
        <time>2017-02-28T09:57:49Z</time>
      </trkpt>
      <trkpt lat="43.35337" lon="-0.54777">
        <ele>199.61</ele>
        <time>2017-02-28T09:57:52Z</time>
      </trkpt>
      <trkpt lat="43.35332" lon="-0.54785">
        <ele>197.21</ele>
        <time>2017-02-28T09:57:55Z</time>
      </trkpt>
      <trkpt lat="43.35319" lon="-0.54843">
        <ele>190.48</ele>
        <time>2017-02-28T09:58:03Z</time>
      </trkpt>
      <trkpt lat="43.35312" lon="-0.54868">
        <ele>187.59</ele>
        <time>2017-02-28T09:58:06Z</time>
      </trkpt>
      <trkpt lat="43.35306" lon="-0.54931">
        <ele>180.87</ele>
        <time>2017-02-28T09:58:12Z</time>
      </trkpt>
      <trkpt lat="43.35314" lon="-0.55017">
        <ele>164.52</ele>
        <time>2017-02-28T09:58:23Z</time>
      </trkpt>
      <trkpt lat="43.3532" lon="-0.55089">
        <ele>149.14</ele>
        <time>2017-02-28T09:58:32Z</time>
      </trkpt>
      <trkpt lat="43.35321" lon="-0.55122">
        <ele>143.85</ele>
        <time>2017-02-28T09:58:37Z</time>
      </trkpt>
      <trkpt lat="43.35319" lon="-0.55128">
        <ele>142.89</ele>
        <time>2017-02-28T09:58:38Z</time>
      </trkpt>
      <trkpt lat="43.35315" lon="-0.55133">
        <ele>141.93</ele>
        <time>2017-02-28T09:58:39Z</time>
      </trkpt>
      <trkpt lat="43.35279" lon="-0.55182">
        <ele>133.76</ele>
        <time>2017-02-28T09:58:48Z</time>
      </trkpt>
      <trkpt lat="43.35269" lon="-0.552">
        <ele>129.43</ele>
        <time>2017-02-28T09:58:52Z</time>
      </trkpt>
      <trkpt lat="43.3526" lon="-0.55208">
        <ele>127.03</ele>
        <time>2017-02-28T09:58:54Z</time>
      </trkpt>
      <trkpt lat="43.35254" lon="-0.55215">
        <ele>125.59</ele>
        <time>2017-02-28T09:58:55Z</time>
      </trkpt>
      <trkpt lat="43.35239" lon="-0.55237">
        <ele>122.22</ele>
        <time>2017-02-28T09:58:58Z</time>
      </trkpt>
      <trkpt lat="43.35234" lon="-0.55243">
        <ele>121.26</ele>
        <time>2017-02-28T09:58:59Z</time>
      </trkpt>
      <trkpt lat="43.35221" lon="-0.55273">
        <ele>118.38</ele>
        <time>2017-02-28T09:59:05Z</time>
      </trkpt>
      <trkpt lat="43.3522" lon="-0.55323">
        <ele>117.9</ele>
        <time>2017-02-28T09:59:17Z</time>
      </trkpt>
      <trkpt lat="43.35219" lon="-0.55324">
        <ele>118.38</ele>
        <time>2017-02-28T09:59:28Z</time>
      </trkpt>
    </trkseg>
  </trk>
</gpx>